<?xml version='1.0' encoding='UTF-8'?><gpx version="1.1" creator="JPX - https://github.com/jenetics/jpx" xmlns="http://www.topografix.com/GPX/1/1"><trk><trkseg><trkpt lat="43.5306567" lon="11.3560267"><ele>664.0</ele><time>2026-03-22T10:43:27.9Z</time></trkpt><trkpt lat="43.53058" lon="11.3559083"><ele>664.0</ele><time>2026-03-22T10:43:47.9Z</time></trkpt><trkpt lat="43.530485" lon="11.3558583"><ele>664.0</ele><time>2026-03-22T10:43:49.9Z</time></trkpt><trkpt lat="43.530365" lon="11.3558033"><ele>664.0</ele><time>2026-03-22T10:43:51.9Z</time></trkpt><trkpt lat="43.5302817" lon="11.3557683"><ele>664.0</ele><time>2026-03-22T10:43:52.9Z</time></trkpt><trkpt lat="43.530185" lon="11.3557183"><ele>664.4000000000001</ele><time>2026-03-22T10:43:53.9Z</time></trkpt><trkpt lat="43.5300933" lon="11.3556683"><ele>664.8</ele><time>2026-03-22T10:43:54.9Z</time></trkpt><trkpt lat="43.5299917" lon="11.35561"><ele>665.2</ele><time>2026-03-22T10:43:55.9Z</time></trkpt><trkpt lat="43.5298933" lon="11.3555567"><ele>665.5999999999999</ele><time>2026-03-22T10:43:56.9Z</time></trkpt><trkpt lat="43.5297867" lon="11.355515"><ele>666.0</ele><time>2026-03-22T10:43:57.9Z</time></trkpt><trkpt lat="43.5296767" lon="11.35548"><ele>664.0</ele><time>2026-03-22T10:43:58.9Z</time></trkpt><trkpt lat="43.5295733" lon="11.3554567"><ele>662.0</ele><time>2026-03-22T10:43:59.9Z</time></trkpt><trkpt lat="43.5294683" lon="11.3554217"><ele>660.0</ele><time>2026-03-22T10:44:00.9Z</time></trkpt><trkpt lat="43.5293633" lon="11.355395"><ele>658.0</ele><time>2026-03-22T10:44:01.9Z</time></trkpt><trkpt lat="43.5292567" lon="11.35536"><ele>656.0</ele><time>2026-03-22T10:44:02.9Z</time></trkpt><trkpt lat="43.529165" lon="11.3553333"><ele>656.0</ele><time>2026-03-22T10:44:03.9Z</time></trkpt><trkpt lat="43.52907" lon="11.355315"><ele>656.0</ele><time>2026-03-22T10:44:04.9Z</time></trkpt><trkpt lat="43.5289717" lon="11.3553383"><ele>656.0</ele><time>2026-03-22T10:44:05.9Z</time></trkpt><trkpt lat="43.528875" lon="11.355385"><ele>656.0</ele><time>2026-03-22T10:44:06.9Z</time></trkpt><trkpt lat="43.5287733" lon="11.3554267"><ele>656.0</ele><time>2026-03-22T10:44:07.9Z</time></trkpt><trkpt lat="43.528665" lon="11.355495"><ele>657.5999999999999</ele><time>2026-03-22T10:44:08.9Z</time></trkpt><trkpt lat="43.528555" lon="11.3555717"><ele>659.2</ele><time>2026-03-22T10:44:09.9Z</time></trkpt><trkpt lat="43.5284633" lon="11.3556333"><ele>660.8</ele><time>2026-03-22T10:44:10.9Z</time></trkpt><trkpt lat="43.528375" lon="11.3556933"><ele>662.4000000000001</ele><time>2026-03-22T10:44:11.9Z</time></trkpt><trkpt lat="43.52829" lon="11.355735"><ele>664.0</ele><time>2026-03-22T10:44:12.9Z</time></trkpt><trkpt lat="43.5282067" lon="11.35577"><ele>664.0</ele><time>2026-03-22T10:44:13.9Z</time></trkpt><trkpt lat="43.528115" lon="11.3557917"><ele>664.0</ele><time>2026-03-22T10:44:14.9Z</time></trkpt><trkpt lat="43.5280033" lon="11.3557867"><ele>664.0</ele><time>2026-03-22T10:44:15.9Z</time></trkpt><trkpt lat="43.5278883" lon="11.3557683"><ele>664.0</ele><time>2026-03-22T10:44:16.9Z</time></trkpt><trkpt lat="43.5277633" lon="11.3557367"><ele>664.0</ele><time>2026-03-22T10:44:17.9Z</time></trkpt><trkpt lat="43.5276433" lon="11.3557033"><ele>663.0</ele><time>2026-03-22T10:44:18.9Z</time></trkpt><trkpt lat="43.5275317" lon="11.3556817"><ele>662.0</ele><time>2026-03-22T10:44:19.9Z</time></trkpt><trkpt lat="43.52742" lon="11.355665"><ele>661.0</ele><time>2026-03-22T10:44:20.9Z</time></trkpt><trkpt lat="43.527305" lon="11.355655"><ele>660.0</ele><time>2026-03-22T10:44:21.9Z</time></trkpt><trkpt lat="43.5271917" lon="11.3556533"><ele>660.0</ele><time>2026-03-22T10:44:22.9Z</time></trkpt><trkpt lat="43.5270817" lon="11.35566"><ele>660.0</ele><time>2026-03-22T10:44:23.9Z</time></trkpt><trkpt lat="43.5269767" lon="11.35568"><ele>660.0</ele><time>2026-03-22T10:44:24.9Z</time></trkpt><trkpt lat="43.52688" lon="11.3556767"><ele>660.0</ele><time>2026-03-22T10:44:25.9Z</time></trkpt><trkpt lat="43.5267717" lon="11.3556417"><ele>660.0</ele><time>2026-03-22T10:44:26.9Z</time></trkpt><trkpt lat="43.52667" lon="11.355595"><ele>660.25</ele><time>2026-03-22T10:44:27.9Z</time></trkpt><trkpt lat="43.5265567" lon="11.355555"><ele>660.5</ele><time>2026-03-22T10:44:28.9Z</time></trkpt><trkpt lat="43.5264283" lon="11.3554817"><ele>660.75</ele><time>2026-03-22T10:44:29.9Z</time></trkpt><trkpt lat="43.5262883" lon="11.3554083"><ele>661.0</ele><time>2026-03-22T10:44:30.9Z</time></trkpt><trkpt lat="43.526155" lon="11.3553367"><ele>657.0</ele><time>2026-03-22T10:44:31.9Z</time></trkpt><trkpt lat="43.526025" lon="11.3552733"><ele>653.0</ele><time>2026-03-22T10:44:32.9Z</time></trkpt><trkpt lat="43.5259083" lon="11.3552033"><ele>649.0</ele><time>2026-03-22T10:44:33.9Z</time></trkpt><trkpt lat="43.52579" lon="11.35513"><ele>645.0</ele><time>2026-03-22T10:44:34.9Z</time></trkpt><trkpt lat="43.5256717" lon="11.3550733"><ele>645.0</ele><time>2026-03-22T10:44:35.9Z</time></trkpt><trkpt lat="43.525575" lon="11.3550133"><ele>645.0</ele><time>2026-03-22T10:44:36.9Z</time></trkpt><trkpt lat="43.5254817" lon="11.354965"><ele>645.0</ele><time>2026-03-22T10:44:37.9Z</time></trkpt><trkpt lat="43.5253833" lon="11.3549367"><ele>645.0</ele><time>2026-03-22T10:44:38.9Z</time></trkpt><trkpt lat="43.5252833" lon="11.3549167"><ele>645.0</ele><time>2026-03-22T10:44:39.9Z</time></trkpt><trkpt lat="43.52517" lon="11.3549183"><ele>645.0</ele><time>2026-03-22T10:44:40.9Z</time></trkpt><trkpt lat="43.5250467" lon="11.3549117"><ele>645.0</ele><time>2026-03-22T10:44:41.901Z</time></trkpt><trkpt lat="43.5249183" lon="11.3548883"><ele>645.0</ele><time>2026-03-22T10:44:42.9Z</time></trkpt><trkpt lat="43.52479" lon="11.3548567"><ele>645.0</ele><time>2026-03-22T10:44:43.9Z</time></trkpt><trkpt lat="43.5246633" lon="11.35481"><ele>646.0</ele><time>2026-03-22T10:44:44.9Z</time></trkpt><trkpt lat="43.52455" lon="11.354755"><ele>647.0</ele><time>2026-03-22T10:44:45.901Z</time></trkpt><trkpt lat="43.5244467" lon="11.3547017"><ele>648.0</ele><time>2026-03-22T10:44:46.9Z</time></trkpt><trkpt lat="43.5243467" lon="11.3546483"><ele>649.0</ele><time>2026-03-22T10:44:47.9Z</time></trkpt><trkpt lat="43.5242717" lon="11.3545883"><ele>650.0</ele><time>2026-03-22T10:44:48.9Z</time></trkpt><trkpt lat="43.5242067" lon="11.3545067"><ele>647.2</ele><time>2026-03-22T10:44:49.9Z</time></trkpt><trkpt lat="43.5241533" lon="11.3544033"><ele>644.4</ele><time>2026-03-22T10:44:50.9Z</time></trkpt><trkpt lat="43.5241333" lon="11.3542567"><ele>641.6</ele><time>2026-03-22T10:44:51.9Z</time></trkpt><trkpt lat="43.5241217" lon="11.3540983"><ele>638.8</ele><time>2026-03-22T10:44:52.9Z</time></trkpt><trkpt lat="43.5240983" lon="11.35394"><ele>636.0</ele><time>2026-03-22T10:44:53.9Z</time></trkpt><trkpt lat="43.5240733" lon="11.3538"><ele>633.2</ele><time>2026-03-22T10:44:54.9Z</time></trkpt><trkpt lat="43.5240517" lon="11.3536883"><ele>630.4000000000001</ele><time>2026-03-22T10:44:55.9Z</time></trkpt><trkpt lat="43.5240167" lon="11.3536"><ele>627.6</ele><time>2026-03-22T10:44:56.9Z</time></trkpt><trkpt lat="43.5239683" lon="11.3535367"><ele>624.8000000000001</ele><time>2026-03-22T10:44:57.901Z</time></trkpt><trkpt lat="43.5238383" lon="11.35349"><ele>622.0</ele><time>2026-03-22T10:44:59.9Z</time></trkpt><trkpt lat="43.5237417" lon="11.3535083"><ele>621.25</ele><time>2026-03-22T10:45:00.9Z</time></trkpt><trkpt lat="43.5236333" lon="11.35354"><ele>620.5</ele><time>2026-03-22T10:45:01.9Z</time></trkpt><trkpt lat="43.5235183" lon="11.3535983"><ele>619.75</ele><time>2026-03-22T10:45:02.9Z</time></trkpt><trkpt lat="43.523405" lon="11.3536733"><ele>619.0</ele><time>2026-03-22T10:45:03.9Z</time></trkpt><trkpt lat="43.5233067" lon="11.35377"><ele>625.0</ele><time>2026-03-22T10:45:04.9Z</time></trkpt><trkpt lat="43.5231167" lon="11.35394"><ele>631.0</ele><time>2026-03-22T10:45:06.9Z</time></trkpt><trkpt lat="43.5230117" lon="11.3540017"><ele>637.0</ele><time>2026-03-22T10:45:07.9Z</time></trkpt><trkpt lat="43.522905" lon="11.3540383"><ele>635.5</ele><time>2026-03-22T10:45:08.9Z</time></trkpt><trkpt lat="43.5227917" lon="11.354055"><ele>634.0</ele><time>2026-03-22T10:45:09.9Z</time></trkpt><trkpt lat="43.5226667" lon="11.3540433"><ele>632.5</ele><time>2026-03-22T10:45:10.9Z</time></trkpt><trkpt lat="43.5225583" lon="11.35401"><ele>631.0</ele><time>2026-03-22T10:45:11.9Z</time></trkpt><trkpt lat="43.5224583" lon="11.3539617"><ele>631.0</ele><time>2026-03-22T10:45:12.9Z</time></trkpt><trkpt lat="43.52235" lon="11.3538967"><ele>631.0</ele><time>2026-03-22T10:45:13.901Z</time></trkpt><trkpt lat="43.52227" lon="11.3538583"><ele>631.0</ele><time>2026-03-22T10:45:14.9Z</time></trkpt><trkpt lat="43.5221583" lon="11.3538383"><ele>631.0</ele><time>2026-03-22T10:45:16.9Z</time></trkpt><trkpt lat="43.52208" lon="11.3539"><ele>631.0</ele><time>2026-03-22T10:45:18.9Z</time></trkpt><trkpt lat="43.522015" lon="11.3539583"><ele>629.1666666666667</ele><time>2026-03-22T10:45:19.9Z</time></trkpt><trkpt lat="43.521935" lon="11.3540283"><ele>627.3333333333334</ele><time>2026-03-22T10:45:20.9Z</time></trkpt><trkpt lat="43.5218583" lon="11.3541067"><ele>625.5</ele><time>2026-03-22T10:45:21.9Z</time></trkpt><trkpt lat="43.5217817" lon="11.35417"><ele>623.6666666666666</ele><time>2026-03-22T10:45:22.9Z</time></trkpt><trkpt lat="43.5217267" lon="11.3542283"><ele>621.8333333333333</ele><time>2026-03-22T10:45:23.9Z</time></trkpt><trkpt lat="43.5216767" lon="11.3542933"><ele>620.0</ele><time>2026-03-22T10:45:24.9Z</time></trkpt><trkpt lat="43.52163" lon="11.354385"><ele>620.0</ele><time>2026-03-22T10:45:25.901Z</time></trkpt><trkpt lat="43.5215933" lon="11.3545083"><ele>620.0</ele><time>2026-03-22T10:45:26.9Z</time></trkpt><trkpt lat="43.52157" lon="11.354645"><ele>620.0</ele><time>2026-03-22T10:45:27.9Z</time></trkpt><trkpt lat="43.5215483" lon="11.3547933"><ele>620.0</ele><time>2026-03-22T10:45:28.9Z</time></trkpt><trkpt lat="43.52154" lon="11.3549317"><ele>620.0</ele><time>2026-03-22T10:45:29.9Z</time></trkpt><trkpt lat="43.5215333" lon="11.3550683"><ele>619.6</ele><time>2026-03-22T10:45:30.9Z</time></trkpt><trkpt lat="43.5215417" lon="11.3551833"><ele>619.2</ele><time>2026-03-22T10:45:31.9Z</time></trkpt><trkpt lat="43.521575" lon="11.3553017"><ele>618.8</ele><time>2026-03-22T10:45:32.9Z</time></trkpt><trkpt lat="43.52163" lon="11.355425"><ele>618.4</ele><time>2026-03-22T10:45:33.9Z</time></trkpt><trkpt lat="43.5217" lon="11.355555"><ele>618.0</ele><time>2026-03-22T10:45:34.9Z</time></trkpt><trkpt lat="43.5217717" lon="11.35568"><ele>616.4</ele><time>2026-03-22T10:45:35.9Z</time></trkpt><trkpt lat="43.5218383" lon="11.3557933"><ele>614.8</ele><time>2026-03-22T10:45:36.9Z</time></trkpt><trkpt lat="43.5218783" lon="11.3559283"><ele>613.2</ele><time>2026-03-22T10:45:37.9Z</time></trkpt><trkpt lat="43.5218933" lon="11.35607"><ele>611.6</ele><time>2026-03-22T10:45:38.9Z</time></trkpt><trkpt lat="43.5219" lon="11.3562017"><ele>610.0</ele><time>2026-03-22T10:45:39.9Z</time></trkpt><trkpt lat="43.5218933" lon="11.3563367"><ele>609.2</ele><time>2026-03-22T10:45:40.9Z</time></trkpt><trkpt lat="43.5218817" lon="11.3564717"><ele>608.4</ele><time>2026-03-22T10:45:41.9Z</time></trkpt><trkpt lat="43.5218767" lon="11.3566183"><ele>607.6</ele><time>2026-03-22T10:45:42.9Z</time></trkpt><trkpt lat="43.5218817" lon="11.3567483"><ele>606.8</ele><time>2026-03-22T10:45:43.9Z</time></trkpt><trkpt lat="43.5219" lon="11.356875"><ele>606.0</ele><time>2026-03-22T10:45:44.9Z</time></trkpt><trkpt lat="43.5219333" lon="11.356985"><ele>606.0</ele><time>2026-03-22T10:45:45.9Z</time></trkpt><trkpt lat="43.52197" lon="11.3570883"><ele>606.0</ele><time>2026-03-22T10:45:46.9Z</time></trkpt><trkpt lat="43.522" lon="11.357185"><ele>606.0</ele><time>2026-03-22T10:45:47.9Z</time></trkpt><trkpt lat="43.5220017" lon="11.3573167"><ele>606.0</ele><time>2026-03-22T10:45:49.9Z</time></trkpt><trkpt lat="43.5219433" lon="11.3573617"><ele>606.0</ele><time>2026-03-22T10:45:51.9Z</time></trkpt><trkpt lat="43.5218133" lon="11.3572967"><ele>608.2</ele><time>2026-03-22T10:45:53.9Z</time></trkpt><trkpt lat="43.5217367" lon="11.35727"><ele>610.4000000000001</ele><time>2026-03-22T10:45:54.9Z</time></trkpt><trkpt lat="43.5216667" lon="11.3572633"><ele>612.6</ele><time>2026-03-22T10:45:55.9Z</time></trkpt><trkpt lat="43.5215717" lon="11.3572917"><ele>614.8000000000001</ele><time>2026-03-22T10:45:56.9Z</time></trkpt><trkpt lat="43.5214633" lon="11.3573583"><ele>617.0</ele><time>2026-03-22T10:45:57.9Z</time></trkpt><trkpt lat="43.5213617" lon="11.3574233"><ele>617.0</ele><time>2026-03-22T10:45:58.9Z</time></trkpt><trkpt lat="43.5212533" lon="11.3574967"><ele>617.0</ele><time>2026-03-22T10:45:59.9Z</time></trkpt><trkpt lat="43.5211317" lon="11.3575717"><ele>617.0</ele><time>2026-03-22T10:46:00.9Z</time></trkpt><trkpt lat="43.5210083" lon="11.3576333"><ele>617.0</ele><time>2026-03-22T10:46:01.9Z</time></trkpt><trkpt lat="43.5208917" lon="11.3577"><ele>615.3333333333333</ele><time>2026-03-22T10:46:02.9Z</time></trkpt><trkpt lat="43.5207867" lon="11.3577617"><ele>613.6666666666666</ele><time>2026-03-22T10:46:03.9Z</time></trkpt><trkpt lat="43.5207033" lon="11.35782"><ele>612.0</ele><time>2026-03-22T10:46:04.9Z</time></trkpt><trkpt lat="43.5206233" lon="11.357885"><ele>610.3333333333334</ele><time>2026-03-22T10:46:05.9Z</time></trkpt><trkpt lat="43.52058" lon="11.3579667"><ele>608.6666666666667</ele><time>2026-03-22T10:46:06.9Z</time></trkpt><trkpt lat="43.520545" lon="11.35805"><ele>607.0</ele><time>2026-03-22T10:46:07.901Z</time></trkpt><trkpt lat="43.5205333" lon="11.35815"><ele>607.0</ele><time>2026-03-22T10:46:08.9Z</time></trkpt><trkpt lat="43.5205533" lon="11.3582617"><ele>607.0</ele><time>2026-03-22T10:46:09.9Z</time></trkpt><trkpt lat="43.5205883" lon="11.35837"><ele>607.0</ele><time>2026-03-22T10:46:10.9Z</time></trkpt><trkpt lat="43.52065" lon="11.3584817"><ele>607.0</ele><time>2026-03-22T10:46:11.9Z</time></trkpt><trkpt lat="43.5207217" lon="11.3586033"><ele>607.0</ele><time>2026-03-22T10:46:12.9Z</time></trkpt><trkpt lat="43.5208317" lon="11.3587483"><ele>603.5</ele><time>2026-03-22T10:46:13.9Z</time></trkpt><trkpt lat="43.520935" lon="11.358885"><ele>600.0</ele><time>2026-03-22T10:46:14.9Z</time></trkpt><trkpt lat="43.5210317" lon="11.3590167"><ele>596.5</ele><time>2026-03-22T10:46:15.9Z</time></trkpt><trkpt lat="43.5211117" lon="11.3591517"><ele>593.0</ele><time>2026-03-22T10:46:16.9Z</time></trkpt><trkpt lat="43.5211733" lon="11.359275"><ele>593.0</ele><time>2026-03-22T10:46:17.9Z</time></trkpt><trkpt lat="43.5212083" lon="11.3594033"><ele>593.0</ele><time>2026-03-22T10:46:18.9Z</time></trkpt><trkpt lat="43.5212233" lon="11.3595317"><ele>593.0</ele><time>2026-03-22T10:46:19.9Z</time></trkpt><trkpt lat="43.5211933" lon="11.3596567"><ele>593.0</ele><time>2026-03-22T10:46:20.9Z</time></trkpt><trkpt lat="43.5211433" lon="11.3597817"><ele>593.0</ele><time>2026-03-22T10:46:21.9Z</time></trkpt><trkpt lat="43.5210867" lon="11.3599067"><ele>591.1999999999999</ele><time>2026-03-22T10:46:22.9Z</time></trkpt><trkpt lat="43.5210633" lon="11.360025"><ele>589.4</ele><time>2026-03-22T10:46:23.9Z</time></trkpt><trkpt lat="43.521055" lon="11.3601433"><ele>587.5999999999999</ele><time>2026-03-22T10:46:24.9Z</time></trkpt><trkpt lat="43.521065" lon="11.360265"><ele>585.8</ele><time>2026-03-22T10:46:25.9Z</time></trkpt><trkpt lat="43.5210983" lon="11.3604083"><ele>584.0</ele><time>2026-03-22T10:46:26.9Z</time></trkpt><trkpt lat="43.5211517" lon="11.3605383"><ele>581.8</ele><time>2026-03-22T10:46:27.9Z</time></trkpt><trkpt lat="43.5212117" lon="11.3606517"><ele>579.5999999999999</ele><time>2026-03-22T10:46:28.9Z</time></trkpt><trkpt lat="43.5212967" lon="11.360745"><ele>577.4</ele><time>2026-03-22T10:46:29.9Z</time></trkpt><trkpt lat="43.5213933" lon="11.3608333"><ele>575.1999999999999</ele><time>2026-03-22T10:46:30.9Z</time></trkpt><trkpt lat="43.5214767" lon="11.3609333"><ele>573.0</ele><time>2026-03-22T10:46:31.9Z</time></trkpt><trkpt lat="43.5215517" lon="11.3610583"><ele>577.1999999999999</ele><time>2026-03-22T10:46:32.9Z</time></trkpt><trkpt lat="43.5216233" lon="11.361195"><ele>581.4</ele><time>2026-03-22T10:46:33.9Z</time></trkpt><trkpt lat="43.5216817" lon="11.3613233"><ele>585.5999999999999</ele><time>2026-03-22T10:46:34.9Z</time></trkpt><trkpt lat="43.521745" lon="11.361435"><ele>589.8</ele><time>2026-03-22T10:46:35.9Z</time></trkpt><trkpt lat="43.5218283" lon="11.3615383"><ele>594.0</ele><time>2026-03-22T10:46:36.9Z</time></trkpt><trkpt lat="43.5219117" lon="11.3616367"><ele>594.0</ele><time>2026-03-22T10:46:37.9Z</time></trkpt><trkpt lat="43.5219867" lon="11.36171"><ele>594.0</ele><time>2026-03-22T10:46:38.9Z</time></trkpt><trkpt lat="43.52205" lon="11.36176"><ele>594.0</ele><time>2026-03-22T10:46:39.9Z</time></trkpt><trkpt lat="43.5221317" lon="11.36187"><ele>594.0</ele><time>2026-03-22T10:46:41.9Z</time></trkpt><trkpt lat="43.522155" lon="11.3619583"><ele>594.0</ele><time>2026-03-22T10:46:43.9Z</time></trkpt><trkpt lat="43.5220467" lon="11.36198"><ele>594.0</ele><time>2026-03-22T10:46:45.9Z</time></trkpt><trkpt lat="43.52196" lon="11.3619633"><ele>594.0</ele><time>2026-03-22T10:46:46.9Z</time></trkpt><trkpt lat="43.52186" lon="11.36193"><ele>594.0</ele><time>2026-03-22T10:46:47.9Z</time></trkpt><trkpt lat="43.5217567" lon="11.3618967"><ele>594.0</ele><time>2026-03-22T10:46:48.9Z</time></trkpt><trkpt lat="43.5216533" lon="11.3618767"><ele>594.0</ele><time>2026-03-22T10:46:49.9Z</time></trkpt><trkpt lat="43.5215617" lon="11.3618617"><ele>594.0</ele><time>2026-03-22T10:46:50.9Z</time></trkpt><trkpt lat="43.5214617" lon="11.3618767"><ele>594.0</ele><time>2026-03-22T10:46:51.9Z</time></trkpt><trkpt lat="43.52136" lon="11.361905"><ele>594.0</ele><time>2026-03-22T10:46:52.9Z</time></trkpt><trkpt lat="43.5212567" lon="11.361925"><ele>594.0</ele><time>2026-03-22T10:46:53.9Z</time></trkpt><trkpt lat="43.5211433" lon="11.3619467"><ele>594.0</ele><time>2026-03-22T10:46:54.9Z</time></trkpt><trkpt lat="43.5210183" lon="11.3619617"><ele>589.25</ele><time>2026-03-22T10:46:55.9Z</time></trkpt><trkpt lat="43.5208933" lon="11.36194"><ele>584.5</ele><time>2026-03-22T10:46:56.9Z</time></trkpt><trkpt lat="43.5207667" lon="11.3619167"><ele>579.75</ele><time>2026-03-22T10:46:57.9Z</time></trkpt><trkpt lat="43.52064" lon="11.36188"><ele>575.0</ele><time>2026-03-22T10:46:58.9Z</time></trkpt><trkpt lat="43.5205233" lon="11.3618433"><ele>575.0</ele><time>2026-03-22T10:46:59.9Z</time></trkpt><trkpt lat="43.5204133" lon="11.361795"><ele>575.0</ele><time>2026-03-22T10:47:00.9Z</time></trkpt><trkpt lat="43.520295" lon="11.3617583"><ele>575.0</ele><time>2026-03-22T10:47:01.9Z</time></trkpt><trkpt lat="43.5201867" lon="11.3617117"><ele>575.0</ele><time>2026-03-22T10:47:02.9Z</time></trkpt><trkpt lat="43.5200833" lon="11.3616533"><ele>574.75</ele><time>2026-03-22T10:47:03.9Z</time></trkpt><trkpt lat="43.5199933" lon="11.3615783"><ele>574.5</ele><time>2026-03-22T10:47:04.9Z</time></trkpt><trkpt lat="43.519885" lon="11.3615067"><ele>574.25</ele><time>2026-03-22T10:47:05.9Z</time></trkpt><trkpt lat="43.51978" lon="11.3614483"><ele>574.0</ele><time>2026-03-22T10:47:06.9Z</time></trkpt><trkpt lat="43.5196683" lon="11.361405"><ele>573.8</ele><time>2026-03-22T10:47:07.9Z</time></trkpt><trkpt lat="43.5195633" lon="11.3613817"><ele>573.5999999999999</ele><time>2026-03-22T10:47:08.9Z</time></trkpt><trkpt lat="43.51947" lon="11.3613817"><ele>573.4</ele><time>2026-03-22T10:47:09.9Z</time></trkpt><trkpt lat="43.51939" lon="11.3614017"><ele>573.1999999999999</ele><time>2026-03-22T10:47:10.9Z</time></trkpt><trkpt lat="43.5193067" lon="11.3614433"><ele>573.0</ele><time>2026-03-22T10:47:11.9Z</time></trkpt><trkpt lat="43.5192167" lon="11.3614883"><ele>573.0</ele><time>2026-03-22T10:47:12.9Z</time></trkpt><trkpt lat="43.5191333" lon="11.36152"><ele>573.0</ele><time>2026-03-22T10:47:13.9Z</time></trkpt><trkpt lat="43.519055" lon="11.36151"><ele>573.0</ele><time>2026-03-22T10:47:14.9Z</time></trkpt><trkpt lat="43.51897" lon="11.3614867"><ele>573.0</ele><time>2026-03-22T10:47:15.9Z</time></trkpt><trkpt lat="43.5188933" lon="11.361455"><ele>573.0</ele><time>2026-03-22T10:47:16.901Z</time></trkpt><trkpt lat="43.51882" lon="11.3614517"><ele>573.0</ele><time>2026-03-22T10:47:17.9Z</time></trkpt><trkpt lat="43.5187467" lon="11.36155"><ele>573.0</ele><time>2026-03-22T10:47:19.9Z</time></trkpt><trkpt lat="43.51875" lon="11.3617283"><ele>573.0</ele><time>2026-03-22T10:47:21.9Z</time></trkpt><trkpt lat="43.5188067" lon="11.3618517"><ele>573.0</ele><time>2026-03-22T10:47:22.9Z</time></trkpt><trkpt lat="43.5188583" lon="11.3619617"><ele>573.0</ele><time>2026-03-22T10:47:23.9Z</time></trkpt><trkpt lat="43.5189083" lon="11.3620633"><ele>573.0</ele><time>2026-03-22T10:47:24.9Z</time></trkpt><trkpt lat="43.5189017" lon="11.362185"><ele>571.4</ele><time>2026-03-22T10:47:26.9Z</time></trkpt><trkpt lat="43.5188283" lon="11.3622233"><ele>569.8</ele><time>2026-03-22T10:47:28.9Z</time></trkpt><trkpt lat="43.5187083" lon="11.36216"><ele>568.2</ele><time>2026-03-22T10:47:30.9Z</time></trkpt><trkpt lat="43.5186233" lon="11.3620883"><ele>566.6</ele><time>2026-03-22T10:47:31.901Z</time></trkpt><trkpt lat="43.518515" lon="11.3619933"><ele>565.0</ele><time>2026-03-22T10:47:32.9Z</time></trkpt><trkpt lat="43.5184067" lon="11.3618933"><ele>565.0</ele><time>2026-03-22T10:47:33.9Z</time></trkpt><trkpt lat="43.518305" lon="11.361815"><ele>565.0</ele><time>2026-03-22T10:47:34.901Z</time></trkpt><trkpt lat="43.5182133" lon="11.3617517"><ele>565.0</ele><time>2026-03-22T10:47:35.9Z</time></trkpt><trkpt lat="43.5181167" lon="11.36174"><ele>565.0</ele><time>2026-03-22T10:47:36.9Z</time></trkpt><trkpt lat="43.51801" lon="11.3617567"><ele>565.0</ele><time>2026-03-22T10:47:37.9Z</time></trkpt><trkpt lat="43.5179117" lon="11.3618"><ele>565.0</ele><time>2026-03-22T10:47:38.9Z</time></trkpt><trkpt lat="43.5178233" lon="11.361875"><ele>565.0</ele><time>2026-03-22T10:47:39.901Z</time></trkpt><trkpt lat="43.5177483" lon="11.3619517"><ele>565.0</ele><time>2026-03-22T10:47:40.9Z</time></trkpt><trkpt lat="43.51768" lon="11.3620083"><ele>565.0</ele><time>2026-03-22T10:47:41.9Z</time></trkpt><trkpt lat="43.5176117" lon="11.3620317"><ele>565.0</ele><time>2026-03-22T10:47:42.9Z</time></trkpt><trkpt lat="43.5175483" lon="11.362015"><ele>565.0</ele><time>2026-03-22T10:47:43.9Z</time></trkpt><trkpt lat="43.51751" lon="11.3619183"><ele>565.0</ele><time>2026-03-22T10:47:44.9Z</time></trkpt><trkpt lat="43.51747" lon="11.3618067"><ele>565.0</ele><time>2026-03-22T10:47:45.9Z</time></trkpt><trkpt lat="43.5174333" lon="11.3616583"><ele>565.0</ele><time>2026-03-22T10:47:46.9Z</time></trkpt><trkpt lat="43.51739" lon="11.361515"><ele>565.0</ele><time>2026-03-22T10:47:47.9Z</time></trkpt><trkpt lat="43.5173383" lon="11.361365"><ele>565.0</ele><time>2026-03-22T10:47:48.9Z</time></trkpt><trkpt lat="43.5172733" lon="11.3612417"><ele>563.25</ele><time>2026-03-22T10:47:49.9Z</time></trkpt><trkpt lat="43.5172033" lon="11.3611183"><ele>561.5</ele><time>2026-03-22T10:47:50.9Z</time></trkpt><trkpt lat="43.517105" lon="11.360985"><ele>559.75</ele><time>2026-03-22T10:47:51.9Z</time></trkpt><trkpt lat="43.5170117" lon="11.3608617"><ele>558.0</ele><time>2026-03-22T10:47:52.9Z</time></trkpt><trkpt lat="43.5169133" lon="11.360765"><ele>558.0</ele><time>2026-03-22T10:47:53.9Z</time></trkpt><trkpt lat="43.51682" lon="11.3606817"><ele>558.0</ele><time>2026-03-22T10:47:54.9Z</time></trkpt><trkpt lat="43.5167267" lon="11.3606217"><ele>558.0</ele><time>2026-03-22T10:47:55.9Z</time></trkpt><trkpt lat="43.5166217" lon="11.3605633"><ele>558.0</ele><time>2026-03-22T10:47:56.9Z</time></trkpt><trkpt lat="43.5165217" lon="11.3605333"><ele>558.0</ele><time>2026-03-22T10:47:57.9Z</time></trkpt><trkpt lat="43.5164183" lon="11.3605267"><ele>558.0</ele><time>2026-03-22T10:47:58.9Z</time></trkpt><trkpt lat="43.516315" lon="11.3605417"><ele>558.0</ele><time>2026-03-22T10:47:59.9Z</time></trkpt><trkpt lat="43.516205" lon="11.3605783"><ele>558.0</ele><time>2026-03-22T10:48:00.9Z</time></trkpt><trkpt lat="43.5161067" lon="11.3606633"><ele>558.0</ele><time>2026-03-22T10:48:01.9Z</time></trkpt><trkpt lat="43.5160283" lon="11.3607633"><ele>558.0</ele><time>2026-03-22T10:48:02.9Z</time></trkpt><trkpt lat="43.51596" lon="11.3608867"><ele>555.75</ele><time>2026-03-22T10:48:03.9Z</time></trkpt><trkpt lat="43.5158917" lon="11.36102"><ele>553.5</ele><time>2026-03-22T10:48:04.9Z</time></trkpt><trkpt lat="43.5158117" lon="11.361145"><ele>551.25</ele><time>2026-03-22T10:48:05.9Z</time></trkpt><trkpt lat="43.5157317" lon="11.36125"><ele>549.0</ele><time>2026-03-22T10:48:06.9Z</time></trkpt><trkpt lat="43.5156317" lon="11.3613183"><ele>549.0</ele><time>2026-03-22T10:48:07.9Z</time></trkpt><trkpt lat="43.51552" lon="11.3613517"><ele>549.0</ele><time>2026-03-22T10:48:08.9Z</time></trkpt><trkpt lat="43.5154017" lon="11.361355"><ele>549.0</ele><time>2026-03-22T10:48:09.9Z</time></trkpt><trkpt lat="43.5152733" lon="11.361355"><ele>549.0</ele><time>2026-03-22T10:48:10.9Z</time></trkpt><trkpt lat="43.5151467" lon="11.3613683"><ele>551.5</ele><time>2026-03-22T10:48:11.9Z</time></trkpt><trkpt lat="43.51501" lon="11.3614083"><ele>554.0</ele><time>2026-03-22T10:48:12.9Z</time></trkpt><trkpt lat="43.5148783" lon="11.3614583"><ele>556.5</ele><time>2026-03-22T10:48:13.9Z</time></trkpt><trkpt lat="43.51475" lon="11.361545"><ele>559.0</ele><time>2026-03-22T10:48:14.9Z</time></trkpt><trkpt lat="43.5146167" lon="11.3616267"><ele>555.25</ele><time>2026-03-22T10:48:15.9Z</time></trkpt><trkpt lat="43.5144867" lon="11.3617033"><ele>551.5</ele><time>2026-03-22T10:48:16.9Z</time></trkpt><trkpt lat="43.5143583" lon="11.361785"><ele>547.75</ele><time>2026-03-22T10:48:17.9Z</time></trkpt><trkpt lat="43.5142383" lon="11.361865"><ele>544.0</ele><time>2026-03-22T10:48:18.9Z</time></trkpt><trkpt lat="43.5141217" lon="11.3619483"><ele>544.0</ele><time>2026-03-22T10:48:19.9Z</time></trkpt><trkpt lat="43.5140283" lon="11.3620533"><ele>544.0</ele><time>2026-03-22T10:48:20.9Z</time></trkpt><trkpt lat="43.5139117" lon="11.36217"><ele>544.0</ele><time>2026-03-22T10:48:21.9Z</time></trkpt><trkpt lat="43.5138033" lon="11.3622633"><ele>544.0</ele><time>2026-03-22T10:48:22.9Z</time></trkpt><trkpt lat="43.5137133" lon="11.3623433"><ele>546.0</ele><time>2026-03-22T10:48:23.9Z</time></trkpt><trkpt lat="43.5136383" lon="11.3624017"><ele>548.0</ele><time>2026-03-22T10:48:24.9Z</time></trkpt><trkpt lat="43.513555" lon="11.362465"><ele>550.0</ele><time>2026-03-22T10:48:25.9Z</time></trkpt><trkpt lat="43.51347" lon="11.3625383"><ele>552.0</ele><time>2026-03-22T10:48:26.9Z</time></trkpt><trkpt lat="43.51341" lon="11.3626167"><ele>554.0</ele><time>2026-03-22T10:48:27.9Z</time></trkpt><trkpt lat="43.5133483" lon="11.3626983"><ele>554.0</ele><time>2026-03-22T10:48:28.9Z</time></trkpt><trkpt lat="43.51329" lon="11.36278"><ele>554.0</ele><time>2026-03-22T10:48:29.9Z</time></trkpt><trkpt lat="43.5132367" lon="11.362865"><ele>554.0</ele><time>2026-03-22T10:48:30.9Z</time></trkpt><trkpt lat="43.5131933" lon="11.3629483"><ele>554.0</ele><time>2026-03-22T10:48:31.9Z</time></trkpt><trkpt lat="43.5131667" lon="11.3630417"><ele>554.0</ele><time>2026-03-22T10:48:32.9Z</time></trkpt><trkpt lat="43.5131567" lon="11.363145"><ele>554.0</ele><time>2026-03-22T10:48:33.9Z</time></trkpt><trkpt lat="43.5131633" lon="11.3632583"><ele>554.5</ele><time>2026-03-22T10:48:34.9Z</time></trkpt><trkpt lat="43.5131783" lon="11.3633667"><ele>555.0</ele><time>2026-03-22T10:48:35.9Z</time></trkpt><trkpt lat="43.5131867" lon="11.3634783"><ele>555.5</ele><time>2026-03-22T10:48:36.9Z</time></trkpt><trkpt lat="43.5131733" lon="11.3635783"><ele>556.0</ele><time>2026-03-22T10:48:37.9Z</time></trkpt><trkpt lat="43.513135" lon="11.3636767"><ele>556.5</ele><time>2026-03-22T10:48:38.9Z</time></trkpt><trkpt lat="43.5130617" lon="11.3637567"><ele>557.0</ele><time>2026-03-22T10:48:39.9Z</time></trkpt><trkpt lat="43.51294" lon="11.3638067"><ele>554.4</ele><time>2026-03-22T10:48:40.9Z</time></trkpt><trkpt lat="43.512825" lon="11.3638567"><ele>551.8000000000001</ele><time>2026-03-22T10:48:41.9Z</time></trkpt><trkpt lat="43.5127233" lon="11.3639233"><ele>549.2</ele><time>2026-03-22T10:48:42.9Z</time></trkpt><trkpt lat="43.51264" lon="11.3639883"><ele>546.6</ele><time>2026-03-22T10:48:43.9Z</time></trkpt><trkpt lat="43.5125567" lon="11.3640667"><ele>544.0</ele><time>2026-03-22T10:48:44.9Z</time></trkpt><trkpt lat="43.5124733" lon="11.36416"><ele>544.0</ele><time>2026-03-22T10:48:45.9Z</time></trkpt><trkpt lat="43.5124033" lon="11.364245"><ele>544.0</ele><time>2026-03-22T10:48:46.9Z</time></trkpt><trkpt lat="43.5123383" lon="11.3643217"><ele>544.0</ele><time>2026-03-22T10:48:47.9Z</time></trkpt><trkpt lat="43.5122933" lon="11.3643833"><ele>544.0</ele><time>2026-03-22T10:48:48.9Z</time></trkpt><trkpt lat="43.512215" lon="11.3644833"><ele>544.0</ele><time>2026-03-22T10:48:50.9Z</time></trkpt><trkpt lat="43.5121267" lon="11.3646183"><ele>546.0</ele><time>2026-03-22T10:48:52.9Z</time></trkpt><trkpt lat="43.5120683" lon="11.3647"><ele>548.0</ele><time>2026-03-22T10:48:53.9Z</time></trkpt><trkpt lat="43.5120083" lon="11.3647983"><ele>550.0</ele><time>2026-03-22T10:48:54.9Z</time></trkpt><trkpt lat="43.5119367" lon="11.3648917"><ele>552.0</ele><time>2026-03-22T10:48:55.9Z</time></trkpt><trkpt lat="43.5118633" lon="11.36498"><ele>554.0</ele><time>2026-03-22T10:48:56.9Z</time></trkpt><trkpt lat="43.5117817" lon="11.365065"><ele>554.0</ele><time>2026-03-22T10:48:57.9Z</time></trkpt><trkpt lat="43.5117033" lon="11.36516"><ele>554.0</ele><time>2026-03-22T10:48:58.9Z</time></trkpt><trkpt lat="43.5116183" lon="11.36525"><ele>554.0</ele><time>2026-03-22T10:48:59.901Z</time></trkpt><trkpt lat="43.5115333" lon="11.3653417"><ele>554.0</ele><time>2026-03-22T10:49:00.9Z</time></trkpt><trkpt lat="43.5114533" lon="11.3654317"><ele>554.0</ele><time>2026-03-22T10:49:01.9Z</time></trkpt><trkpt lat="43.511385" lon="11.3655167"><ele>551.4</ele><time>2026-03-22T10:49:02.9Z</time></trkpt><trkpt lat="43.5113183" lon="11.3655767"><ele>548.8</ele><time>2026-03-22T10:49:03.901Z</time></trkpt><trkpt lat="43.5112417" lon="11.3656333"><ele>546.2</ele><time>2026-03-22T10:49:04.9Z</time></trkpt><trkpt lat="43.5111517" lon="11.3656517"><ele>543.6</ele><time>2026-03-22T10:49:05.9Z</time></trkpt><trkpt lat="43.5110567" lon="11.3656633"><ele>541.0</ele><time>2026-03-22T10:49:06.9Z</time></trkpt><trkpt lat="43.51095" lon="11.36569"><ele>541.0</ele><time>2026-03-22T10:49:07.9Z</time></trkpt><trkpt lat="43.5108433" lon="11.3657417"><ele>541.0</ele><time>2026-03-22T10:49:08.9Z</time></trkpt><trkpt lat="43.5107483" lon="11.365805"><ele>541.0</ele><time>2026-03-22T10:49:09.9Z</time></trkpt><trkpt lat="43.510645" lon="11.365875"><ele>541.0</ele><time>2026-03-22T10:49:10.9Z</time></trkpt><trkpt lat="43.5105383" lon="11.3659517"><ele>541.0</ele><time>2026-03-22T10:49:11.9Z</time></trkpt><trkpt lat="43.5104333" lon="11.3660317"><ele>541.0</ele><time>2026-03-22T10:49:12.9Z</time></trkpt><trkpt lat="43.510325" lon="11.366105"><ele>541.0</ele><time>2026-03-22T10:49:13.9Z</time></trkpt><trkpt lat="43.51023" lon="11.3661817"><ele>541.0</ele><time>2026-03-22T10:49:14.9Z</time></trkpt><trkpt lat="43.51014" lon="11.366245"><ele>540.2</ele><time>2026-03-22T10:49:15.9Z</time></trkpt><trkpt lat="43.5100483" lon="11.3663067"><ele>539.4000000000001</ele><time>2026-03-22T10:49:16.9Z</time></trkpt><trkpt lat="43.509975" lon="11.3663667"><ele>538.6</ele><time>2026-03-22T10:49:17.9Z</time></trkpt><trkpt lat="43.5099183" lon="11.366425"><ele>537.8000000000001</ele><time>2026-03-22T10:49:18.9Z</time></trkpt><trkpt lat="43.5098533" lon="11.3665783"><ele>537.0</ele><time>2026-03-22T10:49:20.9Z</time></trkpt><trkpt lat="43.5098967" lon="11.3667333"><ele>536.1428571428571</ele><time>2026-03-22T10:49:22.9Z</time></trkpt><trkpt lat="43.5099633" lon="11.36679"><ele>535.2857142857142</ele><time>2026-03-22T10:49:23.9Z</time></trkpt><trkpt lat="43.5100367" lon="11.3668283"><ele>534.4285714285714</ele><time>2026-03-22T10:49:24.9Z</time></trkpt><trkpt lat="43.5101033" lon="11.3668833"><ele>533.5714285714286</ele><time>2026-03-22T10:49:25.9Z</time></trkpt><trkpt lat="43.510145" lon="11.3669533"><ele>532.7142857142858</ele><time>2026-03-22T10:49:26.9Z</time></trkpt><trkpt lat="43.5101383" lon="11.3670417"><ele>531.8571428571429</ele><time>2026-03-22T10:49:27.9Z</time></trkpt><trkpt lat="43.5101067" lon="11.36712"><ele>531.0</ele><time>2026-03-22T10:49:28.9Z</time></trkpt><trkpt lat="43.510055" lon="11.3671883"><ele>527.4</ele><time>2026-03-22T10:49:29.9Z</time></trkpt><trkpt lat="43.5099783" lon="11.3672433"><ele>523.8</ele><time>2026-03-22T10:49:30.9Z</time></trkpt><trkpt lat="43.5098717" lon="11.367275"><ele>520.1999999999999</ele><time>2026-03-22T10:49:31.9Z</time></trkpt><trkpt lat="43.509775" lon="11.3673417"><ele>516.6</ele><time>2026-03-22T10:49:32.9Z</time></trkpt><trkpt lat="43.5096867" lon="11.3674317"><ele>513.0</ele><time>2026-03-22T10:49:33.9Z</time></trkpt><trkpt lat="43.50959" lon="11.367505"><ele>513.4</ele><time>2026-03-22T10:49:34.9Z</time></trkpt><trkpt lat="43.5095" lon="11.367555"><ele>513.8</ele><time>2026-03-22T10:49:35.9Z</time></trkpt><trkpt lat="43.5094167" lon="11.3675833"><ele>514.2</ele><time>2026-03-22T10:49:36.9Z</time></trkpt><trkpt lat="43.5093283" lon="11.3675717"><ele>514.6</ele><time>2026-03-22T10:49:37.9Z</time></trkpt><trkpt lat="43.50923" lon="11.367535"><ele>515.0</ele><time>2026-03-22T10:49:38.9Z</time></trkpt><trkpt lat="43.5091133" lon="11.367475"><ele>515.0</ele><time>2026-03-22T10:49:39.9Z</time></trkpt><trkpt lat="43.5089967" lon="11.3674183"><ele>515.0</ele><time>2026-03-22T10:49:40.9Z</time></trkpt><trkpt lat="43.50888" lon="11.3673867"><ele>515.0</ele><time>2026-03-22T10:49:41.9Z</time></trkpt><trkpt lat="43.5087633" lon="11.3673583"><ele>515.0</ele><time>2026-03-22T10:49:42.9Z</time></trkpt><trkpt lat="43.5086517" lon="11.3673333"><ele>513.6</ele><time>2026-03-22T10:49:43.9Z</time></trkpt><trkpt lat="43.5085533" lon="11.36729"><ele>512.2</ele><time>2026-03-22T10:49:44.9Z</time></trkpt><trkpt lat="43.50847" lon="11.3672333"><ele>510.79999999999995</ele><time>2026-03-22T10:49:45.9Z</time></trkpt><trkpt lat="43.5084" lon="11.3671733"><ele>509.4</ele><time>2026-03-22T10:49:46.9Z</time></trkpt><trkpt lat="43.508335" lon="11.3671317"><ele>508.0</ele><time>2026-03-22T10:49:47.9Z</time></trkpt><trkpt lat="43.508215" lon="11.3671317"><ele>507.0</ele><time>2026-03-22T10:49:49.9Z</time></trkpt><trkpt lat="43.5081783" lon="11.3673017"><ele>505.99999999999994</ele><time>2026-03-22T10:49:51.901Z</time></trkpt><trkpt lat="43.5081883" lon="11.367415"><ele>504.99999999999994</ele><time>2026-03-22T10:49:52.9Z</time></trkpt><trkpt lat="43.5082233" lon="11.3675267"><ele>504.0</ele><time>2026-03-22T10:49:53.9Z</time></trkpt><trkpt lat="43.508265" lon="11.36763"><ele>503.0</ele><time>2026-03-22T10:49:54.9Z</time></trkpt><trkpt lat="43.50828" lon="11.3677183"><ele>503.0</ele><time>2026-03-22T10:49:55.9Z</time></trkpt><trkpt lat="43.5082217" lon="11.3678283"><ele>503.0</ele><time>2026-03-22T10:49:57.9Z</time></trkpt><trkpt lat="43.5080967" lon="11.3678117"><ele>503.0</ele><time>2026-03-22T10:49:59.9Z</time></trkpt><trkpt lat="43.507985" lon="11.3678567"><ele>503.0</ele><time>2026-03-22T10:50:01.9Z</time></trkpt><trkpt lat="43.50794" lon="11.3679983"><ele>500.2</ele><time>2026-03-22T10:50:03.9Z</time></trkpt><trkpt lat="43.50798" lon="11.3680917"><ele>497.4</ele><time>2026-03-22T10:50:04.9Z</time></trkpt><trkpt lat="43.5080533" lon="11.3681883"><ele>494.59999999999997</ele><time>2026-03-22T10:50:05.901Z</time></trkpt><trkpt lat="43.5081317" lon="11.3682767"><ele>491.79999999999995</ele><time>2026-03-22T10:50:06.9Z</time></trkpt><trkpt lat="43.5082133" lon="11.3683517"><ele>489.0</ele><time>2026-03-22T10:50:07.9Z</time></trkpt><trkpt lat="43.5083" lon="11.3683883"><ele>489.0</ele><time>2026-03-22T10:50:08.9Z</time></trkpt><trkpt lat="43.50838" lon="11.3684183"><ele>489.0</ele><time>2026-03-22T10:50:09.9Z</time></trkpt><trkpt lat="43.5084533" lon="11.3684917"><ele>489.0</ele><time>2026-03-22T10:50:11.9Z</time></trkpt><trkpt lat="43.50843" lon="11.3686083"><ele>489.0</ele><time>2026-03-22T10:50:13.9Z</time></trkpt><trkpt lat="43.5083683" lon="11.3686583"><ele>489.0</ele><time>2026-03-22T10:50:14.9Z</time></trkpt><trkpt lat="43.50829" lon="11.3686967"><ele>489.0</ele><time>2026-03-22T10:50:15.9Z</time></trkpt><trkpt lat="43.508205" lon="11.3687233"><ele>489.0</ele><time>2026-03-22T10:50:16.9Z</time></trkpt><trkpt lat="43.5081167" lon="11.368735"><ele>489.0</ele><time>2026-03-22T10:50:17.9Z</time></trkpt><trkpt lat="43.508015" lon="11.3687117"><ele>489.0</ele><time>2026-03-22T10:50:18.9Z</time></trkpt><trkpt lat="43.507905" lon="11.3686867"><ele>489.0</ele><time>2026-03-22T10:50:19.901Z</time></trkpt><trkpt lat="43.5077917" lon="11.3686433"><ele>489.0</ele><time>2026-03-22T10:50:20.9Z</time></trkpt><trkpt lat="43.5076867" lon="11.3686"><ele>486.6</ele><time>2026-03-22T10:50:21.9Z</time></trkpt><trkpt lat="43.5075983" lon="11.368535"><ele>484.2</ele><time>2026-03-22T10:50:22.9Z</time></trkpt><trkpt lat="43.5075017" lon="11.3684567"><ele>481.80000000000007</ele><time>2026-03-22T10:50:23.9Z</time></trkpt><trkpt lat="43.5074067" lon="11.36837"><ele>479.40000000000003</ele><time>2026-03-22T10:50:24.9Z</time></trkpt><trkpt lat="43.5073117" lon="11.3683167"><ele>477.0</ele><time>2026-03-22T10:50:25.9Z</time></trkpt><trkpt lat="43.50721" lon="11.3682933"><ele>477.0</ele><time>2026-03-22T10:50:26.9Z</time></trkpt><trkpt lat="43.5071033" lon="11.3683033"><ele>477.00000000000006</ele><time>2026-03-22T10:50:27.9Z</time></trkpt><trkpt lat="43.506995" lon="11.36833"><ele>477.00000000000006</ele><time>2026-03-22T10:50:28.9Z</time></trkpt><trkpt lat="43.5068917" lon="11.36836"><ele>477.0</ele><time>2026-03-22T10:50:29.9Z</time></trkpt><trkpt lat="43.5067917" lon="11.3683783"><ele>477.0</ele><time>2026-03-22T10:50:30.9Z</time></trkpt><trkpt lat="43.5066983" lon="11.368425"><ele>474.20000000000005</ele><time>2026-03-22T10:50:31.9Z</time></trkpt><trkpt lat="43.5066133" lon="11.3684817"><ele>471.40000000000003</ele><time>2026-03-22T10:50:32.9Z</time></trkpt><trkpt lat="43.50653" lon="11.36856"><ele>468.59999999999997</ele><time>2026-03-22T10:50:33.9Z</time></trkpt><trkpt lat="43.506455" lon="11.36866"><ele>465.79999999999995</ele><time>2026-03-22T10:50:34.9Z</time></trkpt><trkpt lat="43.506385" lon="11.3687517"><ele>463.0</ele><time>2026-03-22T10:50:35.9Z</time></trkpt><trkpt lat="43.5063183" lon="11.3688583"><ele>460.4</ele><time>2026-03-22T10:50:36.9Z</time></trkpt><trkpt lat="43.5062483" lon="11.3689483"><ele>457.79999999999995</ele><time>2026-03-22T10:50:37.9Z</time></trkpt><trkpt lat="43.5061683" lon="11.36905"><ele>455.2</ele><time>2026-03-22T10:50:38.901Z</time></trkpt><trkpt lat="43.5060817" lon="11.369135"><ele>452.6</ele><time>2026-03-22T10:50:39.9Z</time></trkpt><trkpt lat="43.505985" lon="11.3692233"><ele>450.0</ele><time>2026-03-22T10:50:40.9Z</time></trkpt><trkpt lat="43.505895" lon="11.36931"><ele>449.8</ele><time>2026-03-22T10:50:41.9Z</time></trkpt><trkpt lat="43.5057933" lon="11.36939"><ele>449.6</ele><time>2026-03-22T10:50:42.9Z</time></trkpt><trkpt lat="43.5056967" lon="11.369455"><ele>449.4</ele><time>2026-03-22T10:50:43.901Z</time></trkpt><trkpt lat="43.505605" lon="11.3695133"><ele>449.2</ele><time>2026-03-22T10:50:44.9Z</time></trkpt><trkpt lat="43.5055067" lon="11.369545"><ele>449.0</ele><time>2026-03-22T10:50:45.9Z</time></trkpt><trkpt lat="43.505415" lon="11.3695433"><ele>448.6</ele><time>2026-03-22T10:50:46.9Z</time></trkpt><trkpt lat="43.5053267" lon="11.3695067"><ele>448.2</ele><time>2026-03-22T10:50:47.9Z</time></trkpt><trkpt lat="43.5052333" lon="11.3694483"><ele>447.80000000000007</ele><time>2026-03-22T10:50:48.9Z</time></trkpt><trkpt lat="43.5051383" lon="11.3694017"><ele>447.40000000000003</ele><time>2026-03-22T10:50:49.9Z</time></trkpt><trkpt lat="43.505045" lon="11.3693767"><ele>447.0</ele><time>2026-03-22T10:50:50.9Z</time></trkpt><trkpt lat="43.5049533" lon="11.369375"><ele>447.0</ele><time>2026-03-22T10:50:51.9Z</time></trkpt><trkpt lat="43.504855" lon="11.36939"><ele>447.00000000000006</ele><time>2026-03-22T10:50:52.9Z</time></trkpt><trkpt lat="43.504755" lon="11.3694267"><ele>447.00000000000006</ele><time>2026-03-22T10:50:53.9Z</time></trkpt><trkpt lat="43.504655" lon="11.3694767"><ele>447.0</ele><time>2026-03-22T10:50:54.9Z</time></trkpt><trkpt lat="43.5045467" lon="11.3695433"><ele>447.0</ele><time>2026-03-22T10:50:55.9Z</time></trkpt><trkpt lat="43.504435" lon="11.3696133"><ele>447.25</ele><time>2026-03-22T10:50:56.9Z</time></trkpt><trkpt lat="43.5043267" lon="11.3696867"><ele>447.5</ele><time>2026-03-22T10:50:57.9Z</time></trkpt><trkpt lat="43.5042217" lon="11.3697733"><ele>447.75</ele><time>2026-03-22T10:50:58.9Z</time></trkpt><trkpt lat="43.5041133" lon="11.36985"><ele>448.0</ele><time>2026-03-22T10:50:59.9Z</time></trkpt><trkpt lat="43.5039967" lon="11.3699083"><ele>444.0</ele><time>2026-03-22T10:51:00.9Z</time></trkpt><trkpt lat="43.5038917" lon="11.36995"><ele>440.0</ele><time>2026-03-22T10:51:01.9Z</time></trkpt><trkpt lat="43.5037683" lon="11.36996"><ele>436.0</ele><time>2026-03-22T10:51:02.9Z</time></trkpt><trkpt lat="43.503645" lon="11.369955"><ele>432.0</ele><time>2026-03-22T10:51:03.9Z</time></trkpt><trkpt lat="43.5035183" lon="11.36996"><ele>430.5</ele><time>2026-03-22T10:51:04.9Z</time></trkpt><trkpt lat="43.503395" lon="11.369995"><ele>429.0</ele><time>2026-03-22T10:51:05.9Z</time></trkpt><trkpt lat="43.5032717" lon="11.370055"><ele>427.5</ele><time>2026-03-22T10:51:06.9Z</time></trkpt><trkpt lat="43.5031383" lon="11.3701367"><ele>426.0</ele><time>2026-03-22T10:51:07.9Z</time></trkpt><trkpt lat="43.5030133" lon="11.3702083"><ele>424.0</ele><time>2026-03-22T10:51:08.901Z</time></trkpt><trkpt lat="43.5028817" lon="11.3702883"><ele>422.0</ele><time>2026-03-22T10:51:09.9Z</time></trkpt><trkpt lat="43.50277" lon="11.3703667"><ele>420.0</ele><time>2026-03-22T10:51:10.9Z</time></trkpt><trkpt lat="43.5026617" lon="11.3704333"><ele>418.0</ele><time>2026-03-22T10:51:11.9Z</time></trkpt><trkpt lat="43.5025567" lon="11.3704967"><ele>416.2</ele><time>2026-03-22T10:51:12.9Z</time></trkpt><trkpt lat="43.5024533" lon="11.3705517"><ele>414.4</ele><time>2026-03-22T10:51:13.9Z</time></trkpt><trkpt lat="43.502345" lon="11.3705883"><ele>412.59999999999997</ele><time>2026-03-22T10:51:14.9Z</time></trkpt><trkpt lat="43.5022517" lon="11.3706267"><ele>410.79999999999995</ele><time>2026-03-22T10:51:15.9Z</time></trkpt><trkpt lat="43.5021617" lon="11.3706583"><ele>409.0</ele><time>2026-03-22T10:51:16.9Z</time></trkpt><trkpt lat="43.50208" lon="11.3706817"><ele>407.5</ele><time>2026-03-22T10:51:17.9Z</time></trkpt><trkpt lat="43.5019733" lon="11.3707233"><ele>406.0</ele><time>2026-03-22T10:51:18.901Z</time></trkpt><trkpt lat="43.5018633" lon="11.3707683"><ele>404.5</ele><time>2026-03-22T10:51:19.901Z</time></trkpt><trkpt lat="43.5017517" lon="11.3708133"><ele>403.0</ele><time>2026-03-22T10:51:20.9Z</time></trkpt><trkpt lat="43.5016433" lon="11.3708533"><ele>403.0</ele><time>2026-03-22T10:51:21.9Z</time></trkpt><trkpt lat="43.5015433" lon="11.3709083"><ele>403.0</ele><time>2026-03-22T10:51:22.9Z</time></trkpt><trkpt lat="43.501455" lon="11.370995"><ele>403.0</ele><time>2026-03-22T10:51:23.9Z</time></trkpt><trkpt lat="43.5013633" lon="11.3711"><ele>403.0</ele><time>2026-03-22T10:51:24.9Z</time></trkpt><trkpt lat="43.5012683" lon="11.37121"><ele>404.2</ele><time>2026-03-22T10:51:25.9Z</time></trkpt><trkpt lat="43.5011867" lon="11.3713167"><ele>405.4</ele><time>2026-03-22T10:51:26.901Z</time></trkpt><trkpt lat="43.5011067" lon="11.371405"><ele>406.59999999999997</ele><time>2026-03-22T10:51:27.9Z</time></trkpt><trkpt lat="43.501025" lon="11.3714717"><ele>407.79999999999995</ele><time>2026-03-22T10:51:28.9Z</time></trkpt><trkpt lat="43.5009367" lon="11.3715067"><ele>409.0</ele><time>2026-03-22T10:51:29.9Z</time></trkpt><trkpt lat="43.5008383" lon="11.3715017"><ele>409.0</ele><time>2026-03-22T10:51:30.9Z</time></trkpt><trkpt lat="43.500735" lon="11.37146"><ele>409.0</ele><time>2026-03-22T10:51:31.9Z</time></trkpt><trkpt lat="43.5006083" lon="11.3713917"><ele>409.0</ele><time>2026-03-22T10:51:32.9Z</time></trkpt><trkpt lat="43.50048" lon="11.3713317"><ele>409.0</ele><time>2026-03-22T10:51:33.9Z</time></trkpt><trkpt lat="43.5003383" lon="11.3712967"><ele>407.75</ele><time>2026-03-22T10:51:34.9Z</time></trkpt><trkpt lat="43.5002083" lon="11.371275"><ele>406.5</ele><time>2026-03-22T10:51:35.9Z</time></trkpt><trkpt lat="43.5000783" lon="11.371275"><ele>405.25</ele><time>2026-03-22T10:51:36.9Z</time></trkpt><trkpt lat="43.4999467" lon="11.37131"><ele>404.0</ele><time>2026-03-22T10:51:37.9Z</time></trkpt><trkpt lat="43.4998217" lon="11.371355"><ele>399.75</ele><time>2026-03-22T10:51:38.9Z</time></trkpt><trkpt lat="43.4997117" lon="11.37141"><ele>395.5</ele><time>2026-03-22T10:51:39.9Z</time></trkpt><trkpt lat="43.4996" lon="11.3714583"><ele>391.25</ele><time>2026-03-22T10:51:40.9Z</time></trkpt><trkpt lat="43.4994733" lon="11.3715117"><ele>387.0</ele><time>2026-03-22T10:51:41.9Z</time></trkpt><trkpt lat="43.4993483" lon="11.371555"><ele>385.25</ele><time>2026-03-22T10:51:42.9Z</time></trkpt><trkpt lat="43.4992183" lon="11.3715933"><ele>383.5</ele><time>2026-03-22T10:51:43.9Z</time></trkpt><trkpt lat="43.4990783" lon="11.3716083"><ele>381.75</ele><time>2026-03-22T10:51:44.9Z</time></trkpt><trkpt lat="43.498945" lon="11.37162"><ele>380.0</ele><time>2026-03-22T10:51:45.9Z</time></trkpt><trkpt lat="43.4988167" lon="11.3716367"><ele>379.0</ele><time>2026-03-22T10:51:46.9Z</time></trkpt><trkpt lat="43.4986883" lon="11.37166"><ele>378.0</ele><time>2026-03-22T10:51:47.9Z</time></trkpt><trkpt lat="43.4985583" lon="11.371685"><ele>377.0</ele><time>2026-03-22T10:51:48.9Z</time></trkpt><trkpt lat="43.498435" lon="11.3717133"><ele>376.0</ele><time>2026-03-22T10:51:49.9Z</time></trkpt><trkpt lat="43.4983183" lon="11.37174"><ele>376.0</ele><time>2026-03-22T10:51:50.9Z</time></trkpt><trkpt lat="43.4981967" lon="11.37177"><ele>376.0</ele><time>2026-03-22T10:51:51.9Z</time></trkpt><trkpt lat="43.4980817" lon="11.37179"><ele>376.0</ele><time>2026-03-22T10:51:52.9Z</time></trkpt><trkpt lat="43.4979717" lon="11.3718083"><ele>376.0</ele><time>2026-03-22T10:51:53.9Z</time></trkpt><trkpt lat="43.4978683" lon="11.371825"><ele>374.66666666666663</ele><time>2026-03-22T10:51:54.9Z</time></trkpt><trkpt lat="43.49778" lon="11.37184"><ele>373.3333333333333</ele><time>2026-03-22T10:51:55.9Z</time></trkpt><trkpt lat="43.49771" lon="11.3718383"><ele>372.0</ele><time>2026-03-22T10:51:56.9Z</time></trkpt><trkpt lat="43.4976117" lon="11.37183"><ele>370.6666666666667</ele><time>2026-03-22T10:51:58.9Z</time></trkpt><trkpt lat="43.4975883" lon="11.3719267"><ele>369.33333333333337</ele><time>2026-03-22T10:52:15.9Z</time></trkpt><trkpt lat="43.4975433" lon="11.3720567"><ele>368.0</ele><time>2026-03-22T10:52:23.9Z</time></trkpt><trkpt lat="43.4975217" lon="11.37215"><ele>366.59999999999997</ele><time>2026-03-22T10:52:25.9Z</time></trkpt><trkpt lat="43.4974783" lon="11.37228"><ele>365.2</ele><time>2026-03-22T10:52:27.9Z</time></trkpt><trkpt lat="43.49744" lon="11.3723967"><ele>363.8</ele><time>2026-03-22T10:52:29.901Z</time></trkpt><trkpt lat="43.4974167" lon="11.3725233"><ele>362.4</ele><time>2026-03-22T10:52:31.9Z</time></trkpt><trkpt lat="43.4974" lon="11.3726517"><ele>361.0</ele><time>2026-03-22T10:52:33.9Z</time></trkpt><trkpt lat="43.4973717" lon="11.3727517"><ele>361.0</ele><time>2026-03-22T10:52:38.9Z</time></trkpt><trkpt lat="43.4973783" lon="11.3726433"><ele>361.0</ele><time>2026-03-22T10:53:18.9Z</time></trkpt><trkpt lat="43.4974033" lon="11.3725183"><ele>361.0</ele><time>2026-03-22T10:53:20.9Z</time></trkpt><trkpt lat="43.4974333" lon="11.37238"><ele>361.0</ele><time>2026-03-22T10:53:22.901Z</time></trkpt><trkpt lat="43.49748" lon="11.37224"><ele>361.0</ele><time>2026-03-22T10:53:24.9Z</time></trkpt><trkpt lat="43.4975117" lon="11.3721133"><ele>362.16666666666663</ele><time>2026-03-22T10:53:26.9Z</time></trkpt><trkpt lat="43.4975483" lon="11.3720267"><ele>363.3333333333333</ele><time>2026-03-22T10:53:28.9Z</time></trkpt><trkpt lat="43.4975883" lon="11.3719483"><ele>364.5</ele><time>2026-03-22T10:53:30.9Z</time></trkpt><trkpt lat="43.49757" lon="11.3718567"><ele>365.6666666666667</ele><time>2026-03-22T10:53:33.9Z</time></trkpt><trkpt lat="43.4975" lon="11.3718117"><ele>366.83333333333337</ele><time>2026-03-22T10:53:35.901Z</time></trkpt><trkpt lat="43.4974333" lon="11.37177"><ele>368.0</ele><time>2026-03-22T10:53:36.9Z</time></trkpt><trkpt lat="43.4973417" lon="11.3717133"><ele>368.0</ele><time>2026-03-22T10:53:37.9Z</time></trkpt><trkpt lat="43.497245" lon="11.37166"><ele>368.0</ele><time>2026-03-22T10:53:38.9Z</time></trkpt><trkpt lat="43.4971517" lon="11.37161"><ele>368.0</ele><time>2026-03-22T10:53:39.9Z</time></trkpt><trkpt lat="43.4970433" lon="11.3715533"><ele>368.0</ele><time>2026-03-22T10:53:40.9Z</time></trkpt><trkpt lat="43.4969283" lon="11.3715033"><ele>368.0</ele><time>2026-03-22T10:53:41.901Z</time></trkpt><trkpt lat="43.4968283" lon="11.3714317"><ele>367.4</ele><time>2026-03-22T10:53:42.9Z</time></trkpt><trkpt lat="43.4967317" lon="11.3713633"><ele>366.79999999999995</ele><time>2026-03-22T10:53:43.9Z</time></trkpt><trkpt lat="43.49663" lon="11.3712917"><ele>366.2</ele><time>2026-03-22T10:53:44.9Z</time></trkpt><trkpt lat="43.4965183" lon="11.3712367"><ele>365.6</ele><time>2026-03-22T10:53:45.9Z</time></trkpt><trkpt lat="43.49642" lon="11.3711783"><ele>365.0</ele><time>2026-03-22T10:53:46.9Z</time></trkpt><trkpt lat="43.4963217" lon="11.3711367"><ele>362.8</ele><time>2026-03-22T10:53:47.9Z</time></trkpt><trkpt lat="43.4962283" lon="11.3710883"><ele>360.6</ele><time>2026-03-22T10:53:48.9Z</time></trkpt><trkpt lat="43.4961383" lon="11.3710517"><ele>358.4</ele><time>2026-03-22T10:53:49.9Z</time></trkpt><trkpt lat="43.49606" lon="11.371015"><ele>356.2</ele><time>2026-03-22T10:53:50.9Z</time></trkpt><trkpt lat="43.4959067" lon="11.3709133"><ele>354.0</ele><time>2026-03-22T10:53:53.9Z</time></trkpt><trkpt lat="43.49584" lon="11.3709417"><ele>354.0</ele><time>2026-03-22T10:53:56.9Z</time></trkpt><trkpt lat="43.4958" lon="11.3710817"><ele>354.0</ele><time>2026-03-22T10:53:58.9Z</time></trkpt><trkpt lat="43.4957733" lon="11.3711967"><ele>354.0</ele><time>2026-03-22T10:53:59.9Z</time></trkpt><trkpt lat="43.495745" lon="11.3713233"><ele>354.0</ele><time>2026-03-22T10:54:00.9Z</time></trkpt><trkpt lat="43.49571" lon="11.37146"><ele>354.0</ele><time>2026-03-22T10:54:01.9Z</time></trkpt><trkpt lat="43.4956783" lon="11.371595"><ele>354.0</ele><time>2026-03-22T10:54:02.9Z</time></trkpt><trkpt lat="43.49563" lon="11.371735"><ele>354.0</ele><time>2026-03-22T10:54:03.9Z</time></trkpt><trkpt lat="43.4955933" lon="11.3718817"><ele>354.0</ele><time>2026-03-22T10:54:04.9Z</time></trkpt><trkpt lat="43.4955533" lon="11.3720133"><ele>354.0</ele><time>2026-03-22T10:54:05.9Z</time></trkpt><trkpt lat="43.4955183" lon="11.3721417"><ele>354.0</ele><time>2026-03-22T10:54:06.9Z</time></trkpt><trkpt lat="43.49549" lon="11.3722733"><ele>354.79999999999995</ele><time>2026-03-22T10:54:07.9Z</time></trkpt><trkpt lat="43.4954767" lon="11.37241"><ele>355.59999999999997</ele><time>2026-03-22T10:54:08.9Z</time></trkpt><trkpt lat="43.4954867" lon="11.37255"><ele>356.4</ele><time>2026-03-22T10:54:09.9Z</time></trkpt><trkpt lat="43.495505" lon="11.3726817"><ele>357.2</ele><time>2026-03-22T10:54:10.9Z</time></trkpt><trkpt lat="43.495535" lon="11.372805"><ele>358.0</ele><time>2026-03-22T10:54:11.9Z</time></trkpt><trkpt lat="43.4955733" lon="11.372915"><ele>358.0</ele><time>2026-03-22T10:54:12.901Z</time></trkpt><trkpt lat="43.4956167" lon="11.3730283"><ele>358.0</ele><time>2026-03-22T10:54:14.9Z</time></trkpt><trkpt lat="43.4955917" lon="11.3728883"><ele>358.0</ele><time>2026-03-22T10:54:25.9Z</time></trkpt><trkpt lat="43.49556" lon="11.37279"><ele>358.0</ele><time>2026-03-22T10:54:26.9Z</time></trkpt><trkpt lat="43.4955283" lon="11.3726733"><ele>358.0</ele><time>2026-03-22T10:54:27.9Z</time></trkpt><trkpt lat="43.4955017" lon="11.3725683"><ele>358.0</ele><time>2026-03-22T10:54:28.9Z</time></trkpt><trkpt lat="43.4954917" lon="11.372445"><ele>358.0</ele><time>2026-03-22T10:54:29.9Z</time></trkpt><trkpt lat="43.495495" lon="11.372315"><ele>358.0</ele><time>2026-03-22T10:54:30.9Z</time></trkpt><trkpt lat="43.495515" lon="11.3721917"><ele>358.0</ele><time>2026-03-22T10:54:31.901Z</time></trkpt><trkpt lat="43.4955383" lon="11.3720633"><ele>358.0</ele><time>2026-03-22T10:54:32.9Z</time></trkpt><trkpt lat="43.495565" lon="11.3719383"><ele>358.0</ele><time>2026-03-22T10:54:33.9Z</time></trkpt><trkpt lat="43.4956033" lon="11.3718117"><ele>357.3333333333333</ele><time>2026-03-22T10:54:34.9Z</time></trkpt><trkpt lat="43.4956317" lon="11.371695"><ele>356.66666666666663</ele><time>2026-03-22T10:54:35.9Z</time></trkpt><trkpt lat="43.495665" lon="11.37158"><ele>356.0</ele><time>2026-03-22T10:54:36.9Z</time></trkpt><trkpt lat="43.4956917" lon="11.3714783"><ele>355.3333333333333</ele><time>2026-03-22T10:54:37.9Z</time></trkpt><trkpt lat="43.4957217" lon="11.3713717"><ele>354.6666666666667</ele><time>2026-03-22T10:54:38.9Z</time></trkpt><trkpt lat="43.4957483" lon="11.3712533"><ele>354.0</ele><time>2026-03-22T10:54:39.9Z</time></trkpt><trkpt lat="43.4957783" lon="11.3711333"><ele>354.0</ele><time>2026-03-22T10:54:40.9Z</time></trkpt><trkpt lat="43.4958117" lon="11.3710117"><ele>354.0</ele><time>2026-03-22T10:54:41.9Z</time></trkpt><trkpt lat="43.495835" lon="11.3709033"><ele>354.0</ele><time>2026-03-22T10:54:42.9Z</time></trkpt><trkpt lat="43.4958517" lon="11.37078"><ele>354.0</ele><time>2026-03-22T10:54:43.9Z</time></trkpt><trkpt lat="43.4958467" lon="11.3706417"><ele>354.0</ele><time>2026-03-22T10:54:44.9Z</time></trkpt><trkpt lat="43.495825" lon="11.3705033"><ele>353.25</ele><time>2026-03-22T10:54:45.9Z</time></trkpt><trkpt lat="43.4957717" lon="11.3703833"><ele>352.5</ele><time>2026-03-22T10:54:46.9Z</time></trkpt><trkpt lat="43.4956883" lon="11.3702817"><ele>351.75</ele><time>2026-03-22T10:54:47.9Z</time></trkpt><trkpt lat="43.49559" lon="11.370185"><ele>351.0</ele><time>2026-03-22T10:54:48.9Z</time></trkpt><trkpt lat="43.495485" lon="11.3700867"><ele>349.25</ele><time>2026-03-22T10:54:49.9Z</time></trkpt><trkpt lat="43.4953967" lon="11.3699667"><ele>347.5</ele><time>2026-03-22T10:54:50.9Z</time></trkpt><trkpt lat="43.4952933" lon="11.3698667"><ele>345.75</ele><time>2026-03-22T10:54:51.9Z</time></trkpt><trkpt lat="43.4951883" lon="11.3697567"><ele>344.0</ele><time>2026-03-22T10:54:52.9Z</time></trkpt><trkpt lat="43.495085" lon="11.3696483"><ele>343.25</ele><time>2026-03-22T10:54:53.9Z</time></trkpt><trkpt lat="43.49498" lon="11.36956"><ele>342.5</ele><time>2026-03-22T10:54:54.9Z</time></trkpt><trkpt lat="43.4948583" lon="11.3694867"><ele>341.75</ele><time>2026-03-22T10:54:55.901Z</time></trkpt><trkpt lat="43.49473" lon="11.36944"><ele>341.0</ele><time>2026-03-22T10:54:56.9Z</time></trkpt><trkpt lat="43.4945833" lon="11.3693933"><ele>343.33333333333337</ele><time>2026-03-22T10:54:57.9Z</time></trkpt><trkpt lat="43.49443" lon="11.3693467"><ele>345.6666666666667</ele><time>2026-03-22T10:54:58.9Z</time></trkpt><trkpt lat="43.4942783" lon="11.3693117"><ele>348.0</ele><time>2026-03-22T10:54:59.9Z</time></trkpt><trkpt lat="43.4941217" lon="11.3692717"><ele>348.0</ele><time>2026-03-22T10:55:00.9Z</time></trkpt><trkpt lat="43.4939567" lon="11.369235"><ele>348.0</ele><time>2026-03-22T10:55:01.9Z</time></trkpt><trkpt lat="43.4937983" lon="11.3691883"><ele>348.0</ele><time>2026-03-22T10:55:02.9Z</time></trkpt><trkpt lat="43.4936467" lon="11.36916"><ele>351.6666666666667</ele><time>2026-03-22T10:55:03.9Z</time></trkpt><trkpt lat="43.49349" lon="11.3691233"><ele>355.33333333333337</ele><time>2026-03-22T10:55:04.9Z</time></trkpt><trkpt lat="43.49333" lon="11.36908"><ele>359.0</ele><time>2026-03-22T10:55:05.9Z</time></trkpt><trkpt lat="43.49317" lon="11.36903"><ele>359.0</ele><time>2026-03-22T10:55:06.9Z</time></trkpt><trkpt lat="43.4930117" lon="11.3689683"><ele>359.0</ele><time>2026-03-22T10:55:07.9Z</time></trkpt><trkpt lat="43.4928567" lon="11.36891"><ele>359.0</ele><time>2026-03-22T10:55:08.9Z</time></trkpt><trkpt lat="43.4927017" lon="11.3688417"><ele>364.33333333333337</ele><time>2026-03-22T10:55:09.9Z</time></trkpt><trkpt lat="43.49255" lon="11.3687633"><ele>369.6666666666667</ele><time>2026-03-22T10:55:10.9Z</time></trkpt><trkpt lat="43.4924117" lon="11.3686783"><ele>375.0</ele><time>2026-03-22T10:55:11.9Z</time></trkpt><trkpt lat="43.4922817" lon="11.3685583"><ele>375.0</ele><time>2026-03-22T10:55:12.901Z</time></trkpt><trkpt lat="43.4921483" lon="11.36844"><ele>375.0</ele><time>2026-03-22T10:55:13.9Z</time></trkpt><trkpt lat="43.4920117" lon="11.3683083"><ele>375.0</ele><time>2026-03-22T10:55:14.9Z</time></trkpt><trkpt lat="43.491885" lon="11.3681817"><ele>378.33333333333337</ele><time>2026-03-22T10:55:15.9Z</time></trkpt><trkpt lat="43.4917433" lon="11.3680583"><ele>381.6666666666667</ele><time>2026-03-22T10:55:16.9Z</time></trkpt><trkpt lat="43.49161" lon="11.36791"><ele>385.0</ele><time>2026-03-22T10:55:17.9Z</time></trkpt><trkpt lat="43.4914667" lon="11.3678017"><ele>387.75</ele><time>2026-03-22T10:55:18.9Z</time></trkpt><trkpt lat="43.4913333" lon="11.3677133"><ele>390.5</ele><time>2026-03-22T10:55:19.9Z</time></trkpt><trkpt lat="43.4912067" lon="11.367645"><ele>393.25</ele><time>2026-03-22T10:55:20.9Z</time></trkpt><trkpt lat="43.4910617" lon="11.3676083"><ele>396.0</ele><time>2026-03-22T10:55:21.9Z</time></trkpt><trkpt lat="43.49093" lon="11.3676"><ele>396.20000000000005</ele><time>2026-03-22T10:55:22.9Z</time></trkpt><trkpt lat="43.4908267" lon="11.3676133"><ele>396.40000000000003</ele><time>2026-03-22T10:55:23.9Z</time></trkpt><trkpt lat="43.49075" lon="11.3676183"><ele>396.6</ele><time>2026-03-22T10:55:24.9Z</time></trkpt><trkpt lat="43.4906583" lon="11.36761"><ele>396.8</ele><time>2026-03-22T10:55:26.9Z</time></trkpt><trkpt lat="43.4905817" lon="11.367695"><ele>397.0</ele><time>2026-03-22T10:55:33.9Z</time></trkpt><trkpt lat="43.4905533" lon="11.36786"><ele>397.0</ele><time>2026-03-22T10:55:35.9Z</time></trkpt><trkpt lat="43.4905733" lon="11.367945"><ele>397.0</ele><time>2026-03-22T10:55:36.9Z</time></trkpt><trkpt lat="43.4906183" lon="11.36803"><ele>397.0</ele><time>2026-03-22T10:55:37.9Z</time></trkpt><trkpt lat="43.4907383" lon="11.3680867"><ele>397.0</ele><time>2026-03-22T10:55:38.9Z</time></trkpt><trkpt lat="43.4908567" lon="11.3681467"><ele>397.0</ele><time>2026-03-22T10:55:39.9Z</time></trkpt><trkpt lat="43.49096" lon="11.3682"><ele>396.75</ele><time>2026-03-22T10:55:40.9Z</time></trkpt><trkpt lat="43.4910533" lon="11.3682683"><ele>396.5</ele><time>2026-03-22T10:55:41.9Z</time></trkpt><trkpt lat="43.4911583" lon="11.368355"><ele>396.25</ele><time>2026-03-22T10:55:42.9Z</time></trkpt><trkpt lat="43.491265" lon="11.3684733"><ele>396.0</ele><time>2026-03-22T10:55:43.9Z</time></trkpt><trkpt lat="43.4913683" lon="11.3686"><ele>396.25</ele><time>2026-03-22T10:55:44.9Z</time></trkpt><trkpt lat="43.4914483" lon="11.3687383"><ele>396.5</ele><time>2026-03-22T10:55:45.9Z</time></trkpt><trkpt lat="43.4915233" lon="11.368885"><ele>396.75</ele><time>2026-03-22T10:55:46.9Z</time></trkpt><trkpt lat="43.4915933" lon="11.3690367"><ele>397.0</ele><time>2026-03-22T10:55:47.9Z</time></trkpt><trkpt lat="43.4916633" lon="11.3691833"><ele>397.0</ele><time>2026-03-22T10:55:48.9Z</time></trkpt><trkpt lat="43.4917467" lon="11.3693283"><ele>397.0</ele><time>2026-03-22T10:55:49.9Z</time></trkpt><trkpt lat="43.4918117" lon="11.36947"><ele>397.0</ele><time>2026-03-22T10:55:50.9Z</time></trkpt><trkpt lat="43.49185" lon="11.3696333"><ele>397.0</ele><time>2026-03-22T10:55:51.9Z</time></trkpt><trkpt lat="43.4918683" lon="11.3697983"><ele>397.5</ele><time>2026-03-22T10:55:52.9Z</time></trkpt><trkpt lat="43.491855" lon="11.369975"><ele>398.0</ele><time>2026-03-22T10:55:53.9Z</time></trkpt><trkpt lat="43.4918267" lon="11.3701467"><ele>398.5</ele><time>2026-03-22T10:55:54.9Z</time></trkpt><trkpt lat="43.4917817" lon="11.37033"><ele>399.0</ele><time>2026-03-22T10:55:55.9Z</time></trkpt><trkpt lat="43.4917367" lon="11.3705033"><ele>398.25</ele><time>2026-03-22T10:55:56.9Z</time></trkpt><trkpt lat="43.4916733" lon="11.3706717"><ele>397.5</ele><time>2026-03-22T10:55:57.9Z</time></trkpt><trkpt lat="43.4915983" lon="11.3708333"><ele>396.75</ele><time>2026-03-22T10:55:58.9Z</time></trkpt><trkpt lat="43.4915133" lon="11.3709683"><ele>396.0</ele><time>2026-03-22T10:55:59.9Z</time></trkpt><trkpt lat="43.4914217" lon="11.3711083"><ele>396.0</ele><time>2026-03-22T10:56:00.9Z</time></trkpt><trkpt lat="43.491315" lon="11.3711983"><ele>396.0</ele><time>2026-03-22T10:56:01.9Z</time></trkpt><trkpt lat="43.4912167" lon="11.3712533"><ele>396.0</ele><time>2026-03-22T10:56:02.9Z</time></trkpt><trkpt lat="43.4910983" lon="11.3713117"><ele>396.0</ele><time>2026-03-22T10:56:03.901Z</time></trkpt><trkpt lat="43.4909683" lon="11.3713417"><ele>397.0</ele><time>2026-03-22T10:56:04.9Z</time></trkpt><trkpt lat="43.4908367" lon="11.37136"><ele>398.0</ele><time>2026-03-22T10:56:05.9Z</time></trkpt><trkpt lat="43.4907117" lon="11.3713717"><ele>399.0</ele><time>2026-03-22T10:56:06.901Z</time></trkpt><trkpt lat="43.4906033" lon="11.371385"><ele>400.0</ele><time>2026-03-22T10:56:07.9Z</time></trkpt><trkpt lat="43.49051" lon="11.3714417"><ele>400.0</ele><time>2026-03-22T10:56:08.9Z</time></trkpt><trkpt lat="43.4904483" lon="11.3715217"><ele>400.0</ele><time>2026-03-22T10:56:09.9Z</time></trkpt><trkpt lat="43.4904" lon="11.37163"><ele>400.0</ele><time>2026-03-22T10:56:10.9Z</time></trkpt><trkpt lat="43.4903833" lon="11.371745"><ele>400.0</ele><time>2026-03-22T10:56:11.9Z</time></trkpt><trkpt lat="43.4903917" lon="11.37188"><ele>400.0</ele><time>2026-03-22T10:56:12.9Z</time></trkpt><trkpt lat="43.4904333" lon="11.3720167"><ele>400.0</ele><time>2026-03-22T10:56:13.9Z</time></trkpt><trkpt lat="43.490505" lon="11.3721517"><ele>400.0</ele><time>2026-03-22T10:56:14.9Z</time></trkpt><trkpt lat="43.4905767" lon="11.3723017"><ele>400.0</ele><time>2026-03-22T10:56:15.9Z</time></trkpt><trkpt lat="43.4906467" lon="11.3724617"><ele>400.0</ele><time>2026-03-22T10:56:16.9Z</time></trkpt><trkpt lat="43.49071" lon="11.3726267"><ele>400.5</ele><time>2026-03-22T10:56:17.9Z</time></trkpt><trkpt lat="43.4907567" lon="11.3727767"><ele>401.0</ele><time>2026-03-22T10:56:18.9Z</time></trkpt><trkpt lat="43.49081" lon="11.37292"><ele>401.5</ele><time>2026-03-22T10:56:19.9Z</time></trkpt><trkpt lat="43.4908383" lon="11.3730733"><ele>402.0</ele><time>2026-03-22T10:56:20.9Z</time></trkpt><trkpt lat="43.4908417" lon="11.3732233"><ele>403.20000000000005</ele><time>2026-03-22T10:56:21.9Z</time></trkpt><trkpt lat="43.4908133" lon="11.3733583"><ele>404.4</ele><time>2026-03-22T10:56:22.9Z</time></trkpt><trkpt lat="43.490775" lon="11.3734933"><ele>405.6</ele><time>2026-03-22T10:56:23.9Z</time></trkpt><trkpt lat="43.490735" lon="11.37363"><ele>406.79999999999995</ele><time>2026-03-22T10:56:24.9Z</time></trkpt><trkpt lat="43.49068" lon="11.3737883"><ele>408.0</ele><time>2026-03-22T10:56:25.9Z</time></trkpt><trkpt lat="43.49063" lon="11.3739333"><ele>408.0</ele><time>2026-03-22T10:56:26.901Z</time></trkpt><trkpt lat="43.4905883" lon="11.3740867"><ele>408.0</ele><time>2026-03-22T10:56:27.9Z</time></trkpt><trkpt lat="43.4905533" lon="11.37425"><ele>408.0</ele><time>2026-03-22T10:56:28.9Z</time></trkpt><trkpt lat="43.4905117" lon="11.3744233"><ele>408.0</ele><time>2026-03-22T10:56:29.9Z</time></trkpt><trkpt lat="43.4904867" lon="11.374585"><ele>408.0</ele><time>2026-03-22T10:56:30.9Z</time></trkpt><trkpt lat="43.49047" lon="11.3747333"><ele>408.0</ele><time>2026-03-22T10:56:31.9Z</time></trkpt><trkpt lat="43.490455" lon="11.3748633"><ele>408.0</ele><time>2026-03-22T10:56:32.9Z</time></trkpt><trkpt lat="43.4904317" lon="11.3749633"><ele>408.0</ele><time>2026-03-22T10:56:33.9Z</time></trkpt><trkpt lat="43.490415" lon="11.375075"><ele>408.0</ele><time>2026-03-22T10:56:35.9Z</time></trkpt><trkpt lat="43.4903383" lon="11.37509"><ele>408.0</ele><time>2026-03-22T10:56:57.9Z</time></trkpt><trkpt lat="43.4903967" lon="11.3751333"><ele>408.2</ele><time>2026-03-22T10:57:59.9Z</time></trkpt><trkpt lat="43.49042" lon="11.3752667"><ele>408.4</ele><time>2026-03-22T10:58:02.9Z</time></trkpt><trkpt lat="43.49042" lon="11.3754567"><ele>408.59999999999997</ele><time>2026-03-22T10:58:04.9Z</time></trkpt><trkpt lat="43.4904267" lon="11.375575"><ele>408.79999999999995</ele><time>2026-03-22T10:58:05.9Z</time></trkpt><trkpt lat="43.4904317" lon="11.3756917"><ele>409.0</ele><time>2026-03-22T10:58:06.9Z</time></trkpt><trkpt lat="43.4904417" lon="11.3758117"><ele>409.0</ele><time>2026-03-22T10:58:07.9Z</time></trkpt><trkpt lat="43.490445" lon="11.37594"><ele>409.0</ele><time>2026-03-22T10:58:08.9Z</time></trkpt><trkpt lat="43.4904617" lon="11.37607"><ele>409.0</ele><time>2026-03-22T10:58:09.9Z</time></trkpt><trkpt lat="43.4904817" lon="11.3762067"><ele>409.0</ele><time>2026-03-22T10:58:10.9Z</time></trkpt><trkpt lat="43.4904983" lon="11.3763517"><ele>409.0</ele><time>2026-03-22T10:58:11.9Z</time></trkpt><trkpt lat="43.490515" lon="11.3764883"><ele>410.5</ele><time>2026-03-22T10:58:12.9Z</time></trkpt><trkpt lat="43.49053" lon="11.376655"><ele>412.0</ele><time>2026-03-22T10:58:13.9Z</time></trkpt><trkpt lat="43.4905483" lon="11.3768417"><ele>413.5</ele><time>2026-03-22T10:58:14.9Z</time></trkpt><trkpt lat="43.490565" lon="11.3770233"><ele>415.0</ele><time>2026-03-22T10:58:15.9Z</time></trkpt><trkpt lat="43.490585" lon="11.3771883"><ele>416.25</ele><time>2026-03-22T10:58:16.9Z</time></trkpt><trkpt lat="43.49062" lon="11.3773483"><ele>417.5</ele><time>2026-03-22T10:58:17.9Z</time></trkpt><trkpt lat="43.4906433" lon="11.37752"><ele>418.75</ele><time>2026-03-22T10:58:18.9Z</time></trkpt><trkpt lat="43.4906583" lon="11.3776933"><ele>420.0</ele><time>2026-03-22T10:58:19.9Z</time></trkpt><trkpt lat="43.4906833" lon="11.3778633"><ele>421.25</ele><time>2026-03-22T10:58:20.9Z</time></trkpt><trkpt lat="43.4907067" lon="11.3780467"><ele>422.5</ele><time>2026-03-22T10:58:21.9Z</time></trkpt><trkpt lat="43.4907317" lon="11.3782367"><ele>423.75</ele><time>2026-03-22T10:58:22.9Z</time></trkpt><trkpt lat="43.4907617" lon="11.37843"><ele>425.0</ele><time>2026-03-22T10:58:23.9Z</time></trkpt><trkpt lat="43.4907833" lon="11.3786083"><ele>425.0</ele><time>2026-03-22T10:58:24.9Z</time></trkpt><trkpt lat="43.4908033" lon="11.37877"><ele>425.0</ele><time>2026-03-22T10:58:25.9Z</time></trkpt><trkpt lat="43.4907933" lon="11.3789283"><ele>425.0</ele><time>2026-03-22T10:58:26.9Z</time></trkpt><trkpt lat="43.4907783" lon="11.3790783"><ele>425.0</ele><time>2026-03-22T10:58:27.9Z</time></trkpt><trkpt lat="43.4907367" lon="11.3792217"><ele>425.25</ele><time>2026-03-22T10:58:28.9Z</time></trkpt><trkpt lat="43.4906867" lon="11.37936"><ele>425.5</ele><time>2026-03-22T10:58:29.9Z</time></trkpt><trkpt lat="43.49061" lon="11.3795"><ele>425.75</ele><time>2026-03-22T10:58:30.9Z</time></trkpt><trkpt lat="43.490535" lon="11.379635"><ele>426.0</ele><time>2026-03-22T10:58:31.9Z</time></trkpt><trkpt lat="43.4904567" lon="11.3797817"><ele>429.5</ele><time>2026-03-22T10:58:32.9Z</time></trkpt><trkpt lat="43.49038" lon="11.3799417"><ele>433.0</ele><time>2026-03-22T10:58:33.9Z</time></trkpt><trkpt lat="43.4903133" lon="11.3801133"><ele>436.5</ele><time>2026-03-22T10:58:34.9Z</time></trkpt><trkpt lat="43.490255" lon="11.3802783"><ele>440.0</ele><time>2026-03-22T10:58:35.9Z</time></trkpt><trkpt lat="43.49022" lon="11.3804383"><ele>441.0</ele><time>2026-03-22T10:58:36.9Z</time></trkpt><trkpt lat="43.4901983" lon="11.3805967"><ele>442.0</ele><time>2026-03-22T10:58:37.9Z</time></trkpt><trkpt lat="43.490205" lon="11.3807633"><ele>443.0</ele><time>2026-03-22T10:58:38.9Z</time></trkpt><trkpt lat="43.4902283" lon="11.3809417"><ele>444.0</ele><time>2026-03-22T10:58:39.9Z</time></trkpt><trkpt lat="43.4902817" lon="11.38112"><ele>444.0</ele><time>2026-03-22T10:58:40.9Z</time></trkpt><trkpt lat="43.4903567" lon="11.3812667"><ele>444.0</ele><time>2026-03-22T10:58:41.9Z</time></trkpt><trkpt lat="43.4904517" lon="11.38142"><ele>444.0</ele><time>2026-03-22T10:58:42.9Z</time></trkpt><trkpt lat="43.490525" lon="11.3815883"><ele>444.0</ele><time>2026-03-22T10:58:43.9Z</time></trkpt><trkpt lat="43.4905817" lon="11.3817617"><ele>444.25</ele><time>2026-03-22T10:58:44.9Z</time></trkpt><trkpt lat="43.49062" lon="11.381945"><ele>444.5</ele><time>2026-03-22T10:58:45.9Z</time></trkpt><trkpt lat="43.490675" lon="11.3821167"><ele>444.75</ele><time>2026-03-22T10:58:46.9Z</time></trkpt><trkpt lat="43.4907733" lon="11.382245"><ele>445.0</ele><time>2026-03-22T10:58:47.9Z</time></trkpt><trkpt lat="43.4908867" lon="11.3823567"><ele>445.0</ele><time>2026-03-22T10:58:48.9Z</time></trkpt><trkpt lat="43.4910133" lon="11.3824433"><ele>445.0</ele><time>2026-03-22T10:58:49.9Z</time></trkpt><trkpt lat="43.4911283" lon="11.382525"><ele>445.0</ele><time>2026-03-22T10:58:50.9Z</time></trkpt><trkpt lat="43.4912217" lon="11.3826167"><ele>445.0</ele><time>2026-03-22T10:58:51.9Z</time></trkpt><trkpt lat="43.49129" lon="11.3827417"><ele>442.25</ele><time>2026-03-22T10:58:52.9Z</time></trkpt><trkpt lat="43.4913317" lon="11.3828967"><ele>439.5</ele><time>2026-03-22T10:58:53.9Z</time></trkpt><trkpt lat="43.4913467" lon="11.3830633"><ele>436.75</ele><time>2026-03-22T10:58:54.9Z</time></trkpt><trkpt lat="43.49134" lon="11.383245"><ele>434.0</ele><time>2026-03-22T10:58:55.9Z</time></trkpt><trkpt lat="43.491315" lon="11.3834317"><ele>434.0</ele><time>2026-03-22T10:58:56.9Z</time></trkpt><trkpt lat="43.4912633" lon="11.38363"><ele>434.0</ele><time>2026-03-22T10:58:57.9Z</time></trkpt><trkpt lat="43.4912067" lon="11.3838183"><ele>434.0</ele><time>2026-03-22T10:58:58.9Z</time></trkpt><trkpt lat="43.4911233" lon="11.3839883"><ele>439.75</ele><time>2026-03-22T10:58:59.9Z</time></trkpt><trkpt lat="43.49102" lon="11.384125"><ele>445.5</ele><time>2026-03-22T10:59:00.9Z</time></trkpt><trkpt lat="43.490915" lon="11.3842617"><ele>451.25</ele><time>2026-03-22T10:59:01.9Z</time></trkpt><trkpt lat="43.4908033" lon="11.3843917"><ele>457.0</ele><time>2026-03-22T10:59:02.9Z</time></trkpt><trkpt lat="43.490685" lon="11.3845133"><ele>457.0</ele><time>2026-03-22T10:59:03.9Z</time></trkpt><trkpt lat="43.4905683" lon="11.3846333"><ele>457.0</ele><time>2026-03-22T10:59:04.9Z</time></trkpt><trkpt lat="43.4904533" lon="11.3847517"><ele>457.0</ele><time>2026-03-22T10:59:05.9Z</time></trkpt><trkpt lat="43.4903383" lon="11.3848683"><ele>457.0</ele><time>2026-03-22T10:59:06.9Z</time></trkpt><trkpt lat="43.4902417" lon="11.38498"><ele>457.20000000000005</ele><time>2026-03-22T10:59:07.9Z</time></trkpt><trkpt lat="43.49015" lon="11.3850917"><ele>457.40000000000003</ele><time>2026-03-22T10:59:08.9Z</time></trkpt><trkpt lat="43.4900683" lon="11.3852017"><ele>457.59999999999997</ele><time>2026-03-22T10:59:09.9Z</time></trkpt><trkpt lat="43.490005" lon="11.3853133"><ele>457.79999999999995</ele><time>2026-03-22T10:59:10.9Z</time></trkpt><trkpt lat="43.4899333" lon="11.3854233"><ele>458.0</ele><time>2026-03-22T10:59:11.9Z</time></trkpt><trkpt lat="43.4899033" lon="11.385535"><ele>458.2</ele><time>2026-03-22T10:59:12.9Z</time></trkpt><trkpt lat="43.48988" lon="11.3856417"><ele>458.4</ele><time>2026-03-22T10:59:13.9Z</time></trkpt><trkpt lat="43.4898417" lon="11.3857783"><ele>458.59999999999997</ele><time>2026-03-22T10:59:15.901Z</time></trkpt><trkpt lat="43.4898067" lon="11.3859083"><ele>458.79999999999995</ele><time>2026-03-22T10:59:20.9Z</time></trkpt><trkpt lat="43.4897783" lon="11.3860183"><ele>459.0</ele><time>2026-03-22T10:59:23.9Z</time></trkpt><trkpt lat="43.48976" lon="11.386125"><ele>459.0</ele><time>2026-03-22T10:59:26.9Z</time></trkpt><trkpt lat="43.489715" lon="11.3862217"><ele>459.0</ele><time>2026-03-22T10:59:28.9Z</time></trkpt><trkpt lat="43.48968" lon="11.3863767"><ele>459.0</ele><time>2026-03-22T10:59:30.9Z</time></trkpt><trkpt lat="43.4896633" lon="11.3864733"><ele>459.0</ele><time>2026-03-22T10:59:31.9Z</time></trkpt><trkpt lat="43.4896483" lon="11.3865833"><ele>459.0</ele><time>2026-03-22T10:59:32.9Z</time></trkpt><trkpt lat="43.4896233" lon="11.3867033"><ele>459.0</ele><time>2026-03-22T10:59:33.9Z</time></trkpt><trkpt lat="43.4895917" lon="11.386835"><ele>456.79999999999995</ele><time>2026-03-22T10:59:34.9Z</time></trkpt><trkpt lat="43.4895683" lon="11.3869717"><ele>454.59999999999997</ele><time>2026-03-22T10:59:35.9Z</time></trkpt><trkpt lat="43.4895483" lon="11.3871167"><ele>452.4</ele><time>2026-03-22T10:59:36.9Z</time></trkpt><trkpt lat="43.489535" lon="11.3872633"><ele>450.2</ele><time>2026-03-22T10:59:37.9Z</time></trkpt><trkpt lat="43.4895267" lon="11.3874167"><ele>448.0</ele><time>2026-03-22T10:59:38.9Z</time></trkpt><trkpt lat="43.4895067" lon="11.38759"><ele>448.0</ele><time>2026-03-22T10:59:39.9Z</time></trkpt><trkpt lat="43.4894883" lon="11.3877617"><ele>448.0</ele><time>2026-03-22T10:59:40.9Z</time></trkpt><trkpt lat="43.4894633" lon="11.3879233"><ele>448.0</ele><time>2026-03-22T10:59:41.9Z</time></trkpt><trkpt lat="43.48944" lon="11.3880983"><ele>448.0</ele><time>2026-03-22T10:59:42.9Z</time></trkpt><trkpt lat="43.4894217" lon="11.3882817"><ele>448.75</ele><time>2026-03-22T10:59:43.9Z</time></trkpt><trkpt lat="43.4894" lon="11.388455"><ele>449.5</ele><time>2026-03-22T10:59:44.9Z</time></trkpt><trkpt lat="43.48937" lon="11.3886283"><ele>450.25</ele><time>2026-03-22T10:59:45.9Z</time></trkpt><trkpt lat="43.4893467" lon="11.388785"><ele>451.0</ele><time>2026-03-22T10:59:46.9Z</time></trkpt><trkpt lat="43.4893033" lon="11.38894"><ele>452.0</ele><time>2026-03-22T10:59:47.9Z</time></trkpt><trkpt lat="43.4892783" lon="11.389085"><ele>453.0</ele><time>2026-03-22T10:59:48.9Z</time></trkpt><trkpt lat="43.4892783" lon="11.3892367"><ele>454.0</ele><time>2026-03-22T10:59:49.9Z</time></trkpt><trkpt lat="43.4893167" lon="11.3893933"><ele>455.0</ele><time>2026-03-22T10:59:50.9Z</time></trkpt><trkpt lat="43.489365" lon="11.389545"><ele>454.5</ele><time>2026-03-22T10:59:51.9Z</time></trkpt><trkpt lat="43.4894267" lon="11.3896917"><ele>454.0</ele><time>2026-03-22T10:59:52.9Z</time></trkpt><trkpt lat="43.48948" lon="11.3898367"><ele>453.5</ele><time>2026-03-22T10:59:53.9Z</time></trkpt><trkpt lat="43.48953" lon="11.38998"><ele>453.0</ele><time>2026-03-22T10:59:54.9Z</time></trkpt><trkpt lat="43.4895883" lon="11.39012"><ele>454.2</ele><time>2026-03-22T10:59:55.901Z</time></trkpt><trkpt lat="43.48962" lon="11.390265"><ele>455.4</ele><time>2026-03-22T10:59:56.9Z</time></trkpt><trkpt lat="43.4896533" lon="11.3904033"><ele>456.59999999999997</ele><time>2026-03-22T10:59:57.9Z</time></trkpt><trkpt lat="43.48971" lon="11.39052"><ele>457.79999999999995</ele><time>2026-03-22T10:59:58.9Z</time></trkpt><trkpt lat="43.4897583" lon="11.3906267"><ele>459.0</ele><time>2026-03-22T10:59:59.9Z</time></trkpt><trkpt lat="43.4898083" lon="11.3907267"><ele>459.0</ele><time>2026-03-22T11:00:00.9Z</time></trkpt><trkpt lat="43.48986" lon="11.390825"><ele>459.0</ele><time>2026-03-22T11:00:01.9Z</time></trkpt><trkpt lat="43.48993" lon="11.390925"><ele>459.0</ele><time>2026-03-22T11:00:02.9Z</time></trkpt><trkpt lat="43.490005" lon="11.3910233"><ele>459.0</ele><time>2026-03-22T11:00:03.9Z</time></trkpt><trkpt lat="43.4900917" lon="11.39113"><ele>459.0</ele><time>2026-03-22T11:00:04.9Z</time></trkpt><trkpt lat="43.4901583" lon="11.391245"><ele>458.4</ele><time>2026-03-22T11:00:05.9Z</time></trkpt><trkpt lat="43.4902" lon="11.3913783"><ele>457.79999999999995</ele><time>2026-03-22T11:00:06.9Z</time></trkpt><trkpt lat="43.49022" lon="11.3915183"><ele>457.20000000000005</ele><time>2026-03-22T11:00:07.9Z</time></trkpt><trkpt lat="43.4902167" lon="11.3916767"><ele>456.6</ele><time>2026-03-22T11:00:08.9Z</time></trkpt><trkpt lat="43.4902117" lon="11.3918383"><ele>456.0</ele><time>2026-03-22T11:00:09.9Z</time></trkpt><trkpt lat="43.490205" lon="11.3920017"><ele>456.0</ele><time>2026-03-22T11:00:10.9Z</time></trkpt><trkpt lat="43.4902033" lon="11.392165"><ele>456.0</ele><time>2026-03-22T11:00:11.9Z</time></trkpt><trkpt lat="43.4902167" lon="11.392325"><ele>456.0</ele><time>2026-03-22T11:00:12.9Z</time></trkpt><trkpt lat="43.4902433" lon="11.3924967"><ele>456.0</ele><time>2026-03-22T11:00:13.9Z</time></trkpt><trkpt lat="43.4902917" lon="11.39266"><ele>456.25</ele><time>2026-03-22T11:00:14.9Z</time></trkpt><trkpt lat="43.4903383" lon="11.3928183"><ele>456.5</ele><time>2026-03-22T11:00:15.9Z</time></trkpt><trkpt lat="43.49039" lon="11.3929717"><ele>456.75</ele><time>2026-03-22T11:00:16.9Z</time></trkpt><trkpt lat="43.4904183" lon="11.393145"><ele>457.0</ele><time>2026-03-22T11:00:17.9Z</time></trkpt><trkpt lat="43.4904333" lon="11.39331"><ele>457.75</ele><time>2026-03-22T11:00:18.9Z</time></trkpt><trkpt lat="43.4904183" lon="11.3934633"><ele>458.5</ele><time>2026-03-22T11:00:19.9Z</time></trkpt><trkpt lat="43.4903817" lon="11.3936183"><ele>459.25</ele><time>2026-03-22T11:00:20.9Z</time></trkpt><trkpt lat="43.49033" lon="11.3937617"><ele>460.0</ele><time>2026-03-22T11:00:21.9Z</time></trkpt><trkpt lat="43.4902733" lon="11.3939"><ele>461.0</ele><time>2026-03-22T11:00:22.9Z</time></trkpt><trkpt lat="43.4902117" lon="11.3940533"><ele>462.0</ele><time>2026-03-22T11:00:23.9Z</time></trkpt><trkpt lat="43.49016" lon="11.3942117"><ele>463.0</ele><time>2026-03-22T11:00:24.901Z</time></trkpt><trkpt lat="43.490125" lon="11.3943817"><ele>464.0</ele><time>2026-03-22T11:00:25.9Z</time></trkpt><trkpt lat="43.4901067" lon="11.3945667"><ele>465.25</ele><time>2026-03-22T11:00:26.9Z</time></trkpt><trkpt lat="43.4901" lon="11.3947567"><ele>466.5</ele><time>2026-03-22T11:00:27.9Z</time></trkpt><trkpt lat="43.4901117" lon="11.3949567"><ele>467.75</ele><time>2026-03-22T11:00:28.9Z</time></trkpt><trkpt lat="43.490115" lon="11.3951583"><ele>469.0</ele><time>2026-03-22T11:00:29.9Z</time></trkpt><trkpt lat="43.4901133" lon="11.3953683"><ele>470.0</ele><time>2026-03-22T11:00:30.9Z</time></trkpt><trkpt lat="43.4901083" lon="11.39557"><ele>471.0</ele><time>2026-03-22T11:00:31.9Z</time></trkpt><trkpt lat="43.49009" lon="11.3957717"><ele>472.0</ele><time>2026-03-22T11:00:32.9Z</time></trkpt><trkpt lat="43.4900667" lon="11.3959683"><ele>473.0</ele><time>2026-03-22T11:00:33.9Z</time></trkpt><trkpt lat="43.490035" lon="11.3961517"><ele>473.0</ele><time>2026-03-22T11:00:34.9Z</time></trkpt><trkpt lat="43.4899917" lon="11.39632"><ele>473.0</ele><time>2026-03-22T11:00:35.9Z</time></trkpt><trkpt lat="43.4899317" lon="11.3964633"><ele>473.0</ele><time>2026-03-22T11:00:36.9Z</time></trkpt><trkpt lat="43.489845" lon="11.3965933"><ele>473.0</ele><time>2026-03-22T11:00:37.9Z</time></trkpt><trkpt lat="43.4897583" lon="11.3967267"><ele>473.0</ele><time>2026-03-22T11:00:38.9Z</time></trkpt><trkpt lat="43.4896567" lon="11.3968683"><ele>473.0</ele><time>2026-03-22T11:00:39.9Z</time></trkpt><trkpt lat="43.48957" lon="11.3970317"><ele>473.0</ele><time>2026-03-22T11:00:40.9Z</time></trkpt><trkpt lat="43.489495" lon="11.3972017"><ele>473.0</ele><time>2026-03-22T11:00:41.9Z</time></trkpt><trkpt lat="43.4894233" lon="11.3973767"><ele>478.66666666666663</ele><time>2026-03-22T11:00:42.9Z</time></trkpt><trkpt lat="43.4893367" lon="11.3975583"><ele>484.33333333333337</ele><time>2026-03-22T11:00:43.9Z</time></trkpt><trkpt lat="43.4892533" lon="11.3977433"><ele>490.0</ele><time>2026-03-22T11:00:44.9Z</time></trkpt><trkpt lat="43.4891667" lon="11.3979233"><ele>488.0</ele><time>2026-03-22T11:00:45.9Z</time></trkpt><trkpt lat="43.489075" lon="11.3981083"><ele>486.0</ele><time>2026-03-22T11:00:46.9Z</time></trkpt><trkpt lat="43.4889883" lon="11.3982867"><ele>484.0</ele><time>2026-03-22T11:00:47.9Z</time></trkpt><trkpt lat="43.4889083" lon="11.3984533"><ele>484.0</ele><time>2026-03-22T11:00:48.9Z</time></trkpt><trkpt lat="43.4888317" lon="11.3986417"><ele>484.0</ele><time>2026-03-22T11:00:49.9Z</time></trkpt><trkpt lat="43.4887483" lon="11.39881"><ele>484.0</ele><time>2026-03-22T11:00:50.9Z</time></trkpt><trkpt lat="43.4886567" lon="11.39899"><ele>488.0</ele><time>2026-03-22T11:00:51.9Z</time></trkpt><trkpt lat="43.48857" lon="11.3991667"><ele>492.0</ele><time>2026-03-22T11:00:52.9Z</time></trkpt><trkpt lat="43.4884833" lon="11.39934"><ele>496.0</ele><time>2026-03-22T11:00:53.9Z</time></trkpt><trkpt lat="43.4884067" lon="11.39947"><ele>500.0</ele><time>2026-03-22T11:00:54.9Z</time></trkpt><trkpt lat="43.4883033" lon="11.3995767"><ele>500.25</ele><time>2026-03-22T11:00:55.9Z</time></trkpt><trkpt lat="43.4881" lon="11.3996867"><ele>500.5</ele><time>2026-03-22T11:00:57.9Z</time></trkpt><trkpt lat="43.4879983" lon="11.399705"><ele>500.75</ele><time>2026-03-22T11:00:58.9Z</time></trkpt><trkpt lat="43.4879083" lon="11.39972"><ele>501.0</ele><time>2026-03-22T11:00:59.9Z</time></trkpt><trkpt lat="43.487815" lon="11.399725"><ele>501.0</ele><time>2026-03-22T11:01:00.9Z</time></trkpt><trkpt lat="43.4877217" lon="11.39973"><ele>501.0</ele><time>2026-03-22T11:01:01.9Z</time></trkpt><trkpt lat="43.4876533" lon="11.3997167"><ele>501.0</ele><time>2026-03-22T11:01:02.9Z</time></trkpt><trkpt lat="43.4875917" lon="11.3996883"><ele>501.0</ele><time>2026-03-22T11:01:04.9Z</time></trkpt><trkpt lat="43.4874783" lon="11.3996817"><ele>501.0</ele><time>2026-03-22T11:01:07.9Z</time></trkpt><trkpt lat="43.4873983" lon="11.3996767"><ele>501.0</ele><time>2026-03-22T11:01:08.9Z</time></trkpt><trkpt lat="43.4873133" lon="11.3996633"><ele>501.0</ele><time>2026-03-22T11:01:09.9Z</time></trkpt><trkpt lat="43.48721" lon="11.3996333"><ele>501.0</ele><time>2026-03-22T11:01:10.901Z</time></trkpt><trkpt lat="43.4871067" lon="11.3996083"><ele>501.0</ele><time>2026-03-22T11:01:11.9Z</time></trkpt><trkpt lat="43.4870017" lon="11.3995783"><ele>501.0</ele><time>2026-03-22T11:01:12.9Z</time></trkpt><trkpt lat="43.4868767" lon="11.3995433"><ele>501.0</ele><time>2026-03-22T11:01:13.9Z</time></trkpt><trkpt lat="43.48675" lon="11.3995167"><ele>501.0</ele><time>2026-03-22T11:01:14.9Z</time></trkpt><trkpt lat="43.4866233" lon="11.3994883"><ele>501.0</ele><time>2026-03-22T11:01:15.9Z</time></trkpt><trkpt lat="43.4864967" lon="11.3994517"><ele>501.0</ele><time>2026-03-22T11:01:16.9Z</time></trkpt><trkpt lat="43.486365" lon="11.399415"><ele>501.0</ele><time>2026-03-22T11:01:17.9Z</time></trkpt><trkpt lat="43.4862467" lon="11.39937"><ele>498.20000000000005</ele><time>2026-03-22T11:01:18.9Z</time></trkpt><trkpt lat="43.48615" lon="11.3992933"><ele>495.40000000000003</ele><time>2026-03-22T11:01:19.9Z</time></trkpt><trkpt lat="43.4860733" lon="11.3991933"><ele>492.6</ele><time>2026-03-22T11:01:20.9Z</time></trkpt><trkpt lat="43.4860317" lon="11.399065"><ele>489.8</ele><time>2026-03-22T11:01:21.9Z</time></trkpt><trkpt lat="43.4860183" lon="11.3989133"><ele>487.0</ele><time>2026-03-22T11:01:22.9Z</time></trkpt><trkpt lat="43.486025" lon="11.3987517"><ele>487.0</ele><time>2026-03-22T11:01:23.9Z</time></trkpt><trkpt lat="43.486045" lon="11.3985883"><ele>487.0</ele><time>2026-03-22T11:01:24.9Z</time></trkpt><trkpt lat="43.48604" lon="11.3984183"><ele>487.0</ele><time>2026-03-22T11:01:25.9Z</time></trkpt><trkpt lat="43.4860083" lon="11.3982633"><ele>487.0</ele><time>2026-03-22T11:01:26.9Z</time></trkpt><trkpt lat="43.485945" lon="11.3981333"><ele>487.0</ele><time>2026-03-22T11:01:27.9Z</time></trkpt><trkpt lat="43.4858533" lon="11.3980267"><ele>487.0</ele><time>2026-03-22T11:01:28.9Z</time></trkpt><trkpt lat="43.4857533" lon="11.3979583"><ele>487.0</ele><time>2026-03-22T11:01:29.9Z</time></trkpt><trkpt lat="43.485635" lon="11.3979283"><ele>487.0</ele><time>2026-03-22T11:01:30.899Z</time></trkpt><trkpt lat="43.485495" lon="11.397925"><ele>486.75</ele><time>2026-03-22T11:01:31.899Z</time></trkpt><trkpt lat="43.485355" lon="11.3979283"><ele>486.5</ele><time>2026-03-22T11:01:32.899Z</time></trkpt><trkpt lat="43.4852167" lon="11.39792"><ele>486.25</ele><time>2026-03-22T11:01:33.899Z</time></trkpt><trkpt lat="43.48509" lon="11.397895"><ele>486.0</ele><time>2026-03-22T11:01:34.899Z</time></trkpt><trkpt lat="43.485" lon="11.397845"><ele>486.0</ele><time>2026-03-22T11:01:35.899Z</time></trkpt><trkpt lat="43.48491" lon="11.39775"><ele>486.0</ele><time>2026-03-22T11:01:36.899Z</time></trkpt><trkpt lat="43.48483" lon="11.3976283"><ele>486.0</ele><time>2026-03-22T11:01:37.899Z</time></trkpt><trkpt lat="43.484735" lon="11.3974967"><ele>486.0</ele><time>2026-03-22T11:01:38.899Z</time></trkpt><trkpt lat="43.4846483" lon="11.3973483"><ele>483.0</ele><time>2026-03-22T11:01:39.899Z</time></trkpt><trkpt lat="43.48457" lon="11.3972233"><ele>480.0</ele><time>2026-03-22T11:01:40.899Z</time></trkpt><trkpt lat="43.4845133" lon="11.3971017"><ele>477.0</ele><time>2026-03-22T11:01:41.899Z</time></trkpt><trkpt lat="43.4844983" lon="11.3969667"><ele>474.0</ele><time>2026-03-22T11:01:42.899Z</time></trkpt><trkpt lat="43.4845167" lon="11.3968317"><ele>471.0</ele><time>2026-03-22T11:01:43.899Z</time></trkpt><trkpt lat="43.484535" lon="11.3966717"><ele>471.0</ele><time>2026-03-22T11:01:44.899Z</time></trkpt><trkpt lat="43.4845433" lon="11.39652"><ele>471.0</ele><time>2026-03-22T11:01:45.899Z</time></trkpt><trkpt lat="43.4845283" lon="11.396365"><ele>471.0</ele><time>2026-03-22T11:01:46.899Z</time></trkpt><trkpt lat="43.484485" lon="11.3962133"><ele>471.0</ele><time>2026-03-22T11:01:47.899Z</time></trkpt><trkpt lat="43.484415" lon="11.3960817"><ele>472.5</ele><time>2026-03-22T11:01:48.899Z</time></trkpt><trkpt lat="43.4843133" lon="11.395985"><ele>474.0</ele><time>2026-03-22T11:01:49.899Z</time></trkpt><trkpt lat="43.4841983" lon="11.3959133"><ele>475.5</ele><time>2026-03-22T11:01:50.899Z</time></trkpt><trkpt lat="43.484065" lon="11.3958767"><ele>477.0</ele><time>2026-03-22T11:01:51.899Z</time></trkpt><trkpt lat="43.4839233" lon="11.3958833"><ele>477.0</ele><time>2026-03-22T11:01:52.899Z</time></trkpt><trkpt lat="43.4837739" lon="11.3959025"><ele>477.0</ele><time>2026-03-22T11:01:53.899Z</time></trkpt><trkpt lat="43.4836195" lon="11.3959376"><ele>477.0</ele><time>2026-03-22T11:01:54.899Z</time></trkpt><trkpt lat="43.4834709" lon="11.3959838"><ele>474.66666666666663</ele><time>2026-03-22T11:01:55.9Z</time></trkpt><trkpt lat="43.4833236" lon="11.3960387"><ele>472.3333333333333</ele><time>2026-03-22T11:01:56.899Z</time></trkpt><trkpt lat="43.4831833" lon="11.3961033"><ele>470.0</ele><time>2026-03-22T11:01:57.899Z</time></trkpt><trkpt lat="43.4830417" lon="11.3961717"><ele>469.0</ele><time>2026-03-22T11:01:58.899Z</time></trkpt><trkpt lat="43.4829217" lon="11.3962233"><ele>468.0</ele><time>2026-03-22T11:01:59.899Z</time></trkpt><trkpt lat="43.4828183" lon="11.396245"><ele>467.0</ele><time>2026-03-22T11:02:00.899Z</time></trkpt><trkpt lat="43.4827083" lon="11.39622"><ele>466.0</ele><time>2026-03-22T11:02:01.899Z</time></trkpt><trkpt lat="43.4826233" lon="11.3961367"><ele>465.0</ele><time>2026-03-22T11:02:02.899Z</time></trkpt><trkpt lat="43.4825517" lon="11.3960133"><ele>465.0</ele><time>2026-03-22T11:02:03.899Z</time></trkpt><trkpt lat="43.482485" lon="11.3958717"><ele>465.0</ele><time>2026-03-22T11:02:04.899Z</time></trkpt><trkpt lat="43.4823967" lon="11.3957567"><ele>465.0</ele><time>2026-03-22T11:02:05.899Z</time></trkpt><trkpt lat="43.4823067" lon="11.3956683"><ele>465.0</ele><time>2026-03-22T11:02:06.899Z</time></trkpt><trkpt lat="43.4821817" lon="11.3956117"><ele>463.0</ele><time>2026-03-22T11:02:07.899Z</time></trkpt><trkpt lat="43.482055" lon="11.3955867"><ele>461.0</ele><time>2026-03-22T11:02:08.899Z</time></trkpt><trkpt lat="43.481925" lon="11.3956"><ele>459.0</ele><time>2026-03-22T11:02:09.899Z</time></trkpt><trkpt lat="43.4817833" lon="11.3956367"><ele>457.0</ele><time>2026-03-22T11:02:10.899Z</time></trkpt><trkpt lat="43.4816433" lon="11.3956917"><ele>457.0</ele><time>2026-03-22T11:02:11.899Z</time></trkpt><trkpt lat="43.4815033" lon="11.395725"><ele>457.0</ele><time>2026-03-22T11:02:12.899Z</time></trkpt><trkpt lat="43.4813767" lon="11.3957317"><ele>457.0</ele><time>2026-03-22T11:02:13.899Z</time></trkpt><trkpt lat="43.4812533" lon="11.395725"><ele>457.0</ele><time>2026-03-22T11:02:14.899Z</time></trkpt><trkpt lat="43.48111" lon="11.3957067"><ele>456.20000000000005</ele><time>2026-03-22T11:02:15.899Z</time></trkpt><trkpt lat="43.4809883" lon="11.39566"><ele>455.40000000000003</ele><time>2026-03-22T11:02:16.899Z</time></trkpt><trkpt lat="43.4808983" lon="11.3955933"><ele>454.59999999999997</ele><time>2026-03-22T11:02:17.899Z</time></trkpt><trkpt lat="43.480825" lon="11.3954967"><ele>453.79999999999995</ele><time>2026-03-22T11:02:18.9Z</time></trkpt><trkpt lat="43.480765" lon="11.395375"><ele>453.0</ele><time>2026-03-22T11:02:19.899Z</time></trkpt><trkpt lat="43.4807283" lon="11.3952267"><ele>453.0</ele><time>2026-03-22T11:02:20.899Z</time></trkpt><trkpt lat="43.480735" lon="11.3950717"><ele>453.0</ele><time>2026-03-22T11:02:21.899Z</time></trkpt><trkpt lat="43.4807633" lon="11.394915"><ele>453.0</ele><time>2026-03-22T11:02:22.899Z</time></trkpt><trkpt lat="43.480825" lon="11.3947617"><ele>453.0</ele><time>2026-03-22T11:02:23.899Z</time></trkpt><trkpt lat="43.4808867" lon="11.3945967"><ele>452.25</ele><time>2026-03-22T11:02:24.899Z</time></trkpt><trkpt lat="43.48094" lon="11.39442"><ele>451.5</ele><time>2026-03-22T11:02:25.899Z</time></trkpt><trkpt lat="43.4809733" lon="11.3942517"><ele>450.75</ele><time>2026-03-22T11:02:26.899Z</time></trkpt><trkpt lat="43.48099" lon="11.3940817"><ele>450.0</ele><time>2026-03-22T11:02:27.899Z</time></trkpt><trkpt lat="43.4809633" lon="11.3939083"><ele>451.0</ele><time>2026-03-22T11:02:28.899Z</time></trkpt><trkpt lat="43.4809017" lon="11.3937717"><ele>452.0</ele><time>2026-03-22T11:02:29.9Z</time></trkpt><trkpt lat="43.4808133" lon="11.3936533"><ele>453.0</ele><time>2026-03-22T11:02:30.899Z</time></trkpt><trkpt lat="43.48071" lon="11.3935583"><ele>454.0</ele><time>2026-03-22T11:02:31.899Z</time></trkpt><trkpt lat="43.4805933" lon="11.3935083"><ele>454.0</ele><time>2026-03-22T11:02:32.899Z</time></trkpt><trkpt lat="43.4804739" lon="11.3935032"><ele>454.0</ele><time>2026-03-22T11:02:33.899Z</time></trkpt><trkpt lat="43.480349" lon="11.3935227"><ele>454.0</ele><time>2026-03-22T11:02:34.899Z</time></trkpt><trkpt lat="43.4802296" lon="11.3935359"><ele>454.0</ele><time>2026-03-22T11:02:35.899Z</time></trkpt><trkpt lat="43.4801172" lon="11.3935068"><ele>451.75</ele><time>2026-03-22T11:02:36.899Z</time></trkpt><trkpt lat="43.480017" lon="11.3934187"><ele>449.5</ele><time>2026-03-22T11:02:37.899Z</time></trkpt><trkpt lat="43.4799351" lon="11.3933015"><ele>447.25</ele><time>2026-03-22T11:02:38.899Z</time></trkpt><trkpt lat="43.4798551" lon="11.3931673"><ele>445.0</ele><time>2026-03-22T11:02:39.899Z</time></trkpt><trkpt lat="43.4797678" lon="11.3930545"><ele>445.4</ele><time>2026-03-22T11:02:40.899Z</time></trkpt><trkpt lat="43.4796721" lon="11.392977"><ele>445.8</ele><time>2026-03-22T11:02:41.899Z</time></trkpt><trkpt lat="43.4795709" lon="11.3929494"><ele>446.20000000000005</ele><time>2026-03-22T11:02:42.899Z</time></trkpt><trkpt lat="43.4794617" lon="11.392983"><ele>446.6</ele><time>2026-03-22T11:02:43.899Z</time></trkpt><trkpt lat="43.479357" lon="11.3930689"><ele>447.0</ele><time>2026-03-22T11:02:44.899Z</time></trkpt><trkpt lat="43.4792594" lon="11.3931956"><ele>444.75</ele><time>2026-03-22T11:02:45.899Z</time></trkpt><trkpt lat="43.4791569" lon="11.3933137"><ele>442.5</ele><time>2026-03-22T11:02:46.899Z</time></trkpt><trkpt lat="43.4790598" lon="11.3934038"><ele>440.25</ele><time>2026-03-22T11:02:47.9Z</time></trkpt><trkpt lat="43.4789623" lon="11.3934388"><ele>438.0</ele><time>2026-03-22T11:02:48.899Z</time></trkpt><trkpt lat="43.4788625" lon="11.3934178"><ele>437.5</ele><time>2026-03-22T11:02:49.899Z</time></trkpt><trkpt lat="43.4787566" lon="11.3933532"><ele>437.0</ele><time>2026-03-22T11:02:50.899Z</time></trkpt><trkpt lat="43.4786579" lon="11.3932459"><ele>436.5</ele><time>2026-03-22T11:02:51.899Z</time></trkpt><trkpt lat="43.4785605" lon="11.393114"><ele>436.0</ele><time>2026-03-22T11:02:52.899Z</time></trkpt><trkpt lat="43.4784626" lon="11.3929722"><ele>436.0</ele><time>2026-03-22T11:02:53.899Z</time></trkpt><trkpt lat="43.4783615" lon="11.3928243"><ele>436.0</ele><time>2026-03-22T11:02:54.899Z</time></trkpt><trkpt lat="43.4782768" lon="11.3926787"><ele>436.0</ele><time>2026-03-22T11:02:55.899Z</time></trkpt><trkpt lat="43.4782093" lon="11.3925485"><ele>436.0</ele><time>2026-03-22T11:02:56.9Z</time></trkpt><trkpt lat="43.4781502" lon="11.392439"><ele>436.00000000000006</ele><time>2026-03-22T11:02:57.899Z</time></trkpt><trkpt lat="43.4780943" lon="11.3923516"><ele>436.0</ele><time>2026-03-22T11:02:58.899Z</time></trkpt><trkpt lat="43.478018" lon="11.3923174"><ele>436.0</ele><time>2026-03-22T11:02:59.899Z</time></trkpt><trkpt lat="43.4779369" lon="11.392329"><ele>436.0</ele><time>2026-03-22T11:03:00.899Z</time></trkpt><trkpt lat="43.4778619" lon="11.3923737"><ele>436.00000000000006</ele><time>2026-03-22T11:03:01.899Z</time></trkpt><trkpt lat="43.4778238" lon="11.3924818"><ele>436.0</ele><time>2026-03-22T11:03:02.899Z</time></trkpt><trkpt lat="43.4778063" lon="11.3926165"><ele>434.25</ele><time>2026-03-22T11:03:03.9Z</time></trkpt><trkpt lat="43.47782" lon="11.3927511"><ele>432.5</ele><time>2026-03-22T11:03:04.899Z</time></trkpt><trkpt lat="43.4778799" lon="11.3928965"><ele>430.75</ele><time>2026-03-22T11:03:05.899Z</time></trkpt><trkpt lat="43.4779668" lon="11.3930411"><ele>429.0</ele><time>2026-03-22T11:03:06.899Z</time></trkpt><trkpt lat="43.4780436" lon="11.3931857"><ele>429.0</ele><time>2026-03-22T11:03:07.899Z</time></trkpt><trkpt lat="43.4780887" lon="11.3933365"><ele>429.0</ele><time>2026-03-22T11:03:08.899Z</time></trkpt><trkpt lat="43.4780957" lon="11.3935007"><ele>429.0</ele><time>2026-03-22T11:03:09.899Z</time></trkpt><trkpt lat="43.4780681" lon="11.3936697"><ele>429.0</ele><time>2026-03-22T11:03:10.899Z</time></trkpt><trkpt lat="43.4780303" lon="11.3938328"><ele>427.0</ele><time>2026-03-22T11:03:11.899Z</time></trkpt><trkpt lat="43.4780175" lon="11.3939937"><ele>425.0</ele><time>2026-03-22T11:03:12.899Z</time></trkpt><trkpt lat="43.4780403" lon="11.3941453"><ele>423.0</ele><time>2026-03-22T11:03:13.899Z</time></trkpt><trkpt lat="43.4781017" lon="11.394301"><ele>421.0</ele><time>2026-03-22T11:03:14.899Z</time></trkpt><trkpt lat="43.4781885" lon="11.3944317"><ele>421.0</ele><time>2026-03-22T11:03:15.899Z</time></trkpt><trkpt lat="43.4783044" lon="11.3945398"><ele>421.0</ele><time>2026-03-22T11:03:16.899Z</time></trkpt><trkpt lat="43.4784368" lon="11.3946209"><ele>421.0</ele><time>2026-03-22T11:03:17.899Z</time></trkpt><trkpt lat="43.4785651" lon="11.394686"><ele>421.0</ele><time>2026-03-22T11:03:18.899Z</time></trkpt><trkpt lat="43.4786665" lon="11.3947526"><ele>421.33333333333337</ele><time>2026-03-22T11:03:19.899Z</time></trkpt><trkpt lat="43.4787513" lon="11.3948304"><ele>421.6666666666667</ele><time>2026-03-22T11:03:20.899Z</time></trkpt><trkpt lat="43.4788111" lon="11.394918"><ele>422.0</ele><time>2026-03-22T11:03:21.899Z</time></trkpt><trkpt lat="43.4788456" lon="11.39502"><ele>422.33333333333337</ele><time>2026-03-22T11:03:22.899Z</time></trkpt><trkpt lat="43.4788516" lon="11.3951249"><ele>422.6666666666667</ele><time>2026-03-22T11:03:23.899Z</time></trkpt><trkpt lat="43.4788222" lon="11.3952232"><ele>423.0</ele><time>2026-03-22T11:03:24.899Z</time></trkpt><trkpt lat="43.4787559" lon="11.395294"><ele>420.0</ele><time>2026-03-22T11:03:25.899Z</time></trkpt><trkpt lat="43.4786528" lon="11.395311"><ele>417.0</ele><time>2026-03-22T11:03:26.899Z</time></trkpt><trkpt lat="43.4784962" lon="11.3952378"><ele>414.0</ele><time>2026-03-22T11:03:27.899Z</time></trkpt><trkpt lat="43.478345" lon="11.3951399"><ele>411.0</ele><time>2026-03-22T11:03:28.899Z</time></trkpt><trkpt lat="43.4781967" lon="11.3950506"><ele>411.0</ele><time>2026-03-22T11:03:29.9Z</time></trkpt><trkpt lat="43.4780514" lon="11.3949704"><ele>411.0</ele><time>2026-03-22T11:03:30.899Z</time></trkpt><trkpt lat="43.4779113" lon="11.3948979"><ele>411.0</ele><time>2026-03-22T11:03:31.899Z</time></trkpt><trkpt lat="43.4777824" lon="11.3948302"><ele>411.0</ele><time>2026-03-22T11:03:32.899Z</time></trkpt><trkpt lat="43.4776622" lon="11.3947603"><ele>409.75</ele><time>2026-03-22T11:03:33.899Z</time></trkpt><trkpt lat="43.4775486" lon="11.3946768"><ele>408.5</ele><time>2026-03-22T11:03:34.899Z</time></trkpt><trkpt lat="43.4774481" lon="11.3945724"><ele>407.25</ele><time>2026-03-22T11:03:35.899Z</time></trkpt><trkpt lat="43.4773466" lon="11.3944663"><ele>406.0</ele><time>2026-03-22T11:03:36.899Z</time></trkpt><trkpt lat="43.4772463" lon="11.3943572"><ele>406.0</ele><time>2026-03-22T11:03:37.899Z</time></trkpt><trkpt lat="43.4771436" lon="11.3942517"><ele>406.0</ele><time>2026-03-22T11:03:38.899Z</time></trkpt><trkpt lat="43.477037" lon="11.3941536"><ele>406.0</ele><time>2026-03-22T11:03:39.899Z</time></trkpt><trkpt lat="43.4769283" lon="11.39406"><ele>406.0</ele><time>2026-03-22T11:03:40.9Z</time></trkpt><trkpt lat="43.4768433" lon="11.3939767"><ele>405.1666666666667</ele><time>2026-03-22T11:03:41.899Z</time></trkpt><trkpt lat="43.4767583" lon="11.39392"><ele>404.33333333333337</ele><time>2026-03-22T11:03:42.899Z</time></trkpt><trkpt lat="43.4766833" lon="11.3938783"><ele>403.5</ele><time>2026-03-22T11:03:43.899Z</time></trkpt><trkpt lat="43.4766217" lon="11.39386"><ele>402.66666666666663</ele><time>2026-03-22T11:03:44.899Z</time></trkpt><trkpt lat="43.47653" lon="11.3938467"><ele>401.8333333333333</ele><time>2026-03-22T11:03:46.899Z</time></trkpt><trkpt lat="43.4764667" lon="11.3938333"><ele>401.0</ele><time>2026-03-22T11:03:50.899Z</time></trkpt><trkpt lat="43.476425" lon="11.3937417"><ele>401.0</ele><time>2026-03-22T11:03:52.899Z</time></trkpt><trkpt lat="43.476425" lon="11.393575"><ele>401.0</ele><time>2026-03-22T11:03:54.899Z</time></trkpt><trkpt lat="43.4764367" lon="11.3934683"><ele>401.0</ele><time>2026-03-22T11:03:55.899Z</time></trkpt><trkpt lat="43.4764683" lon="11.39336"><ele>401.0</ele><time>2026-03-22T11:03:56.899Z</time></trkpt><trkpt lat="43.4765067" lon="11.39325"><ele>401.0</ele><time>2026-03-22T11:03:57.899Z</time></trkpt><trkpt lat="43.476545" lon="11.3931567"><ele>400.99999999999994</ele><time>2026-03-22T11:03:58.899Z</time></trkpt><trkpt lat="43.4765767" lon="11.3930683"><ele>401.0</ele><time>2026-03-22T11:03:59.899Z</time></trkpt><trkpt lat="43.476595" lon="11.3929783"><ele>401.0</ele><time>2026-03-22T11:04:00.899Z</time></trkpt><trkpt lat="43.476575" lon="11.3928233"><ele>401.0</ele><time>2026-03-22T11:04:02.899Z</time></trkpt><trkpt lat="43.47652" lon="11.392775"><ele>400.99999999999994</ele><time>2026-03-22T11:04:03.899Z</time></trkpt><trkpt lat="43.4764567" lon="11.3927333"><ele>401.0</ele><time>2026-03-22T11:04:04.899Z</time></trkpt><trkpt lat="43.4763367" lon="11.3926867"><ele>404.6</ele><time>2026-03-22T11:04:06.899Z</time></trkpt><trkpt lat="43.4762633" lon="11.392695"><ele>408.20000000000005</ele><time>2026-03-22T11:04:07.899Z</time></trkpt><trkpt lat="43.4761767" lon="11.3927183"><ele>411.79999999999995</ele><time>2026-03-22T11:04:08.899Z</time></trkpt><trkpt lat="43.476085" lon="11.3927533"><ele>415.4</ele><time>2026-03-22T11:04:09.899Z</time></trkpt><trkpt lat="43.4759833" lon="11.3927983"><ele>419.0</ele><time>2026-03-22T11:04:10.899Z</time></trkpt><trkpt lat="43.4758817" lon="11.3928333"><ele>419.0</ele><time>2026-03-22T11:04:11.899Z</time></trkpt><trkpt lat="43.4757883" lon="11.3928767"><ele>419.0</ele><time>2026-03-22T11:04:12.899Z</time></trkpt><trkpt lat="43.47569" lon="11.3928967"><ele>419.0</ele><time>2026-03-22T11:04:13.899Z</time></trkpt><trkpt lat="43.4755817" lon="11.3929133"><ele>419.0</ele><time>2026-03-22T11:04:14.899Z</time></trkpt><trkpt lat="43.47547" lon="11.39293"><ele>419.0</ele><time>2026-03-22T11:04:15.899Z</time></trkpt><trkpt lat="43.4753567" lon="11.3929517"><ele>417.5</ele><time>2026-03-22T11:04:16.899Z</time></trkpt><trkpt lat="43.4752417" lon="11.3929667"><ele>416.0</ele><time>2026-03-22T11:04:17.899Z</time></trkpt><trkpt lat="43.4751233" lon="11.3929983"><ele>414.5</ele><time>2026-03-22T11:04:18.899Z</time></trkpt><trkpt lat="43.4750067" lon="11.3930433"><ele>413.0</ele><time>2026-03-22T11:04:19.899Z</time></trkpt><trkpt lat="43.4748967" lon="11.3931"><ele>413.0</ele><time>2026-03-22T11:04:20.899Z</time></trkpt><trkpt lat="43.4747967" lon="11.3931583"><ele>413.0</ele><time>2026-03-22T11:04:21.899Z</time></trkpt><trkpt lat="43.4747033" lon="11.39322"><ele>413.0</ele><time>2026-03-22T11:04:22.899Z</time></trkpt><trkpt lat="43.4746267" lon="11.3932667"><ele>413.0</ele><time>2026-03-22T11:04:23.899Z</time></trkpt><trkpt lat="43.4745483" lon="11.3933183"><ele>413.0</ele><time>2026-03-22T11:04:24.899Z</time></trkpt><trkpt lat="43.47448" lon="11.393355"><ele>414.16666666666663</ele><time>2026-03-22T11:04:25.899Z</time></trkpt><trkpt lat="43.4744167" lon="11.3933883"><ele>415.3333333333333</ele><time>2026-03-22T11:04:26.899Z</time></trkpt><trkpt lat="43.4743233" lon="11.39342"><ele>416.5</ele><time>2026-03-22T11:04:28.899Z</time></trkpt><trkpt lat="43.474255" lon="11.3934367"><ele>417.66666666666663</ele><time>2026-03-22T11:04:30.899Z</time></trkpt><trkpt lat="43.4743633" lon="11.3934267"><ele>418.8333333333333</ele><time>2026-03-22T11:05:05.899Z</time></trkpt><trkpt lat="43.4744433" lon="11.39339"><ele>420.0</ele><time>2026-03-22T11:05:06.899Z</time></trkpt><trkpt lat="43.4745317" lon="11.3933433"><ele>418.6</ele><time>2026-03-22T11:05:07.899Z</time></trkpt><trkpt lat="43.4746067" lon="11.3932867"><ele>417.2</ele><time>2026-03-22T11:05:08.899Z</time></trkpt><trkpt lat="43.47469" lon="11.3932367"><ele>415.79999999999995</ele><time>2026-03-22T11:05:09.899Z</time></trkpt><trkpt lat="43.47478" lon="11.393185"><ele>414.4</ele><time>2026-03-22T11:05:10.899Z</time></trkpt><trkpt lat="43.4748733" lon="11.3931317"><ele>413.0</ele><time>2026-03-22T11:05:11.899Z</time></trkpt><trkpt lat="43.474975" lon="11.3930817"><ele>413.0</ele><time>2026-03-22T11:05:12.899Z</time></trkpt><trkpt lat="43.4750767" lon="11.3930417"><ele>413.0</ele><time>2026-03-22T11:05:13.899Z</time></trkpt><trkpt lat="43.4751667" lon="11.393005"><ele>413.0</ele><time>2026-03-22T11:05:14.899Z</time></trkpt><trkpt lat="43.4752667" lon="11.3929817"><ele>413.0</ele><time>2026-03-22T11:05:15.899Z</time></trkpt><trkpt lat="43.4753683" lon="11.39297"><ele>413.0</ele><time>2026-03-22T11:05:16.899Z</time></trkpt><trkpt lat="43.4754733" lon="11.39296"><ele>414.2</ele><time>2026-03-22T11:05:17.899Z</time></trkpt><trkpt lat="43.4755867" lon="11.3929483"><ele>415.4</ele><time>2026-03-22T11:05:18.899Z</time></trkpt><trkpt lat="43.4756917" lon="11.3929233"><ele>416.59999999999997</ele><time>2026-03-22T11:05:19.899Z</time></trkpt><trkpt lat="43.47579" lon="11.3928967"><ele>417.79999999999995</ele><time>2026-03-22T11:05:20.899Z</time></trkpt><trkpt lat="43.4758767" lon="11.39287"><ele>419.0</ele><time>2026-03-22T11:05:21.899Z</time></trkpt><trkpt lat="43.4759683" lon="11.39284"><ele>418.99999999999994</ele><time>2026-03-22T11:05:22.899Z</time></trkpt><trkpt lat="43.4760567" lon="11.3927967"><ele>419.0</ele><time>2026-03-22T11:05:23.899Z</time></trkpt><trkpt lat="43.4761433" lon="11.3927567"><ele>419.0</ele><time>2026-03-22T11:05:24.899Z</time></trkpt><trkpt lat="43.4762167" lon="11.3927283"><ele>419.0</ele><time>2026-03-22T11:05:25.899Z</time></trkpt><trkpt lat="43.47628" lon="11.3927167"><ele>418.99999999999994</ele><time>2026-03-22T11:05:26.899Z</time></trkpt><trkpt lat="43.4763867" lon="11.3927017"><ele>419.0</ele><time>2026-03-22T11:05:28.899Z</time></trkpt><trkpt lat="43.47648" lon="11.39275"><ele>416.79999999999995</ele><time>2026-03-22T11:05:30.899Z</time></trkpt><trkpt lat="43.4765683" lon="11.3928317"><ele>414.59999999999997</ele><time>2026-03-22T11:05:32.899Z</time></trkpt><trkpt lat="43.4766117" lon="11.39297"><ele>412.4</ele><time>2026-03-22T11:05:34.899Z</time></trkpt><trkpt lat="43.4765633" lon="11.3931117"><ele>410.2</ele><time>2026-03-22T11:05:36.899Z</time></trkpt><trkpt lat="43.47652" lon="11.393205"><ele>408.0</ele><time>2026-03-22T11:05:37.899Z</time></trkpt><trkpt lat="43.4764783" lon="11.39332"><ele>406.59999999999997</ele><time>2026-03-22T11:05:38.899Z</time></trkpt><trkpt lat="43.4764467" lon="11.3934317"><ele>405.2</ele><time>2026-03-22T11:05:39.899Z</time></trkpt><trkpt lat="43.47643" lon="11.3935433"><ele>403.8</ele><time>2026-03-22T11:05:40.899Z</time></trkpt><trkpt lat="43.4764283" lon="11.39364"><ele>402.4</ele><time>2026-03-22T11:05:41.899Z</time></trkpt><trkpt lat="43.4764467" lon="11.3938017"><ele>401.0</ele><time>2026-03-22T11:05:43.899Z</time></trkpt><trkpt lat="43.476445" lon="11.3939483"><ele>400.6</ele><time>2026-03-22T11:05:45.899Z</time></trkpt><trkpt lat="43.4763833" lon="11.3941117"><ele>400.20000000000005</ele><time>2026-03-22T11:05:47.899Z</time></trkpt><trkpt lat="43.4763417" lon="11.394235"><ele>399.79999999999995</ele><time>2026-03-22T11:05:48.899Z</time></trkpt><trkpt lat="43.4762983" lon="11.3943683"><ele>399.4</ele><time>2026-03-22T11:05:49.899Z</time></trkpt><trkpt lat="43.476245" lon="11.3944983"><ele>399.0</ele><time>2026-03-22T11:05:50.899Z</time></trkpt><trkpt lat="43.4761733" lon="11.3946033"><ele>400.5</ele><time>2026-03-22T11:05:51.9Z</time></trkpt><trkpt lat="43.4760717" lon="11.3946967"><ele>402.0</ele><time>2026-03-22T11:05:52.899Z</time></trkpt><trkpt lat="43.4759567" lon="11.3947617"><ele>403.5</ele><time>2026-03-22T11:05:53.899Z</time></trkpt><trkpt lat="43.4758333" lon="11.3948117"><ele>405.0</ele><time>2026-03-22T11:05:54.899Z</time></trkpt><trkpt lat="43.475705" lon="11.3948583"><ele>405.0</ele><time>2026-03-22T11:05:55.899Z</time></trkpt><trkpt lat="43.4755817" lon="11.3949083"><ele>405.0</ele><time>2026-03-22T11:05:56.899Z</time></trkpt><trkpt lat="43.4754483" lon="11.3949733"><ele>405.0</ele><time>2026-03-22T11:05:57.899Z</time></trkpt><trkpt lat="43.4753083" lon="11.39505"><ele>405.0</ele><time>2026-03-22T11:05:58.899Z</time></trkpt><trkpt lat="43.475175" lon="11.395125"><ele>405.25</ele><time>2026-03-22T11:05:59.899Z</time></trkpt><trkpt lat="43.4750433" lon="11.3952183"><ele>405.5</ele><time>2026-03-22T11:06:00.899Z</time></trkpt><trkpt lat="43.4749217" lon="11.3953333"><ele>405.75</ele><time>2026-03-22T11:06:01.899Z</time></trkpt><trkpt lat="43.4748017" lon="11.3954633"><ele>406.0</ele><time>2026-03-22T11:06:02.899Z</time></trkpt><trkpt lat="43.4746717" lon="11.395595"><ele>401.6666666666667</ele><time>2026-03-22T11:06:03.899Z</time></trkpt><trkpt lat="43.474545" lon="11.3957333"><ele>397.33333333333337</ele><time>2026-03-22T11:06:04.9Z</time></trkpt><trkpt lat="43.474425" lon="11.3958717"><ele>393.0</ele><time>2026-03-22T11:06:05.899Z</time></trkpt><trkpt lat="43.4743" lon="11.39601"><ele>393.0</ele><time>2026-03-22T11:06:06.899Z</time></trkpt><trkpt lat="43.4741833" lon="11.3961517"><ele>393.0</ele><time>2026-03-22T11:06:07.899Z</time></trkpt><trkpt lat="43.4740533" lon="11.3963017"><ele>393.0</ele><time>2026-03-22T11:06:08.899Z</time></trkpt><trkpt lat="43.4739233" lon="11.3964433"><ele>391.66666666666663</ele><time>2026-03-22T11:06:09.899Z</time></trkpt><trkpt lat="43.4738017" lon="11.396575"><ele>390.3333333333333</ele><time>2026-03-22T11:06:10.899Z</time></trkpt><trkpt lat="43.4736767" lon="11.39671"><ele>389.0</ele><time>2026-03-22T11:06:11.899Z</time></trkpt><trkpt lat="43.4735483" lon="11.39685"><ele>389.0</ele><time>2026-03-22T11:06:12.899Z</time></trkpt><trkpt lat="43.47343" lon="11.3969917"><ele>389.0</ele><time>2026-03-22T11:06:13.899Z</time></trkpt><trkpt lat="43.47332" lon="11.3971333"><ele>389.0</ele><time>2026-03-22T11:06:14.899Z</time></trkpt><trkpt lat="43.4732117" lon="11.397285"><ele>388.0</ele><time>2026-03-22T11:06:15.899Z</time></trkpt><trkpt lat="43.4731033" lon="11.3974383"><ele>387.0</ele><time>2026-03-22T11:06:16.899Z</time></trkpt><trkpt lat="43.4729967" lon="11.397585"><ele>386.0</ele><time>2026-03-22T11:06:17.899Z</time></trkpt><trkpt lat="43.4728867" lon="11.3977133"><ele>386.0</ele><time>2026-03-22T11:06:18.899Z</time></trkpt><trkpt lat="43.4727733" lon="11.39782"><ele>386.0</ele><time>2026-03-22T11:06:19.899Z</time></trkpt><trkpt lat="43.4726517" lon="11.3979133"><ele>386.0</ele><time>2026-03-22T11:06:20.899Z</time></trkpt><trkpt lat="43.4725283" lon="11.39799"><ele>386.0</ele><time>2026-03-22T11:06:21.899Z</time></trkpt><trkpt lat="43.47241" lon="11.3980667"><ele>385.5</ele><time>2026-03-22T11:06:22.899Z</time></trkpt><trkpt lat="43.4723" lon="11.398145"><ele>385.0</ele><time>2026-03-22T11:06:23.899Z</time></trkpt><trkpt lat="43.4722017" lon="11.3982367"><ele>384.5</ele><time>2026-03-22T11:06:24.899Z</time></trkpt><trkpt lat="43.472105" lon="11.3983533"><ele>384.0</ele><time>2026-03-22T11:06:25.899Z</time></trkpt><trkpt lat="43.4720183" lon="11.3984983"><ele>384.0</ele><time>2026-03-22T11:06:26.9Z</time></trkpt><trkpt lat="43.4719417" lon="11.398645"><ele>384.0</ele><time>2026-03-22T11:06:27.899Z</time></trkpt><trkpt lat="43.47187" lon="11.3988017"><ele>384.0</ele><time>2026-03-22T11:06:28.899Z</time></trkpt><trkpt lat="43.4718" lon="11.3989633"><ele>384.0</ele><time>2026-03-22T11:06:29.899Z</time></trkpt><trkpt lat="43.4717417" lon="11.3991183"><ele>384.75</ele><time>2026-03-22T11:06:30.899Z</time></trkpt><trkpt lat="43.4716767" lon="11.39929"><ele>385.5</ele><time>2026-03-22T11:06:31.899Z</time></trkpt><trkpt lat="43.4716" lon="11.3994633"><ele>386.25</ele><time>2026-03-22T11:06:32.899Z</time></trkpt><trkpt lat="43.4715233" lon="11.39963"><ele>387.0</ele><time>2026-03-22T11:06:33.899Z</time></trkpt><trkpt lat="43.47145" lon="11.3998"><ele>388.75</ele><time>2026-03-22T11:06:34.899Z</time></trkpt><trkpt lat="43.47138" lon="11.3999717"><ele>390.5</ele><time>2026-03-22T11:06:35.899Z</time></trkpt><trkpt lat="43.4713133" lon="11.4001467"><ele>392.25</ele><time>2026-03-22T11:06:36.899Z</time></trkpt><trkpt lat="43.47125" lon="11.4003133"><ele>394.0</ele><time>2026-03-22T11:06:37.899Z</time></trkpt><trkpt lat="43.4711733" lon="11.40049"><ele>390.6666666666667</ele><time>2026-03-22T11:06:38.9Z</time></trkpt><trkpt lat="43.4710833" lon="11.4006617"><ele>387.33333333333337</ele><time>2026-03-22T11:06:39.899Z</time></trkpt><trkpt lat="43.4709783" lon="11.4008167"><ele>384.0</ele><time>2026-03-22T11:06:40.899Z</time></trkpt><trkpt lat="43.4708567" lon="11.4009533"><ele>384.0</ele><time>2026-03-22T11:06:41.899Z</time></trkpt><trkpt lat="43.4707417" lon="11.4010617"><ele>384.0</ele><time>2026-03-22T11:06:42.899Z</time></trkpt><trkpt lat="43.4706183" lon="11.401175"><ele>384.0</ele><time>2026-03-22T11:06:43.899Z</time></trkpt><trkpt lat="43.47048" lon="11.4012717"><ele>384.0</ele><time>2026-03-22T11:06:44.899Z</time></trkpt><trkpt lat="43.4703367" lon="11.4013633"><ele>384.0</ele><time>2026-03-22T11:06:45.899Z</time></trkpt><trkpt lat="43.4701967" lon="11.4014667"><ele>384.0</ele><time>2026-03-22T11:06:46.899Z</time></trkpt><trkpt lat="43.4700583" lon="11.4015733"><ele>384.0</ele><time>2026-03-22T11:06:47.899Z</time></trkpt><trkpt lat="43.469915" lon="11.4016917"><ele>384.0</ele><time>2026-03-22T11:06:48.899Z</time></trkpt><trkpt lat="43.4697683" lon="11.4018083"><ele>384.0</ele><time>2026-03-22T11:06:49.899Z</time></trkpt><trkpt lat="43.4696217" lon="11.4019233"><ele>384.0</ele><time>2026-03-22T11:06:50.899Z</time></trkpt><trkpt lat="43.46947" lon="11.4020367"><ele>384.33333333333337</ele><time>2026-03-22T11:06:51.899Z</time></trkpt><trkpt lat="43.4693233" lon="11.402115"><ele>384.6666666666667</ele><time>2026-03-22T11:06:52.899Z</time></trkpt><trkpt lat="43.4691667" lon="11.4021483"><ele>385.0</ele><time>2026-03-22T11:06:53.899Z</time></trkpt><trkpt lat="43.4690133" lon="11.4021783"><ele>385.0</ele><time>2026-03-22T11:06:54.899Z</time></trkpt><trkpt lat="43.4688783" lon="11.4022283"><ele>385.0</ele><time>2026-03-22T11:06:55.899Z</time></trkpt><trkpt lat="43.4687367" lon="11.4023083"><ele>385.0</ele><time>2026-03-22T11:06:56.899Z</time></trkpt><trkpt lat="43.4686" lon="11.4024133"><ele>385.0</ele><time>2026-03-22T11:06:57.899Z</time></trkpt><trkpt lat="43.4684833" lon="11.4025383"><ele>383.33333333333337</ele><time>2026-03-22T11:06:58.899Z</time></trkpt><trkpt lat="43.4683683" lon="11.4026867"><ele>381.6666666666667</ele><time>2026-03-22T11:06:59.899Z</time></trkpt><trkpt lat="43.4682483" lon="11.402835"><ele>380.0</ele><time>2026-03-22T11:07:00.899Z</time></trkpt><trkpt lat="43.4681317" lon="11.403"><ele>380.0</ele><time>2026-03-22T11:07:01.899Z</time></trkpt><trkpt lat="43.4680133" lon="11.4031533"><ele>380.0</ele><time>2026-03-22T11:07:02.899Z</time></trkpt><trkpt lat="43.46791" lon="11.403305"><ele>380.0</ele><time>2026-03-22T11:07:03.899Z</time></trkpt><trkpt lat="43.467795" lon="11.4034717"><ele>377.33333333333337</ele><time>2026-03-22T11:07:04.899Z</time></trkpt><trkpt lat="43.4676867" lon="11.4036367"><ele>374.6666666666667</ele><time>2026-03-22T11:07:05.899Z</time></trkpt><trkpt lat="43.46757" lon="11.4038"><ele>372.0</ele><time>2026-03-22T11:07:06.9Z</time></trkpt><trkpt lat="43.4674567" lon="11.40396"><ele>372.0</ele><time>2026-03-22T11:07:07.899Z</time></trkpt><trkpt lat="43.46735" lon="11.40413"><ele>372.0</ele><time>2026-03-22T11:07:08.899Z</time></trkpt><trkpt lat="43.467235" lon="11.404295"><ele>372.0</ele><time>2026-03-22T11:07:09.899Z</time></trkpt><trkpt lat="43.4671167" lon="11.404465"><ele>370.3333333333333</ele><time>2026-03-22T11:07:10.9Z</time></trkpt><trkpt lat="43.466995" lon="11.4046283"><ele>368.66666666666663</ele><time>2026-03-22T11:07:11.899Z</time></trkpt><trkpt lat="43.46688" lon="11.4048033"><ele>367.0</ele><time>2026-03-22T11:07:12.899Z</time></trkpt><trkpt lat="43.4667583" lon="11.4049567"><ele>367.0</ele><time>2026-03-22T11:07:13.899Z</time></trkpt><trkpt lat="43.4666483" lon="11.40512"><ele>367.0</ele><time>2026-03-22T11:07:14.899Z</time></trkpt><trkpt lat="43.4665317" lon="11.405275"><ele>367.0</ele><time>2026-03-22T11:07:15.899Z</time></trkpt><trkpt lat="43.4664217" lon="11.405445"><ele>368.3333333333333</ele><time>2026-03-22T11:07:16.899Z</time></trkpt><trkpt lat="43.4663067" lon="11.405615"><ele>369.6666666666667</ele><time>2026-03-22T11:07:17.899Z</time></trkpt><trkpt lat="43.4662" lon="11.40579"><ele>371.0</ele><time>2026-03-22T11:07:18.899Z</time></trkpt><trkpt lat="43.4661" lon="11.405945"><ele>367.6666666666667</ele><time>2026-03-22T11:07:19.899Z</time></trkpt><trkpt lat="43.466" lon="11.40611"><ele>364.3333333333333</ele><time>2026-03-22T11:07:20.899Z</time></trkpt><trkpt lat="43.4659017" lon="11.4062733"><ele>361.0</ele><time>2026-03-22T11:07:21.899Z</time></trkpt><trkpt lat="43.4658083" lon="11.406445"><ele>360.66666666666663</ele><time>2026-03-22T11:07:22.899Z</time></trkpt><trkpt lat="43.465725" lon="11.4066367"><ele>360.3333333333333</ele><time>2026-03-22T11:07:23.9Z</time></trkpt><trkpt lat="43.4656317" lon="11.40683"><ele>360.0</ele><time>2026-03-22T11:07:24.899Z</time></trkpt><trkpt lat="43.4655483" lon="11.4070217"><ele>360.0</ele><time>2026-03-22T11:07:25.899Z</time></trkpt><trkpt lat="43.465475" lon="11.4072117"><ele>360.0</ele><time>2026-03-22T11:07:26.899Z</time></trkpt><trkpt lat="43.465395" lon="11.407395"><ele>360.0</ele><time>2026-03-22T11:07:27.899Z</time></trkpt><trkpt lat="43.465315" lon="11.4075683"><ele>360.5</ele><time>2026-03-22T11:07:28.899Z</time></trkpt><trkpt lat="43.46524" lon="11.4077233"><ele>361.0</ele><time>2026-03-22T11:07:29.899Z</time></trkpt><trkpt lat="43.46515" lon="11.4078517"><ele>361.5</ele><time>2026-03-22T11:07:30.899Z</time></trkpt><trkpt lat="43.4650467" lon="11.40795"><ele>362.0</ele><time>2026-03-22T11:07:31.899Z</time></trkpt><trkpt lat="43.4649267" lon="11.4080283"><ele>362.0</ele><time>2026-03-22T11:07:32.9Z</time></trkpt><trkpt lat="43.4648" lon="11.408075"><ele>362.0</ele><time>2026-03-22T11:07:33.899Z</time></trkpt><trkpt lat="43.4646717" lon="11.40815"><ele>362.0</ele><time>2026-03-22T11:07:34.899Z</time></trkpt><trkpt lat="43.4645667" lon="11.40824"><ele>362.0</ele><time>2026-03-22T11:07:35.899Z</time></trkpt><trkpt lat="43.4644633" lon="11.4083533"><ele>360.5</ele><time>2026-03-22T11:07:36.899Z</time></trkpt><trkpt lat="43.4643733" lon="11.4085"><ele>359.0</ele><time>2026-03-22T11:07:37.899Z</time></trkpt><trkpt lat="43.464305" lon="11.408675"><ele>357.5</ele><time>2026-03-22T11:07:38.899Z</time></trkpt><trkpt lat="43.46426" lon="11.4088417"><ele>356.0</ele><time>2026-03-22T11:07:39.899Z</time></trkpt><trkpt lat="43.4642333" lon="11.408975"><ele>356.0</ele><time>2026-03-22T11:07:40.899Z</time></trkpt><trkpt lat="43.464215" lon="11.4090833"><ele>356.0</ele><time>2026-03-22T11:07:41.899Z</time></trkpt><trkpt lat="43.4641833" lon="11.4092117"><ele>356.0</ele><time>2026-03-22T11:07:43.899Z</time></trkpt><trkpt lat="43.4641217" lon="11.4092433"><ele>356.0</ele><time>2026-03-22T11:07:45.899Z</time></trkpt><trkpt lat="43.4640583" lon="11.4091833"><ele>356.0</ele><time>2026-03-22T11:07:47.899Z</time></trkpt><trkpt lat="43.46401" lon="11.4090383"><ele>356.0</ele><time>2026-03-22T11:07:49.899Z</time></trkpt><trkpt lat="43.46396" lon="11.408905"><ele>355.83333333333337</ele><time>2026-03-22T11:07:51.899Z</time></trkpt><trkpt lat="43.4638883" lon="11.4087867"><ele>355.6666666666667</ele><time>2026-03-22T11:07:53.899Z</time></trkpt><trkpt lat="43.46384" lon="11.40873"><ele>355.5</ele><time>2026-03-22T11:07:54.899Z</time></trkpt><trkpt lat="43.4637917" lon="11.4086667"><ele>355.3333333333333</ele><time>2026-03-22T11:07:55.899Z</time></trkpt><trkpt lat="43.4637367" lon="11.4085767"><ele>355.16666666666663</ele><time>2026-03-22T11:07:56.899Z</time></trkpt><trkpt lat="43.4636783" lon="11.408475"><ele>355.0</ele><time>2026-03-22T11:07:57.899Z</time></trkpt><trkpt lat="43.4636183" lon="11.408375"><ele>356.0</ele><time>2026-03-22T11:07:58.899Z</time></trkpt><trkpt lat="43.46355" lon="11.4082767"><ele>357.0</ele><time>2026-03-22T11:07:59.899Z</time></trkpt><trkpt lat="43.463475" lon="11.40818"><ele>358.0</ele><time>2026-03-22T11:08:00.899Z</time></trkpt><trkpt lat="43.4634117" lon="11.40808"><ele>359.0</ele><time>2026-03-22T11:08:01.899Z</time></trkpt><trkpt lat="43.4633467" lon="11.4079883"><ele>360.0</ele><time>2026-03-22T11:08:02.899Z</time></trkpt><trkpt lat="43.463275" lon="11.4079017"><ele>361.25</ele><time>2026-03-22T11:08:03.899Z</time></trkpt><trkpt lat="43.4632017" lon="11.4078167"><ele>362.5</ele><time>2026-03-22T11:08:04.9Z</time></trkpt><trkpt lat="43.4630617" lon="11.40764"><ele>363.75</ele><time>2026-03-22T11:08:06.899Z</time></trkpt><trkpt lat="43.4629967" lon="11.4075617"><ele>365.0</ele><time>2026-03-22T11:08:07.899Z</time></trkpt><trkpt lat="43.4629333" lon="11.4074833"><ele>366.7142857142857</ele><time>2026-03-22T11:08:08.899Z</time></trkpt><trkpt lat="43.462885" lon="11.40741"><ele>368.42857142857144</ele><time>2026-03-22T11:08:09.899Z</time></trkpt><trkpt lat="43.4628367" lon="11.4073333"><ele>370.1428571428571</ele><time>2026-03-22T11:08:10.899Z</time></trkpt><trkpt lat="43.4627817" lon="11.40728"><ele>371.8571428571429</ele><time>2026-03-22T11:08:11.899Z</time></trkpt><trkpt lat="43.462725" lon="11.4072267"><ele>373.57142857142856</ele><time>2026-03-22T11:08:12.899Z</time></trkpt><trkpt lat="43.462665" lon="11.4071517"><ele>375.2857142857143</ele><time>2026-03-22T11:08:13.899Z</time></trkpt><trkpt lat="43.4626017" lon="11.4070733"><ele>377.0</ele><time>2026-03-22T11:08:14.899Z</time></trkpt><trkpt lat="43.46255" lon="11.406985"><ele>378.1666666666667</ele><time>2026-03-22T11:08:15.899Z</time></trkpt><trkpt lat="43.462485" lon="11.406905"><ele>379.33333333333337</ele><time>2026-03-22T11:08:16.899Z</time></trkpt><trkpt lat="43.46242" lon="11.40684"><ele>380.5</ele><time>2026-03-22T11:08:17.899Z</time></trkpt><trkpt lat="43.46234" lon="11.40679"><ele>381.6666666666667</ele><time>2026-03-22T11:08:18.899Z</time></trkpt><trkpt lat="43.4622567" lon="11.4067617"><ele>382.8333333333333</ele><time>2026-03-22T11:08:19.899Z</time></trkpt><trkpt lat="43.4621767" lon="11.4067483"><ele>384.0</ele><time>2026-03-22T11:08:20.899Z</time></trkpt><trkpt lat="43.4620883" lon="11.4067433"><ele>387.0</ele><time>2026-03-22T11:08:21.899Z</time></trkpt><trkpt lat="43.4620017" lon="11.406745"><ele>390.0</ele><time>2026-03-22T11:08:22.899Z</time></trkpt><trkpt lat="43.4619167" lon="11.4067583"><ele>393.0</ele><time>2026-03-22T11:08:23.899Z</time></trkpt><trkpt lat="43.4618283" lon="11.4067617"><ele>396.0</ele><time>2026-03-22T11:08:24.899Z</time></trkpt><trkpt lat="43.4617317" lon="11.4067633"><ele>399.0</ele><time>2026-03-22T11:08:25.899Z</time></trkpt><trkpt lat="43.4616333" lon="11.4067617"><ele>399.0</ele><time>2026-03-22T11:08:26.899Z</time></trkpt><trkpt lat="43.4615367" lon="11.406775"><ele>399.0</ele><time>2026-03-22T11:08:27.9Z</time></trkpt><trkpt lat="43.4614367" lon="11.4067883"><ele>399.0</ele><time>2026-03-22T11:08:28.899Z</time></trkpt><trkpt lat="43.4613383" lon="11.4068017"><ele>399.0</ele><time>2026-03-22T11:08:29.9Z</time></trkpt><trkpt lat="43.461265" lon="11.4068183"><ele>399.0</ele><time>2026-03-22T11:08:30.899Z</time></trkpt><trkpt lat="43.4612" lon="11.4068333"><ele>399.0</ele><time>2026-03-22T11:08:31.899Z</time></trkpt><trkpt lat="43.46112" lon="11.4068167"><ele>402.5</ele><time>2026-03-22T11:08:33.899Z</time></trkpt><trkpt lat="43.4610583" lon="11.4067283"><ele>406.0</ele><time>2026-03-22T11:08:36.9Z</time></trkpt><trkpt lat="43.4610833" lon="11.4066033"><ele>409.5</ele><time>2026-03-22T11:08:38.899Z</time></trkpt><trkpt lat="43.4611133" lon="11.40651"><ele>413.0</ele><time>2026-03-22T11:08:39.899Z</time></trkpt><trkpt lat="43.4611417" lon="11.40639"><ele>416.5</ele><time>2026-03-22T11:08:40.899Z</time></trkpt><trkpt lat="43.461165" lon="11.4062683"><ele>420.0</ele><time>2026-03-22T11:08:41.899Z</time></trkpt><trkpt lat="43.46118" lon="11.40614"><ele>422.4</ele><time>2026-03-22T11:08:42.899Z</time></trkpt><trkpt lat="43.4611883" lon="11.4060233"><ele>424.8</ele><time>2026-03-22T11:08:43.899Z</time></trkpt><trkpt lat="43.4611833" lon="11.4059017"><ele>427.20000000000005</ele><time>2026-03-22T11:08:44.899Z</time></trkpt><trkpt lat="43.4611517" lon="11.40578"><ele>429.6</ele><time>2026-03-22T11:08:45.899Z</time></trkpt><trkpt lat="43.4611117" lon="11.405665"><ele>432.0</ele><time>2026-03-22T11:08:46.899Z</time></trkpt><trkpt lat="43.4610567" lon="11.4055467"><ele>432.40000000000003</ele><time>2026-03-22T11:08:47.899Z</time></trkpt><trkpt lat="43.46099" lon="11.405425"><ele>432.80000000000007</ele><time>2026-03-22T11:08:48.899Z</time></trkpt><trkpt lat="43.4609183" lon="11.4053"><ele>433.2</ele><time>2026-03-22T11:08:49.899Z</time></trkpt><trkpt lat="43.4608517" lon="11.40518"><ele>433.6</ele><time>2026-03-22T11:08:50.899Z</time></trkpt><trkpt lat="43.4607933" lon="11.4050583"><ele>434.0</ele><time>2026-03-22T11:08:51.899Z</time></trkpt><trkpt lat="43.46072" lon="11.40494"><ele>434.0</ele><time>2026-03-22T11:08:52.899Z</time></trkpt><trkpt lat="43.4606583" lon="11.40483"><ele>434.0</ele><time>2026-03-22T11:08:53.899Z</time></trkpt><trkpt lat="43.4605933" lon="11.4047183"><ele>434.0</ele><time>2026-03-22T11:08:54.899Z</time></trkpt><trkpt lat="43.460545" lon="11.404605"><ele>434.0</ele><time>2026-03-22T11:08:55.899Z</time></trkpt><trkpt lat="43.460505" lon="11.4044917"><ele>434.0</ele><time>2026-03-22T11:08:56.899Z</time></trkpt><trkpt lat="43.4604817" lon="11.4043717"><ele>435.3333333333333</ele><time>2026-03-22T11:08:57.899Z</time></trkpt><trkpt lat="43.46048" lon="11.4042383"><ele>436.66666666666663</ele><time>2026-03-22T11:08:58.899Z</time></trkpt><trkpt lat="43.460495" lon="11.4041267"><ele>438.0</ele><time>2026-03-22T11:08:59.899Z</time></trkpt><trkpt lat="43.4605333" lon="11.40404"><ele>439.33333333333337</ele><time>2026-03-22T11:09:00.899Z</time></trkpt><trkpt lat="43.4605983" lon="11.4039733"><ele>440.6666666666667</ele><time>2026-03-22T11:09:01.899Z</time></trkpt><trkpt lat="43.460685" lon="11.4039033"><ele>442.0</ele><time>2026-03-22T11:09:02.9Z</time></trkpt><trkpt lat="43.4607667" lon="11.4038317"><ele>447.25</ele><time>2026-03-22T11:09:03.899Z</time></trkpt><trkpt lat="43.460855" lon="11.403765"><ele>452.5</ele><time>2026-03-22T11:09:04.899Z</time></trkpt><trkpt lat="43.4609417" lon="11.4036817"><ele>457.75</ele><time>2026-03-22T11:09:05.899Z</time></trkpt><trkpt lat="43.4610433" lon="11.4035817"><ele>463.0</ele><time>2026-03-22T11:09:06.899Z</time></trkpt><trkpt lat="43.4611417" lon="11.40349"><ele>463.0</ele><time>2026-03-22T11:09:07.899Z</time></trkpt><trkpt lat="43.4612283" lon="11.403385"><ele>463.0</ele><time>2026-03-22T11:09:08.899Z</time></trkpt><trkpt lat="43.4613183" lon="11.4033"><ele>463.0</ele><time>2026-03-22T11:09:09.899Z</time></trkpt><trkpt lat="43.4614167" lon="11.40321"><ele>463.0</ele><time>2026-03-22T11:09:10.899Z</time></trkpt><trkpt lat="43.4615167" lon="11.40314"><ele>463.50000000000006</ele><time>2026-03-22T11:09:11.899Z</time></trkpt><trkpt lat="43.461605" lon="11.403095"><ele>464.0</ele><time>2026-03-22T11:09:12.899Z</time></trkpt><trkpt lat="43.4616833" lon="11.40304"><ele>464.5</ele><time>2026-03-22T11:09:13.9Z</time></trkpt><trkpt lat="43.4617433" lon="11.4029983"><ele>465.0</ele><time>2026-03-22T11:09:14.899Z</time></trkpt><trkpt lat="43.461795" lon="11.4029467"><ele>465.50000000000006</ele><time>2026-03-22T11:09:15.899Z</time></trkpt><trkpt lat="43.4618367" lon="11.4028733"><ele>466.0</ele><time>2026-03-22T11:09:16.899Z</time></trkpt><trkpt lat="43.4618633" lon="11.4027833"><ele>466.0</ele><time>2026-03-22T11:09:17.899Z</time></trkpt><trkpt lat="43.4618683" lon="11.40269"><ele>466.0</ele><time>2026-03-22T11:09:18.899Z</time></trkpt><trkpt lat="43.4618633" lon="11.402565"><ele>466.0</ele><time>2026-03-22T11:09:19.899Z</time></trkpt><trkpt lat="43.4618583" lon="11.4024333"><ele>466.0</ele><time>2026-03-22T11:09:20.899Z</time></trkpt><trkpt lat="43.46187" lon="11.4022917"><ele>466.0</ele><time>2026-03-22T11:09:21.899Z</time></trkpt><trkpt lat="43.461905" lon="11.402125"><ele>467.6</ele><time>2026-03-22T11:09:22.899Z</time></trkpt><trkpt lat="43.4619433" lon="11.4019667"><ele>469.20000000000005</ele><time>2026-03-22T11:09:23.9Z</time></trkpt><trkpt lat="43.4619667" lon="11.401825"><ele>470.79999999999995</ele><time>2026-03-22T11:09:24.899Z</time></trkpt><trkpt lat="43.4620017" lon="11.4016933"><ele>472.4</ele><time>2026-03-22T11:09:25.899Z</time></trkpt><trkpt lat="43.462015" lon="11.4015917"><ele>474.0</ele><time>2026-03-22T11:09:26.899Z</time></trkpt><trkpt lat="43.462015" lon="11.4015033"><ele>474.0</ele><time>2026-03-22T11:09:27.899Z</time></trkpt><trkpt lat="43.4619933" lon="11.4013917"><ele>474.0</ele><time>2026-03-22T11:09:28.9Z</time></trkpt><trkpt lat="43.4619467" lon="11.40127"><ele>474.0</ele><time>2026-03-22T11:09:29.899Z</time></trkpt><trkpt lat="43.461835" lon="11.4010467"><ele>474.0</ele><time>2026-03-22T11:09:31.899Z</time></trkpt><trkpt lat="43.4617783" lon="11.40093"><ele>475.2</ele><time>2026-03-22T11:09:32.899Z</time></trkpt><trkpt lat="43.461735" lon="11.4008"><ele>476.4</ele><time>2026-03-22T11:09:33.899Z</time></trkpt><trkpt lat="43.4617117" lon="11.4006633"><ele>477.6</ele><time>2026-03-22T11:09:34.899Z</time></trkpt><trkpt lat="43.4617067" lon="11.400525"><ele>478.8</ele><time>2026-03-22T11:09:35.899Z</time></trkpt><trkpt lat="43.46172" lon="11.4003883"><ele>480.0</ele><time>2026-03-22T11:09:36.899Z</time></trkpt><trkpt lat="43.4617417" lon="11.4002533"><ele>482.25</ele><time>2026-03-22T11:09:37.899Z</time></trkpt><trkpt lat="43.4617817" lon="11.4001183"><ele>484.5</ele><time>2026-03-22T11:09:38.899Z</time></trkpt><trkpt lat="43.4618267" lon="11.399985"><ele>486.75</ele><time>2026-03-22T11:09:39.899Z</time></trkpt><trkpt lat="43.4618917" lon="11.3998367"><ele>489.0</ele><time>2026-03-22T11:09:40.899Z</time></trkpt><trkpt lat="43.4619667" lon="11.3996967"><ele>487.5</ele><time>2026-03-22T11:09:41.899Z</time></trkpt><trkpt lat="43.46204" lon="11.3995567"><ele>486.0</ele><time>2026-03-22T11:09:42.899Z</time></trkpt><trkpt lat="43.4622867" lon="11.3991417"><ele>486.0</ele><time>2026-03-22T11:09:45.899Z</time></trkpt><trkpt lat="43.4623417" lon="11.3990283"><ele>486.0</ele><time>2026-03-22T11:09:46.899Z</time></trkpt><trkpt lat="43.4624017" lon="11.3989133"><ele>486.0</ele><time>2026-03-22T11:09:47.899Z</time></trkpt><trkpt lat="43.4624467" lon="11.39881"><ele>486.0</ele><time>2026-03-22T11:09:48.9Z</time></trkpt><trkpt lat="43.4624833" lon="11.3986967"><ele>486.0</ele><time>2026-03-22T11:09:49.899Z</time></trkpt><trkpt lat="43.4625083" lon="11.39858"><ele>489.20000000000005</ele><time>2026-03-22T11:09:50.899Z</time></trkpt><trkpt lat="43.4625383" lon="11.3984583"><ele>492.40000000000003</ele><time>2026-03-22T11:09:51.899Z</time></trkpt><trkpt lat="43.4625683" lon="11.3983317"><ele>495.6</ele><time>2026-03-22T11:09:52.899Z</time></trkpt><trkpt lat="43.4625933" lon="11.3982033"><ele>498.8</ele><time>2026-03-22T11:09:53.899Z</time></trkpt><trkpt lat="43.4626233" lon="11.3980617"><ele>502.0</ele><time>2026-03-22T11:09:54.899Z</time></trkpt><trkpt lat="43.4626433" lon="11.39791"><ele>504.25</ele><time>2026-03-22T11:09:55.899Z</time></trkpt><trkpt lat="43.4626633" lon="11.3977433"><ele>506.5</ele><time>2026-03-22T11:09:56.899Z</time></trkpt><trkpt lat="43.46269" lon="11.39757"><ele>508.75</ele><time>2026-03-22T11:09:57.9Z</time></trkpt><trkpt lat="43.46272" lon="11.3974067"><ele>511.0</ele><time>2026-03-22T11:09:58.899Z</time></trkpt><trkpt lat="43.4627583" lon="11.397235"><ele>512.25</ele><time>2026-03-22T11:09:59.899Z</time></trkpt><trkpt lat="43.462785" lon="11.3970683"><ele>513.5</ele><time>2026-03-22T11:10:00.899Z</time></trkpt><trkpt lat="43.4628067" lon="11.396915"><ele>514.75</ele><time>2026-03-22T11:10:01.899Z</time></trkpt><trkpt lat="43.4628283" lon="11.3967633"><ele>516.0</ele><time>2026-03-22T11:10:02.899Z</time></trkpt><trkpt lat="43.4628483" lon="11.3966167"><ele>516.0</ele><time>2026-03-22T11:10:03.899Z</time></trkpt><trkpt lat="43.46287" lon="11.3964817"><ele>516.0</ele><time>2026-03-22T11:10:04.899Z</time></trkpt><trkpt lat="43.4628833" lon="11.3963717"><ele>516.0</ele><time>2026-03-22T11:10:05.899Z</time></trkpt><trkpt lat="43.4629" lon="11.3962733"><ele>516.0</ele><time>2026-03-22T11:10:06.9Z</time></trkpt><trkpt lat="43.462945" lon="11.3961283"><ele>516.0</ele><time>2026-03-22T11:10:08.899Z</time></trkpt><trkpt lat="43.4629833" lon="11.3960233"><ele>516.0</ele><time>2026-03-22T11:10:10.899Z</time></trkpt><trkpt lat="43.463025" lon="11.3958917"><ele>516.0</ele><time>2026-03-22T11:10:12.899Z</time></trkpt><trkpt lat="43.463075" lon="11.395745"><ele>516.0</ele><time>2026-03-22T11:10:14.899Z</time></trkpt><trkpt lat="43.4631083" lon="11.3956583"><ele>516.0</ele><time>2026-03-22T11:10:15.899Z</time></trkpt><trkpt lat="43.46314" lon="11.395555"><ele>516.0</ele><time>2026-03-22T11:10:16.899Z</time></trkpt><trkpt lat="43.463175" lon="11.3954583"><ele>516.0</ele><time>2026-03-22T11:10:17.899Z</time></trkpt><trkpt lat="43.4632167" lon="11.3953633"><ele>516.0</ele><time>2026-03-22T11:10:18.899Z</time></trkpt><trkpt lat="43.463265" lon="11.3952717"><ele>516.0</ele><time>2026-03-22T11:10:19.899Z</time></trkpt><trkpt lat="43.4633083" lon="11.395175"><ele>516.0</ele><time>2026-03-22T11:10:20.899Z</time></trkpt><trkpt lat="43.46336" lon="11.3951"><ele>516.0</ele><time>2026-03-22T11:10:21.899Z</time></trkpt><trkpt lat="43.463415" lon="11.3950167"><ele>516.0</ele><time>2026-03-22T11:10:22.899Z</time></trkpt><trkpt lat="43.46347" lon="11.3949367"><ele>516.0</ele><time>2026-03-22T11:10:23.899Z</time></trkpt><trkpt lat="43.4635283" lon="11.3948667"><ele>516.0</ele><time>2026-03-22T11:10:24.899Z</time></trkpt><trkpt lat="43.4635867" lon="11.3947867"><ele>516.0</ele><time>2026-03-22T11:10:25.899Z</time></trkpt><trkpt lat="43.4636367" lon="11.3947"><ele>516.0</ele><time>2026-03-22T11:10:26.899Z</time></trkpt><trkpt lat="43.46368" lon="11.3946067"><ele>516.0</ele><time>2026-03-22T11:10:27.899Z</time></trkpt><trkpt lat="43.463715" lon="11.3945167"><ele>516.0</ele><time>2026-03-22T11:10:28.899Z</time></trkpt><trkpt lat="43.4637533" lon="11.394425"><ele>516.9999999999999</ele><time>2026-03-22T11:10:29.899Z</time></trkpt><trkpt lat="43.463795" lon="11.39435"><ele>518.0</ele><time>2026-03-22T11:10:30.899Z</time></trkpt><trkpt lat="43.4638383" lon="11.3942767"><ele>519.0</ele><time>2026-03-22T11:10:31.899Z</time></trkpt><trkpt lat="43.46388" lon="11.3942033"><ele>520.0</ele><time>2026-03-22T11:10:32.899Z</time></trkpt><trkpt lat="43.4639183" lon="11.39412"><ele>521.0</ele><time>2026-03-22T11:10:33.899Z</time></trkpt><trkpt lat="43.4639533" lon="11.39404"><ele>521.9999999999999</ele><time>2026-03-22T11:10:34.899Z</time></trkpt><trkpt lat="43.4640067" lon="11.3939633"><ele>523.0</ele><time>2026-03-22T11:10:35.899Z</time></trkpt><trkpt lat="43.464055" lon="11.3938867"><ele>522.4</ele><time>2026-03-22T11:10:36.899Z</time></trkpt><trkpt lat="43.4641183" lon="11.393735"><ele>521.8</ele><time>2026-03-22T11:10:38.899Z</time></trkpt><trkpt lat="43.4641417" lon="11.39365"><ele>521.2</ele><time>2026-03-22T11:10:39.899Z</time></trkpt><trkpt lat="43.4641667" lon="11.393565"><ele>520.6</ele><time>2026-03-22T11:10:40.899Z</time></trkpt><trkpt lat="43.464195" lon="11.3934133"><ele>520.0</ele><time>2026-03-22T11:10:42.899Z</time></trkpt><trkpt lat="43.4642117" lon="11.3932967"><ele>520.0</ele><time>2026-03-22T11:10:44.899Z</time></trkpt><trkpt lat="43.4642367" lon="11.393175"><ele>520.0</ele><time>2026-03-22T11:10:46.899Z</time></trkpt><trkpt lat="43.46429" lon="11.3930917"><ele>520.0</ele><time>2026-03-22T11:10:48.899Z</time></trkpt><trkpt lat="43.4643667" lon="11.39309"><ele>520.0</ele><time>2026-03-22T11:10:50.899Z</time></trkpt><trkpt lat="43.4644383" lon="11.3931167"><ele>520.0</ele><time>2026-03-22T11:10:52.899Z</time></trkpt><trkpt lat="43.4645217" lon="11.3931383"><ele>520.0</ele><time>2026-03-22T11:10:54.899Z</time></trkpt><trkpt lat="43.46462" lon="11.393175"><ele>517.25</ele><time>2026-03-22T11:10:56.899Z</time></trkpt><trkpt lat="43.4647267" lon="11.3932167"><ele>514.5</ele><time>2026-03-22T11:10:58.899Z</time></trkpt><trkpt lat="43.4648367" lon="11.3932733"><ele>511.75</ele><time>2026-03-22T11:11:00.899Z</time></trkpt><trkpt lat="43.4649567" lon="11.39331"><ele>509.0</ele><time>2026-03-22T11:11:02.899Z</time></trkpt><trkpt lat="43.4650817" lon="11.39335"><ele>509.0</ele><time>2026-03-22T11:11:04.899Z</time></trkpt><trkpt lat="43.4651783" lon="11.3934117"><ele>509.0</ele><time>2026-03-22T11:11:06.899Z</time></trkpt><trkpt lat="43.46528" lon="11.3934583"><ele>509.0</ele><time>2026-03-22T11:11:08.899Z</time></trkpt><trkpt lat="43.4653733" lon="11.393495"><ele>509.0</ele><time>2026-03-22T11:11:10.899Z</time></trkpt><trkpt lat="43.4654633" lon="11.3935133"><ele>509.0</ele><time>2026-03-22T11:11:12.899Z</time></trkpt><trkpt lat="43.4655683" lon="11.39354"><ele>506.79999999999995</ele><time>2026-03-22T11:11:14.899Z</time></trkpt><trkpt lat="43.46567" lon="11.3935467"><ele>504.59999999999997</ele><time>2026-03-22T11:11:16.899Z</time></trkpt><trkpt lat="43.46577" lon="11.39356"><ele>502.4</ele><time>2026-03-22T11:11:18.899Z</time></trkpt><trkpt lat="43.46586" lon="11.3935617"><ele>500.2</ele><time>2026-03-22T11:11:20.899Z</time></trkpt><trkpt lat="43.4659733" lon="11.3935667"><ele>498.0</ele><time>2026-03-22T11:11:22.899Z</time></trkpt><trkpt lat="43.4660717" lon="11.39357"><ele>498.0</ele><time>2026-03-22T11:11:24.899Z</time></trkpt><trkpt lat="43.4661633" lon="11.3935917"><ele>497.99999999999994</ele><time>2026-03-22T11:11:26.899Z</time></trkpt><trkpt lat="43.4662467" lon="11.3936067"><ele>497.99999999999994</ele><time>2026-03-22T11:11:28.899Z</time></trkpt><trkpt lat="43.466335" lon="11.3936233"><ele>498.0</ele><time>2026-03-22T11:11:30.899Z</time></trkpt><trkpt lat="43.4664283" lon="11.3936433"><ele>498.0</ele><time>2026-03-22T11:11:32.899Z</time></trkpt><trkpt lat="43.4665267" lon="11.3936667"><ele>498.5</ele><time>2026-03-22T11:11:34.899Z</time></trkpt><trkpt lat="43.4666217" lon="11.3937017"><ele>499.0</ele><time>2026-03-22T11:11:36.899Z</time></trkpt><trkpt lat="43.4667133" lon="11.39374"><ele>499.5</ele><time>2026-03-22T11:11:38.899Z</time></trkpt><trkpt lat="43.4668" lon="11.3937667"><ele>500.0</ele><time>2026-03-22T11:11:40.899Z</time></trkpt><trkpt lat="43.46687" lon="11.3937983"><ele>500.5</ele><time>2026-03-22T11:11:42.899Z</time></trkpt><trkpt lat="43.466945" lon="11.3938483"><ele>501.0</ele><time>2026-03-22T11:11:44.899Z</time></trkpt><trkpt lat="43.4670217" lon="11.3939233"><ele>501.0</ele><time>2026-03-22T11:11:46.899Z</time></trkpt><trkpt lat="43.467085" lon="11.3939833"><ele>501.0</ele><time>2026-03-22T11:11:48.899Z</time></trkpt><trkpt lat="43.4671633" lon="11.3940183"><ele>501.0</ele><time>2026-03-22T11:11:50.899Z</time></trkpt><trkpt lat="43.4672517" lon="11.3940117"><ele>501.0</ele><time>2026-03-22T11:11:52.899Z</time></trkpt><trkpt lat="43.467335" lon="11.393985"><ele>501.0</ele><time>2026-03-22T11:11:54.899Z</time></trkpt><trkpt lat="43.4674" lon="11.3939283"><ele>501.0</ele><time>2026-03-22T11:11:56.899Z</time></trkpt><trkpt lat="43.4674667" lon="11.393855"><ele>499.4</ele><time>2026-03-22T11:11:58.899Z</time></trkpt><trkpt lat="43.4675283" lon="11.3937883"><ele>497.8</ele><time>2026-03-22T11:12:00.899Z</time></trkpt><trkpt lat="43.46758" lon="11.393705"><ele>496.19999999999993</ele><time>2026-03-22T11:12:02.899Z</time></trkpt><trkpt lat="43.4677067" lon="11.3936517"><ele>494.59999999999997</ele><time>2026-03-22T11:12:15.899Z</time></trkpt><trkpt lat="43.46778" lon="11.393675"><ele>493.0</ele><time>2026-03-22T11:12:17.899Z</time></trkpt><trkpt lat="43.4678817" lon="11.3936667"><ele>492.4</ele><time>2026-03-22T11:12:19.899Z</time></trkpt><trkpt lat="43.46797" lon="11.393595"><ele>491.79999999999995</ele><time>2026-03-22T11:12:21.899Z</time></trkpt><trkpt lat="43.4680533" lon="11.39347"><ele>491.2</ele><time>2026-03-22T11:12:23.899Z</time></trkpt><trkpt lat="43.4681017" lon="11.3934"><ele>490.6</ele><time>2026-03-22T11:12:24.899Z</time></trkpt><trkpt lat="43.4681833" lon="11.3932767"><ele>490.0</ele><time>2026-03-22T11:12:26.899Z</time></trkpt><trkpt lat="43.4682133" lon="11.3932"><ele>490.0</ele><time>2026-03-22T11:12:27.899Z</time></trkpt><trkpt lat="43.4682433" lon="11.393085"><ele>490.0</ele><time>2026-03-22T11:12:29.899Z</time></trkpt><trkpt lat="43.4682683" lon="11.3929883"><ele>490.0</ele><time>2026-03-22T11:12:31.899Z</time></trkpt><trkpt lat="43.468315" lon="11.392875"><ele>490.0</ele><time>2026-03-22T11:12:33.899Z</time></trkpt><trkpt lat="43.4683867" lon="11.3927833"><ele>490.0</ele><time>2026-03-22T11:12:35.899Z</time></trkpt><trkpt lat="43.4684783" lon="11.3927"><ele>492.6</ele><time>2026-03-22T11:12:37.899Z</time></trkpt><trkpt lat="43.4685633" lon="11.392625"><ele>495.2</ele><time>2026-03-22T11:12:39.899Z</time></trkpt><trkpt lat="43.4686559" lon="11.3925918"><ele>497.79999999999995</ele><time>2026-03-22T11:12:42.86Z</time></trkpt><trkpt lat="43.4687436" lon="11.3925971"><ele>500.4</ele><time>2026-03-22T11:12:44.967Z</time></trkpt><trkpt lat="43.4688497" lon="11.3926152"><ele>503.0</ele><time>2026-03-22T11:12:46.899Z</time></trkpt><trkpt lat="43.4689577" lon="11.3925996"><ele>503.0</ele><time>2026-03-22T11:12:48.899Z</time></trkpt><trkpt lat="43.4690678" lon="11.3925942"><ele>502.99999999999994</ele><time>2026-03-22T11:12:50.899Z</time></trkpt><trkpt lat="43.4691744" lon="11.39258"><ele>502.99999999999994</ele><time>2026-03-22T11:12:52.899Z</time></trkpt><trkpt lat="43.4692808" lon="11.3925407"><ele>503.0</ele><time>2026-03-22T11:12:54.899Z</time></trkpt><trkpt lat="43.4693854" lon="11.3924727"><ele>503.0</ele><time>2026-03-22T11:12:56.899Z</time></trkpt><trkpt lat="43.4694486" lon="11.3924264"><ele>503.0</ele><time>2026-03-22T11:12:57.899Z</time></trkpt><trkpt lat="43.4695102" lon="11.3923863"><ele>503.00000000000006</ele><time>2026-03-22T11:12:58.899Z</time></trkpt><trkpt lat="43.4695745" lon="11.3923451"><ele>503.0</ele><time>2026-03-22T11:12:59.899Z</time></trkpt><trkpt lat="43.4696346" lon="11.3922998"><ele>503.0</ele><time>2026-03-22T11:13:00.899Z</time></trkpt><trkpt lat="43.4696973" lon="11.3922585"><ele>503.00000000000006</ele><time>2026-03-22T11:13:01.899Z</time></trkpt><trkpt lat="43.4697629" lon="11.3922135"><ele>503.0</ele><time>2026-03-22T11:13:02.899Z</time></trkpt><trkpt lat="43.4698206" lon="11.3921738"><ele>503.0</ele><time>2026-03-22T11:13:03.899Z</time></trkpt><trkpt lat="43.4699122" lon="11.3921055"><ele>504.4</ele><time>2026-03-22T11:13:05.899Z</time></trkpt><trkpt lat="43.4699892" lon="11.392031"><ele>505.79999999999995</ele><time>2026-03-22T11:13:07.899Z</time></trkpt><trkpt lat="43.4700626" lon="11.3919568"><ele>507.2</ele><time>2026-03-22T11:13:09.899Z</time></trkpt><trkpt lat="43.4701117" lon="11.3918333"><ele>508.6</ele><time>2026-03-22T11:13:11.899Z</time></trkpt><trkpt lat="43.4701483" lon="11.3916817"><ele>510.0</ele><time>2026-03-22T11:13:13.899Z</time></trkpt><trkpt lat="43.4701933" lon="11.3915417"><ele>510.0</ele><time>2026-03-22T11:13:15.899Z</time></trkpt><trkpt lat="43.4702367" lon="11.3914417"><ele>510.0</ele><time>2026-03-22T11:13:17.899Z</time></trkpt><trkpt lat="43.470285" lon="11.391315"><ele>510.0</ele><time>2026-03-22T11:13:19.899Z</time></trkpt><trkpt lat="43.4703067" lon="11.39119"><ele>510.0</ele><time>2026-03-22T11:13:21.899Z</time></trkpt><trkpt lat="43.470375" lon="11.3911117"><ele>510.0</ele><time>2026-03-22T11:13:23.899Z</time></trkpt><trkpt lat="43.4704517" lon="11.3910433"><ele>509.8</ele><time>2026-03-22T11:13:25.899Z</time></trkpt><trkpt lat="43.4705333" lon="11.39095"><ele>509.6</ele><time>2026-03-22T11:13:27.899Z</time></trkpt><trkpt lat="43.4706283" lon="11.3908633"><ele>509.4</ele><time>2026-03-22T11:13:29.899Z</time></trkpt><trkpt lat="43.4707183" lon="11.3907767"><ele>509.2</ele><time>2026-03-22T11:13:31.899Z</time></trkpt><trkpt lat="43.470815" lon="11.39071"><ele>509.0</ele><time>2026-03-22T11:13:33.899Z</time></trkpt><trkpt lat="43.4709017" lon="11.3906667"><ele>509.0</ele><time>2026-03-22T11:13:35.899Z</time></trkpt><trkpt lat="43.4710017" lon="11.3905967"><ele>509.0</ele><time>2026-03-22T11:13:37.899Z</time></trkpt><trkpt lat="43.4710967" lon="11.39053"><ele>509.0</ele><time>2026-03-22T11:13:39.899Z</time></trkpt><trkpt lat="43.4711833" lon="11.3904833"><ele>509.0</ele><time>2026-03-22T11:13:41.899Z</time></trkpt><trkpt lat="43.47125" lon="11.3904233"><ele>509.0</ele><time>2026-03-22T11:13:43.899Z</time></trkpt><trkpt lat="43.4713" lon="11.3903283"><ele>510.79999999999995</ele><time>2026-03-22T11:13:45.899Z</time></trkpt><trkpt lat="43.471365" lon="11.3902283"><ele>512.5999999999999</ele><time>2026-03-22T11:13:47.899Z</time></trkpt><trkpt lat="43.4714333" lon="11.3901267"><ele>514.4</ele><time>2026-03-22T11:13:57.899Z</time></trkpt><trkpt lat="43.471505" lon="11.3900233"><ele>516.1999999999999</ele><time>2026-03-22T11:13:59.899Z</time></trkpt><trkpt lat="43.47159" lon="11.3899167"><ele>518.0</ele><time>2026-03-22T11:14:01.899Z</time></trkpt><trkpt lat="43.4716267" lon="11.3898017"><ele>519.1999999999999</ele><time>2026-03-22T11:14:03.9Z</time></trkpt><trkpt lat="43.47167" lon="11.3896417"><ele>520.4</ele><time>2026-03-22T11:14:05.899Z</time></trkpt><trkpt lat="43.4717267" lon="11.3894817"><ele>521.5999999999999</ele><time>2026-03-22T11:14:07.899Z</time></trkpt><trkpt lat="43.471765" lon="11.389405"><ele>522.8</ele><time>2026-03-22T11:14:08.899Z</time></trkpt><trkpt lat="43.4718183" lon="11.389245"><ele>524.0</ele><time>2026-03-22T11:14:10.899Z</time></trkpt><trkpt lat="43.47185" lon="11.3890783"><ele>524.0</ele><time>2026-03-22T11:14:12.899Z</time></trkpt><trkpt lat="43.4718667" lon="11.3889783"><ele>524.0</ele><time>2026-03-22T11:14:14.899Z</time></trkpt><trkpt lat="43.4719417" lon="11.3888883"><ele>524.0</ele><time>2026-03-22T11:14:16.899Z</time></trkpt><trkpt lat="43.472" lon="11.3888317"><ele>524.0</ele><time>2026-03-22T11:14:17.899Z</time></trkpt><trkpt lat="43.47206" lon="11.3887683"><ele>524.0</ele><time>2026-03-22T11:14:18.899Z</time></trkpt><trkpt lat="43.47212" lon="11.38871"><ele>524.0</ele><time>2026-03-22T11:14:19.899Z</time></trkpt><trkpt lat="43.472225" lon="11.3886067"><ele>525.0</ele><time>2026-03-22T11:14:21.899Z</time></trkpt><trkpt lat="43.4723383" lon="11.3885433"><ele>526.0</ele><time>2026-03-22T11:14:23.899Z</time></trkpt><trkpt lat="43.4724367" lon="11.3884717"><ele>527.0</ele><time>2026-03-22T11:14:25.899Z</time></trkpt><trkpt lat="43.4725" lon="11.3884533"><ele>528.0</ele><time>2026-03-22T11:14:26.899Z</time></trkpt><trkpt lat="43.4725967" lon="11.3884167"><ele>529.0</ele><time>2026-03-22T11:14:28.899Z</time></trkpt><trkpt lat="43.4726883" lon="11.388365"><ele>529.0</ele><time>2026-03-22T11:14:30.899Z</time></trkpt><trkpt lat="43.472775" lon="11.3883167"><ele>529.0</ele><time>2026-03-22T11:14:32.899Z</time></trkpt><trkpt lat="43.4728633" lon="11.3882217"><ele>529.0</ele><time>2026-03-22T11:14:34.9Z</time></trkpt><trkpt lat="43.472915" lon="11.3881667"><ele>529.0</ele><time>2026-03-22T11:14:35.899Z</time></trkpt><trkpt lat="43.4729717" lon="11.3881217"><ele>529.0</ele><time>2026-03-22T11:14:36.899Z</time></trkpt><trkpt lat="43.47304" lon="11.388065"><ele>529.0</ele><time>2026-03-22T11:14:37.899Z</time></trkpt><trkpt lat="43.4730983" lon="11.38803"><ele>529.4</ele><time>2026-03-22T11:14:38.9Z</time></trkpt><trkpt lat="43.4731533" lon="11.3879817"><ele>529.8</ele><time>2026-03-22T11:14:39.899Z</time></trkpt><trkpt lat="43.4731967" lon="11.3879183"><ele>530.2</ele><time>2026-03-22T11:14:40.899Z</time></trkpt><trkpt lat="43.4732983" lon="11.38783"><ele>530.6</ele><time>2026-03-22T11:14:42.899Z</time></trkpt><trkpt lat="43.4734017" lon="11.387745"><ele>531.0</ele><time>2026-03-22T11:14:44.899Z</time></trkpt><trkpt lat="43.473505" lon="11.38764"><ele>531.0</ele><time>2026-03-22T11:14:46.899Z</time></trkpt><trkpt lat="43.4735567" lon="11.3875833"><ele>531.0</ele><time>2026-03-22T11:14:47.899Z</time></trkpt><trkpt lat="43.47361" lon="11.38753"><ele>531.0</ele><time>2026-03-22T11:14:48.899Z</time></trkpt><trkpt lat="43.47368" lon="11.3874417"><ele>531.0</ele><time>2026-03-22T11:14:50.899Z</time></trkpt><trkpt lat="43.4737417" lon="11.387325"><ele>531.0</ele><time>2026-03-22T11:14:52.899Z</time></trkpt><trkpt lat="43.4737767" lon="11.387145"><ele>531.0</ele><time>2026-03-22T11:14:54.899Z</time></trkpt><trkpt lat="43.4737733" lon="11.387045"><ele>531.0</ele><time>2026-03-22T11:14:55.899Z</time></trkpt><trkpt lat="43.4737483" lon="11.386895"><ele>531.0</ele><time>2026-03-22T11:14:57.899Z</time></trkpt><trkpt lat="43.4737483" lon="11.386735"><ele>531.0</ele><time>2026-03-22T11:14:59.899Z</time></trkpt><trkpt lat="43.4737567" lon="11.3866417"><ele>531.0</ele><time>2026-03-22T11:15:00.9Z</time></trkpt><trkpt lat="43.4737667" lon="11.3865483"><ele>531.0</ele><time>2026-03-22T11:15:01.899Z</time></trkpt><trkpt lat="43.473775" lon="11.3863767"><ele>531.5</ele><time>2026-03-22T11:15:03.899Z</time></trkpt><trkpt lat="43.473835" lon="11.3861933"><ele>532.0</ele><time>2026-03-22T11:15:05.899Z</time></trkpt><trkpt lat="43.473865" lon="11.3861017"><ele>532.5</ele><time>2026-03-22T11:15:06.899Z</time></trkpt><trkpt lat="43.4739017" lon="11.386015"><ele>533.0</ele><time>2026-03-22T11:15:07.899Z</time></trkpt><trkpt lat="43.4739483" lon="11.385935"><ele>533.5</ele><time>2026-03-22T11:15:08.899Z</time></trkpt><trkpt lat="43.4739917" lon="11.3858667"><ele>534.0</ele><time>2026-03-22T11:15:09.9Z</time></trkpt><trkpt lat="43.4740333" lon="11.3858"><ele>534.0</ele><time>2026-03-22T11:15:10.899Z</time></trkpt><trkpt lat="43.474075" lon="11.3857317"><ele>534.0</ele><time>2026-03-22T11:15:11.899Z</time></trkpt><trkpt lat="43.4741683" lon="11.3856067"><ele>534.0</ele><time>2026-03-22T11:15:13.899Z</time></trkpt><trkpt lat="43.47422" lon="11.3855417"><ele>534.0</ele><time>2026-03-22T11:15:14.899Z</time></trkpt><trkpt lat="43.4742717" lon="11.38549"><ele>534.0</ele><time>2026-03-22T11:15:15.899Z</time></trkpt><trkpt lat="43.4743567" lon="11.3853567"><ele>532.6666666666666</ele><time>2026-03-22T11:15:17.899Z</time></trkpt><trkpt lat="43.4743983" lon="11.38528"><ele>531.3333333333334</ele><time>2026-03-22T11:15:18.899Z</time></trkpt><trkpt lat="43.4744433" lon="11.3852133"><ele>530.0</ele><time>2026-03-22T11:15:19.899Z</time></trkpt><trkpt lat="43.4745183" lon="11.3851083"><ele>528.6666666666667</ele><time>2026-03-22T11:15:21.899Z</time></trkpt><trkpt lat="43.4745833" lon="11.3850383"><ele>527.3333333333334</ele><time>2026-03-22T11:15:23.899Z</time></trkpt><trkpt lat="43.4746833" lon="11.3849967"><ele>526.0</ele><time>2026-03-22T11:15:25.899Z</time></trkpt><trkpt lat="43.4747917" lon="11.38497"><ele>525.4</ele><time>2026-03-22T11:15:27.899Z</time></trkpt><trkpt lat="43.4748883" lon="11.384955"><ele>524.8</ele><time>2026-03-22T11:15:29.899Z</time></trkpt><trkpt lat="43.4749817" lon="11.3849767"><ele>524.1999999999999</ele><time>2026-03-22T11:15:31.899Z</time></trkpt><trkpt lat="43.4751" lon="11.3849933"><ele>523.6</ele><time>2026-03-22T11:15:33.899Z</time></trkpt><trkpt lat="43.4752183" lon="11.3850383"><ele>523.0</ele><time>2026-03-22T11:15:35.899Z</time></trkpt><trkpt lat="43.475335" lon="11.3851333"><ele>523.0</ele><time>2026-03-22T11:15:37.899Z</time></trkpt><trkpt lat="43.4754083" lon="11.385175"><ele>523.0</ele><time>2026-03-22T11:15:38.899Z</time></trkpt><trkpt lat="43.4754817" lon="11.3852067"><ele>523.0</ele><time>2026-03-22T11:15:39.9Z</time></trkpt><trkpt lat="43.4755583" lon="11.385225"><ele>523.0</ele><time>2026-03-22T11:15:40.899Z</time></trkpt><trkpt lat="43.4756267" lon="11.3852367"><ele>523.0</ele><time>2026-03-22T11:15:41.899Z</time></trkpt><trkpt lat="43.475695" lon="11.385245"><ele>523.0</ele><time>2026-03-22T11:15:42.899Z</time></trkpt><trkpt lat="43.4757983" lon="11.385255"><ele>521.8333333333334</ele><time>2026-03-22T11:15:44.899Z</time></trkpt><trkpt lat="43.4758717" lon="11.3852267"><ele>520.6666666666667</ele><time>2026-03-22T11:15:47.9Z</time></trkpt><trkpt lat="43.47589" lon="11.3851017"><ele>519.5</ele><time>2026-03-22T11:15:50.899Z</time></trkpt><trkpt lat="43.475925" lon="11.38502"><ele>518.3333333333334</ele><time>2026-03-22T11:15:52.899Z</time></trkpt><trkpt lat="43.4759583" lon="11.3848817"><ele>517.1666666666666</ele><time>2026-03-22T11:23:40.9Z</time></trkpt><trkpt lat="43.475885" lon="11.38481"><ele>516.0</ele><time>2026-03-22T11:23:42.899Z</time></trkpt><trkpt lat="43.4758267" lon="11.3847733"><ele>516.0</ele><time>2026-03-22T11:23:43.899Z</time></trkpt><trkpt lat="43.4757617" lon="11.3847333"><ele>516.0</ele><time>2026-03-22T11:23:44.899Z</time></trkpt><trkpt lat="43.4756967" lon="11.3846933"><ele>516.0</ele><time>2026-03-22T11:23:45.899Z</time></trkpt><trkpt lat="43.4756233" lon="11.3846433"><ele>516.0</ele><time>2026-03-22T11:23:46.899Z</time></trkpt><trkpt lat="43.4755567" lon="11.3845883"><ele>516.0</ele><time>2026-03-22T11:23:47.899Z</time></trkpt><trkpt lat="43.4754933" lon="11.384535"><ele>516.0</ele><time>2026-03-22T11:23:48.899Z</time></trkpt><trkpt lat="43.47543" lon="11.3844767"><ele>515.5</ele><time>2026-03-22T11:23:49.899Z</time></trkpt><trkpt lat="43.4753667" lon="11.38441"><ele>515.0</ele><time>2026-03-22T11:23:50.899Z</time></trkpt><trkpt lat="43.4753017" lon="11.38435"><ele>514.5</ele><time>2026-03-22T11:23:51.899Z</time></trkpt><trkpt lat="43.4752467" lon="11.38428"><ele>514.0</ele><time>2026-03-22T11:23:52.899Z</time></trkpt><trkpt lat="43.4751883" lon="11.3841933"><ele>513.5</ele><time>2026-03-22T11:23:53.899Z</time></trkpt><trkpt lat="43.475135" lon="11.3840967"><ele>513.0</ele><time>2026-03-22T11:23:54.899Z</time></trkpt><trkpt lat="43.4750867" lon="11.384"><ele>513.0</ele><time>2026-03-22T11:23:55.899Z</time></trkpt><trkpt lat="43.4750367" lon="11.3839133"><ele>513.0</ele><time>2026-03-22T11:23:56.9Z</time></trkpt><trkpt lat="43.4750017" lon="11.383825"><ele>513.0</ele><time>2026-03-22T11:23:57.899Z</time></trkpt><trkpt lat="43.4749633" lon="11.38375"><ele>513.0</ele><time>2026-03-22T11:23:58.899Z</time></trkpt><trkpt lat="43.4749283" lon="11.3836767"><ele>513.0</ele><time>2026-03-22T11:23:59.899Z</time></trkpt><trkpt lat="43.47484" lon="11.38357"><ele>513.0</ele><time>2026-03-22T11:24:01.899Z</time></trkpt><trkpt lat="43.4747783" lon="11.38352"><ele>510.5</ele><time>2026-03-22T11:24:02.899Z</time></trkpt><trkpt lat="43.474705" lon="11.38348"><ele>508.0</ele><time>2026-03-22T11:24:03.899Z</time></trkpt><trkpt lat="43.474625" lon="11.38345"><ele>505.5</ele><time>2026-03-22T11:24:04.899Z</time></trkpt><trkpt lat="43.4745383" lon="11.3834167"><ele>503.0</ele><time>2026-03-22T11:24:05.899Z</time></trkpt><trkpt lat="43.4744483" lon="11.3833867"><ele>500.5</ele><time>2026-03-22T11:24:06.899Z</time></trkpt><trkpt lat="43.47436" lon="11.3833567"><ele>498.0</ele><time>2026-03-22T11:24:07.899Z</time></trkpt><trkpt lat="43.4742783" lon="11.38332"><ele>498.0</ele><time>2026-03-22T11:24:08.899Z</time></trkpt><trkpt lat="43.4742033" lon="11.3833"><ele>498.0</ele><time>2026-03-22T11:24:09.899Z</time></trkpt><trkpt lat="43.47413" lon="11.3832933"><ele>498.0</ele><time>2026-03-22T11:24:10.899Z</time></trkpt><trkpt lat="43.4740517" lon="11.3833067"><ele>498.0</ele><time>2026-03-22T11:24:11.899Z</time></trkpt><trkpt lat="43.473965" lon="11.3833367"><ele>498.0</ele><time>2026-03-22T11:24:12.899Z</time></trkpt><trkpt lat="43.4738767" lon="11.3833833"><ele>498.0</ele><time>2026-03-22T11:24:13.899Z</time></trkpt><trkpt lat="43.4738017" lon="11.38343"><ele>497.3333333333333</ele><time>2026-03-22T11:24:14.899Z</time></trkpt><trkpt lat="43.47374" lon="11.3834733"><ele>496.66666666666663</ele><time>2026-03-22T11:24:15.899Z</time></trkpt><trkpt lat="43.4736683" lon="11.3835033"><ele>496.0</ele><time>2026-03-22T11:24:16.899Z</time></trkpt><trkpt lat="43.47354" lon="11.3834767"><ele>495.3333333333333</ele><time>2026-03-22T11:24:18.899Z</time></trkpt><trkpt lat="43.4734717" lon="11.3834283"><ele>494.66666666666663</ele><time>2026-03-22T11:24:19.899Z</time></trkpt><trkpt lat="43.4734067" lon="11.3833783"><ele>494.0</ele><time>2026-03-22T11:24:20.899Z</time></trkpt><trkpt lat="43.473335" lon="11.383315"><ele>494.0</ele><time>2026-03-22T11:24:21.899Z</time></trkpt><trkpt lat="43.4732617" lon="11.38323"><ele>494.0</ele><time>2026-03-22T11:24:22.899Z</time></trkpt><trkpt lat="43.4731917" lon="11.3831333"><ele>494.0</ele><time>2026-03-22T11:24:23.899Z</time></trkpt><trkpt lat="43.4731217" lon="11.3830417"><ele>494.0</ele><time>2026-03-22T11:24:24.899Z</time></trkpt><trkpt lat="43.4730483" lon="11.3829417"><ele>494.0</ele><time>2026-03-22T11:24:25.899Z</time></trkpt><trkpt lat="43.4729717" lon="11.382835"><ele>492.4</ele><time>2026-03-22T11:24:26.899Z</time></trkpt><trkpt lat="43.4728917" lon="11.3827283"><ele>490.79999999999995</ele><time>2026-03-22T11:24:27.899Z</time></trkpt><trkpt lat="43.4728067" lon="11.38262"><ele>489.20000000000005</ele><time>2026-03-22T11:24:28.899Z</time></trkpt><trkpt lat="43.4727283" lon="11.382515"><ele>487.6</ele><time>2026-03-22T11:24:29.899Z</time></trkpt><trkpt lat="43.472655" lon="11.3824083"><ele>486.0</ele><time>2026-03-22T11:24:30.899Z</time></trkpt><trkpt lat="43.4725817" lon="11.382305"><ele>484.25</ele><time>2026-03-22T11:24:31.899Z</time></trkpt><trkpt lat="43.4725133" lon="11.3821783"><ele>482.5</ele><time>2026-03-22T11:24:32.899Z</time></trkpt><trkpt lat="43.4724483" lon="11.382045"><ele>480.75</ele><time>2026-03-22T11:24:33.899Z</time></trkpt><trkpt lat="43.4723817" lon="11.38192"><ele>479.0</ele><time>2026-03-22T11:24:34.899Z</time></trkpt><trkpt lat="43.4723183" lon="11.3817933"><ele>478.99999999999994</ele><time>2026-03-22T11:24:35.899Z</time></trkpt><trkpt lat="43.4722567" lon="11.3816867"><ele>479.0</ele><time>2026-03-22T11:24:36.899Z</time></trkpt><trkpt lat="43.4722083" lon="11.3815783"><ele>479.0</ele><time>2026-03-22T11:24:37.899Z</time></trkpt><trkpt lat="43.4721583" lon="11.3815"><ele>479.0</ele><time>2026-03-22T11:24:38.899Z</time></trkpt><trkpt lat="43.4721183" lon="11.3814283"><ele>478.99999999999994</ele><time>2026-03-22T11:24:39.899Z</time></trkpt><trkpt lat="43.472075" lon="11.381335"><ele>479.0</ele><time>2026-03-22T11:24:41.899Z</time></trkpt><trkpt lat="43.4720683" lon="11.3812"><ele>478.79999999999995</ele><time>2026-03-22T11:24:44.899Z</time></trkpt><trkpt lat="43.47206" lon="11.381085"><ele>478.59999999999997</ele><time>2026-03-22T11:24:46.899Z</time></trkpt><trkpt lat="43.4720717" lon="11.38098"><ele>478.4</ele><time>2026-03-22T11:24:48.899Z</time></trkpt><trkpt lat="43.4720783" lon="11.3808617"><ele>478.2</ele><time>2026-03-22T11:24:50.899Z</time></trkpt><trkpt lat="43.4720717" lon="11.3807183"><ele>478.0</ele><time>2026-03-22T11:24:52.899Z</time></trkpt><trkpt lat="43.4720767" lon="11.3805767"><ele>477.4</ele><time>2026-03-22T11:24:54.899Z</time></trkpt><trkpt lat="43.4720683" lon="11.3804383"><ele>476.79999999999995</ele><time>2026-03-22T11:24:56.899Z</time></trkpt><trkpt lat="43.4720317" lon="11.3803233"><ele>476.2</ele><time>2026-03-22T11:24:58.899Z</time></trkpt><trkpt lat="43.4720033" lon="11.3802017"><ele>475.6</ele><time>2026-03-22T11:25:00.899Z</time></trkpt><trkpt lat="43.471975" lon="11.3800667"><ele>475.0</ele><time>2026-03-22T11:25:02.899Z</time></trkpt><trkpt lat="43.4719267" lon="11.3799367"><ele>475.0</ele><time>2026-03-22T11:25:04.899Z</time></trkpt><trkpt lat="43.4718867" lon="11.3798033"><ele>475.0</ele><time>2026-03-22T11:25:06.899Z</time></trkpt><trkpt lat="43.4718583" lon="11.3796683"><ele>475.0</ele><time>2026-03-22T11:25:08.899Z</time></trkpt><trkpt lat="43.4718217" lon="11.3795467"><ele>475.0</ele><time>2026-03-22T11:25:10.899Z</time></trkpt><trkpt lat="43.4717783" lon="11.3794333"><ele>475.0</ele><time>2026-03-22T11:25:12.899Z</time></trkpt><trkpt lat="43.471747" lon="11.3793236"><ele>473.50000000000006</ele><time>2026-03-22T11:25:14.899Z</time></trkpt><trkpt lat="43.4717337" lon="11.3792309"><ele>472.0</ele><time>2026-03-22T11:25:16.899Z</time></trkpt><trkpt lat="43.4717262" lon="11.3790874"><ele>470.5</ele><time>2026-03-22T11:25:20.872Z</time></trkpt><trkpt lat="43.4717293" lon="11.3789477"><ele>469.0</ele><time>2026-03-22T11:25:22.952Z</time></trkpt><trkpt lat="43.4717268" lon="11.3788511"><ele>467.50000000000006</ele><time>2026-03-22T11:25:24.851Z</time></trkpt><trkpt lat="43.471733" lon="11.3787452"><ele>466.0</ele><time>2026-03-22T11:25:26.953Z</time></trkpt><trkpt lat="43.4717384" lon="11.3786337"><ele>464.50000000000006</ele><time>2026-03-22T11:25:28.989Z</time></trkpt><trkpt lat="43.4717417" lon="11.3785163"><ele>463.0</ele><time>2026-03-22T11:25:30.902Z</time></trkpt><trkpt lat="43.4717447" lon="11.3783882"><ele>461.5</ele><time>2026-03-22T11:25:33.973Z</time></trkpt><trkpt lat="43.4717495" lon="11.3782877"><ele>460.0</ele><time>2026-03-22T11:25:35.948Z</time></trkpt><trkpt lat="43.4717383" lon="11.3781828"><ele>458.50000000000006</ele><time>2026-03-22T11:25:37.922Z</time></trkpt><trkpt lat="43.471702" lon="11.3780867"><ele>457.0</ele><time>2026-03-22T11:25:40.007Z</time></trkpt><trkpt lat="43.4716693" lon="11.3780111"><ele>455.4285714285715</ele><time>2026-03-22T11:25:42.551Z</time></trkpt><trkpt lat="43.4716355" lon="11.3779346"><ele>453.8571428571429</ele><time>2026-03-22T11:25:44.943Z</time></trkpt><trkpt lat="43.4715983" lon="11.3778283"><ele>452.28571428571433</ele><time>2026-03-22T11:25:47.899Z</time></trkpt><trkpt lat="43.471545" lon="11.3777767"><ele>450.7142857142858</ele><time>2026-03-22T11:25:49.899Z</time></trkpt><trkpt lat="43.4714917" lon="11.3777183"><ele>449.1428571428571</ele><time>2026-03-22T11:25:51.899Z</time></trkpt><trkpt lat="43.47144" lon="11.3776433"><ele>447.57142857142856</ele><time>2026-03-22T11:25:53.899Z</time></trkpt><trkpt lat="43.471375" lon="11.3775917"><ele>446.0</ele><time>2026-03-22T11:25:55.899Z</time></trkpt><trkpt lat="43.4713017" lon="11.3775283"><ele>445.85714285714283</ele><time>2026-03-22T11:25:57.899Z</time></trkpt><trkpt lat="43.471235" lon="11.3774817"><ele>445.71428571428567</ele><time>2026-03-22T11:25:59.899Z</time></trkpt><trkpt lat="43.4711717" lon="11.3774567"><ele>445.57142857142856</ele><time>2026-03-22T11:26:01.899Z</time></trkpt><trkpt lat="43.471105" lon="11.377415"><ele>445.42857142857144</ele><time>2026-03-22T11:26:03.899Z</time></trkpt><trkpt lat="43.4710383" lon="11.377365"><ele>445.2857142857143</ele><time>2026-03-22T11:26:05.899Z</time></trkpt><trkpt lat="43.4709651" lon="11.3773271"><ele>445.14285714285717</ele><time>2026-03-22T11:26:07.899Z</time></trkpt><trkpt lat="43.4708975" lon="11.3772826"><ele>445.0</ele><time>2026-03-22T11:26:09.953Z</time></trkpt><trkpt lat="43.4708283" lon="11.3772333"><ele>445.00000000000006</ele><time>2026-03-22T11:26:11.899Z</time></trkpt><trkpt lat="43.47076" lon="11.3771967"><ele>445.0</ele><time>2026-03-22T11:26:13.899Z</time></trkpt><trkpt lat="43.4706917" lon="11.3771517"><ele>445.0</ele><time>2026-03-22T11:26:15.899Z</time></trkpt><trkpt lat="43.47061" lon="11.3771067"><ele>445.0</ele><time>2026-03-22T11:26:17.899Z</time></trkpt><trkpt lat="43.4705317" lon="11.3770683"><ele>445.00000000000006</ele><time>2026-03-22T11:26:19.899Z</time></trkpt><trkpt lat="43.4704367" lon="11.3770417"><ele>445.0</ele><time>2026-03-22T11:26:21.899Z</time></trkpt><trkpt lat="43.4703383" lon="11.3770267"><ele>442.33333333333337</ele><time>2026-03-22T11:26:23.899Z</time></trkpt><trkpt lat="43.4702467" lon="11.3769933"><ele>439.6666666666667</ele><time>2026-03-22T11:26:25.899Z</time></trkpt><trkpt lat="43.4701467" lon="11.3769617"><ele>437.0</ele><time>2026-03-22T11:26:27.899Z</time></trkpt><trkpt lat="43.4700533" lon="11.376925"><ele>434.33333333333337</ele><time>2026-03-22T11:26:29.899Z</time></trkpt><trkpt lat="43.4699783" lon="11.376885"><ele>431.6666666666667</ele><time>2026-03-22T11:26:31.899Z</time></trkpt><trkpt lat="43.4699083" lon="11.3768783"><ele>429.0</ele><time>2026-03-22T11:26:33.899Z</time></trkpt><trkpt lat="43.4698473" lon="11.3768419"><ele>429.0</ele><time>2026-03-22T11:26:35.899Z</time></trkpt><trkpt lat="43.4697803" lon="11.3767908"><ele>429.0</ele><time>2026-03-22T11:26:37.899Z</time></trkpt><trkpt lat="43.4697214" lon="11.3767379"><ele>429.0</ele><time>2026-03-22T11:26:40.932Z</time></trkpt><trkpt lat="43.4696336" lon="11.3766408"><ele>429.0</ele><time>2026-03-22T11:26:42.907Z</time></trkpt><trkpt lat="43.4695557" lon="11.3765762"><ele>429.0</ele><time>2026-03-22T11:26:44.991Z</time></trkpt><trkpt lat="43.4694838" lon="11.3765231"><ele>429.0</ele><time>2026-03-22T11:26:46.965Z</time></trkpt><trkpt lat="43.4694129" lon="11.3764854"><ele>427.8571428571429</ele><time>2026-03-22T11:26:48.94Z</time></trkpt><trkpt lat="43.4693474" lon="11.3764409"><ele>426.7142857142857</ele><time>2026-03-22T11:26:50.914Z</time></trkpt><trkpt lat="43.4692786" lon="11.3764056"><ele>425.57142857142856</ele><time>2026-03-22T11:26:52.92Z</time></trkpt><trkpt lat="43.4692115" lon="11.376395"><ele>424.42857142857144</ele><time>2026-03-22T11:26:54.899Z</time></trkpt><trkpt lat="43.4691411" lon="11.3764178"><ele>423.2857142857143</ele><time>2026-03-22T11:26:56.979Z</time></trkpt><trkpt lat="43.4690829" lon="11.3764718"><ele>422.14285714285717</ele><time>2026-03-22T11:26:58.922Z</time></trkpt><trkpt lat="43.46901" lon="11.3765167"><ele>421.0</ele><time>2026-03-22T11:27:01.899Z</time></trkpt><trkpt lat="43.46894" lon="11.3765433"><ele>421.00000000000006</ele><time>2026-03-22T11:27:05.899Z</time></trkpt><trkpt lat="43.4688417" lon="11.37656"><ele>421.0</ele><time>2026-03-22T11:27:08.899Z</time></trkpt><trkpt lat="43.4687733" lon="11.3765633"><ele>421.0</ele><time>2026-03-22T11:27:10.899Z</time></trkpt><trkpt lat="43.4686917" lon="11.3765483"><ele>421.0</ele><time>2026-03-22T11:27:13.899Z</time></trkpt><trkpt lat="43.468615" lon="11.3765483"><ele>421.00000000000006</ele><time>2026-03-22T11:27:15.899Z</time></trkpt><trkpt lat="43.46854" lon="11.3765467"><ele>421.0</ele><time>2026-03-22T11:27:17.899Z</time></trkpt><trkpt lat="43.4684683" lon="11.3765267"><ele>419.00000000000006</ele><time>2026-03-22T11:27:19.899Z</time></trkpt><trkpt lat="43.4683967" lon="11.3764867"><ele>417.0</ele><time>2026-03-22T11:27:21.899Z</time></trkpt><trkpt lat="43.4683083" lon="11.3764483"><ele>415.0</ele><time>2026-03-22T11:27:24.899Z</time></trkpt><trkpt lat="43.46822" lon="11.3764217"><ele>413.0</ele><time>2026-03-22T11:27:27.899Z</time></trkpt><trkpt lat="43.46815" lon="11.37639"><ele>411.00000000000006</ele><time>2026-03-22T11:27:29.899Z</time></trkpt><trkpt lat="43.468085" lon="11.3763433"><ele>409.0</ele><time>2026-03-22T11:27:31.899Z</time></trkpt><trkpt lat="43.46805" lon="11.37623"><ele>408.79999999999995</ele><time>2026-03-22T11:27:34.899Z</time></trkpt><trkpt lat="43.468065" lon="11.3761317"><ele>408.59999999999997</ele><time>2026-03-22T11:27:36.899Z</time></trkpt><trkpt lat="43.4680867" lon="11.3760167"><ele>408.4</ele><time>2026-03-22T11:27:38.899Z</time></trkpt><trkpt lat="43.4681167" lon="11.3758967"><ele>408.2</ele><time>2026-03-22T11:27:40.9Z</time></trkpt><trkpt lat="43.468155" lon="11.37577"><ele>408.0</ele><time>2026-03-22T11:27:42.899Z</time></trkpt><trkpt lat="43.46819" lon="11.3756417"><ele>406.1666666666667</ele><time>2026-03-22T11:27:44.899Z</time></trkpt><trkpt lat="43.46822" lon="11.3755133"><ele>404.33333333333337</ele><time>2026-03-22T11:27:46.899Z</time></trkpt><trkpt lat="43.468235" lon="11.3753983"><ele>402.5</ele><time>2026-03-22T11:27:48.899Z</time></trkpt><trkpt lat="43.4682417" lon="11.3752917"><ele>400.6666666666667</ele><time>2026-03-22T11:27:50.899Z</time></trkpt><trkpt lat="43.4682517" lon="11.3751683"><ele>398.83333333333337</ele><time>2026-03-22T11:27:53.898Z</time></trkpt><trkpt lat="43.4682967" lon="11.37508"><ele>397.0</ele><time>2026-03-22T11:27:56.898Z</time></trkpt><trkpt lat="43.4683617" lon="11.3750383"><ele>397.00000000000006</ele><time>2026-03-22T11:27:59.898Z</time></trkpt><trkpt lat="43.46844" lon="11.3750067"><ele>397.0</ele><time>2026-03-22T11:28:01.898Z</time></trkpt><trkpt lat="43.468515" lon="11.374985"><ele>397.0</ele><time>2026-03-22T11:28:03.898Z</time></trkpt><trkpt lat="43.4685817" lon="11.3749533"><ele>397.0</ele><time>2026-03-22T11:28:05.898Z</time></trkpt><trkpt lat="43.4686583" lon="11.3749333"><ele>397.00000000000006</ele><time>2026-03-22T11:28:07.898Z</time></trkpt><trkpt lat="43.4687367" lon="11.3749333"><ele>397.0</ele><time>2026-03-22T11:28:09.898Z</time></trkpt><trkpt lat="43.468805" lon="11.3749417"><ele>396.1428571428571</ele><time>2026-03-22T11:28:11.898Z</time></trkpt><trkpt lat="43.4688783" lon="11.3749617"><ele>395.2857142857143</ele><time>2026-03-22T11:28:13.898Z</time></trkpt><trkpt lat="43.46895" lon="11.3749933"><ele>394.42857142857144</ele><time>2026-03-22T11:28:15.898Z</time></trkpt><trkpt lat="43.4690217" lon="11.375005"><ele>393.57142857142856</ele><time>2026-03-22T11:28:17.898Z</time></trkpt><trkpt lat="43.4691017" lon="11.3749967"><ele>392.7142857142857</ele><time>2026-03-22T11:28:19.899Z</time></trkpt><trkpt lat="43.469165" lon="11.374965"><ele>391.85714285714283</ele><time>2026-03-22T11:28:21.899Z</time></trkpt><trkpt lat="43.46922" lon="11.37491"><ele>391.0</ele><time>2026-03-22T11:28:24.898Z</time></trkpt><trkpt lat="43.4692633" lon="11.3748"><ele>390.00000000000006</ele><time>2026-03-22T11:28:28.898Z</time></trkpt><trkpt lat="43.4692683" lon="11.374665"><ele>389.0</ele><time>2026-03-22T11:28:31.898Z</time></trkpt><trkpt lat="43.4693017" lon="11.3745117"><ele>388.0</ele><time>2026-03-22T11:28:33.898Z</time></trkpt><trkpt lat="43.4693217" lon="11.3744233"><ele>387.0</ele><time>2026-03-22T11:28:34.898Z</time></trkpt><trkpt lat="43.4693867" lon="11.3743433"><ele>386.00000000000006</ele><time>2026-03-22T11:28:36.898Z</time></trkpt><trkpt lat="43.4694533" lon="11.37432"><ele>385.0</ele><time>2026-03-22T11:28:38.898Z</time></trkpt><trkpt lat="43.4693467" lon="11.3742567"><ele>385.00000000000006</ele><time>2026-03-22T11:28:46.898Z</time></trkpt><trkpt lat="43.469275" lon="11.37424"><ele>385.0</ele><time>2026-03-22T11:28:47.898Z</time></trkpt><trkpt lat="43.4691917" lon="11.3742167"><ele>385.0</ele><time>2026-03-22T11:28:48.898Z</time></trkpt><trkpt lat="43.4691017" lon="11.374185"><ele>385.0</ele><time>2026-03-22T11:28:49.898Z</time></trkpt><trkpt lat="43.4690117" lon="11.3741383"><ele>385.00000000000006</ele><time>2026-03-22T11:28:50.898Z</time></trkpt><trkpt lat="43.468935" lon="11.3740617"><ele>385.0</ele><time>2026-03-22T11:28:51.898Z</time></trkpt><trkpt lat="43.4688667" lon="11.3739733"><ele>385.0</ele><time>2026-03-22T11:28:52.898Z</time></trkpt><trkpt lat="43.4688" lon="11.3738817"><ele>385.0</ele><time>2026-03-22T11:28:53.898Z</time></trkpt><trkpt lat="43.468725" lon="11.3737883"><ele>385.0</ele><time>2026-03-22T11:28:54.898Z</time></trkpt><trkpt lat="43.46865" lon="11.373695"><ele>385.0</ele><time>2026-03-22T11:28:55.898Z</time></trkpt><trkpt lat="43.46859" lon="11.3736117"><ele>385.0</ele><time>2026-03-22T11:28:56.898Z</time></trkpt><trkpt lat="43.4685217" lon="11.3735333"><ele>384.6</ele><time>2026-03-22T11:28:57.898Z</time></trkpt><trkpt lat="43.4684417" lon="11.3734567"><ele>384.2</ele><time>2026-03-22T11:28:58.898Z</time></trkpt><trkpt lat="43.4683517" lon="11.3734"><ele>383.79999999999995</ele><time>2026-03-22T11:28:59.898Z</time></trkpt><trkpt lat="43.46827" lon="11.3733567"><ele>383.4</ele><time>2026-03-22T11:29:00.898Z</time></trkpt><trkpt lat="43.46819" lon="11.3733133"><ele>383.0</ele><time>2026-03-22T11:29:01.898Z</time></trkpt><trkpt lat="43.468115" lon="11.3732717"><ele>383.0</ele><time>2026-03-22T11:29:02.898Z</time></trkpt><trkpt lat="43.468045" lon="11.373255"><ele>383.0</ele><time>2026-03-22T11:29:03.898Z</time></trkpt><trkpt lat="43.46794" lon="11.373195"><ele>383.0</ele><time>2026-03-22T11:29:05.898Z</time></trkpt><trkpt lat="43.4679083" lon="11.373065"><ele>383.0</ele><time>2026-03-22T11:29:07.898Z</time></trkpt><trkpt lat="43.467915" lon="11.37296"><ele>383.0</ele><time>2026-03-22T11:29:08.898Z</time></trkpt><trkpt lat="43.4679117" lon="11.3728333"><ele>382.4</ele><time>2026-03-22T11:29:09.898Z</time></trkpt><trkpt lat="43.467875" lon="11.3727"><ele>381.79999999999995</ele><time>2026-03-22T11:29:10.898Z</time></trkpt><trkpt lat="43.4678433" lon="11.3725467"><ele>381.2</ele><time>2026-03-22T11:29:11.898Z</time></trkpt><trkpt lat="43.4677933" lon="11.3724"><ele>380.6</ele><time>2026-03-22T11:29:12.899Z</time></trkpt><trkpt lat="43.4677467" lon="11.3722633"><ele>380.0</ele><time>2026-03-22T11:29:13.898Z</time></trkpt><trkpt lat="43.46769" lon="11.37213"><ele>380.0</ele><time>2026-03-22T11:29:14.898Z</time></trkpt><trkpt lat="43.467635" lon="11.3720017"><ele>380.0</ele><time>2026-03-22T11:29:15.898Z</time></trkpt><trkpt lat="43.467585" lon="11.37189"><ele>380.0</ele><time>2026-03-22T11:29:16.898Z</time></trkpt><trkpt lat="43.467535" lon="11.37178"><ele>380.0</ele><time>2026-03-22T11:29:17.898Z</time></trkpt><trkpt lat="43.46746" lon="11.3716767"><ele>380.0</ele><time>2026-03-22T11:29:18.898Z</time></trkpt><trkpt lat="43.467365" lon="11.3715767"><ele>380.0</ele><time>2026-03-22T11:29:19.898Z</time></trkpt><trkpt lat="43.467255" lon="11.3714867"><ele>380.0</ele><time>2026-03-22T11:29:20.898Z</time></trkpt><trkpt lat="43.4671433" lon="11.37141"><ele>380.0</ele><time>2026-03-22T11:29:21.898Z</time></trkpt><trkpt lat="43.4670317" lon="11.37134"><ele>380.0</ele><time>2026-03-22T11:29:22.898Z</time></trkpt><trkpt lat="43.4669333" lon="11.37126"><ele>379.75</ele><time>2026-03-22T11:29:23.898Z</time></trkpt><trkpt lat="43.4668333" lon="11.37117"><ele>379.5</ele><time>2026-03-22T11:29:24.898Z</time></trkpt><trkpt lat="43.46674" lon="11.3710667"><ele>379.25</ele><time>2026-03-22T11:29:25.898Z</time></trkpt><trkpt lat="43.4666517" lon="11.3709417"><ele>379.0</ele><time>2026-03-22T11:29:26.898Z</time></trkpt><trkpt lat="43.46657" lon="11.370815"><ele>379.0</ele><time>2026-03-22T11:29:27.898Z</time></trkpt><trkpt lat="43.4664883" lon="11.3706867"><ele>379.0</ele><time>2026-03-22T11:29:28.898Z</time></trkpt><trkpt lat="43.4663983" lon="11.370545"><ele>379.0</ele><time>2026-03-22T11:29:29.898Z</time></trkpt><trkpt lat="43.4663183" lon="11.3704033"><ele>379.0</ele><time>2026-03-22T11:29:30.898Z</time></trkpt><trkpt lat="43.4662583" lon="11.3702533"><ele>378.25</ele><time>2026-03-22T11:29:31.898Z</time></trkpt><trkpt lat="43.466205" lon="11.370105"><ele>377.5</ele><time>2026-03-22T11:29:32.898Z</time></trkpt><trkpt lat="43.46615" lon="11.3699533"><ele>376.75</ele><time>2026-03-22T11:29:33.898Z</time></trkpt><trkpt lat="43.4660867" lon="11.36979"><ele>376.0</ele><time>2026-03-22T11:29:34.898Z</time></trkpt><trkpt lat="43.46603" lon="11.3696217"><ele>375.5</ele><time>2026-03-22T11:29:35.898Z</time></trkpt><trkpt lat="43.465975" lon="11.3694467"><ele>375.0</ele><time>2026-03-22T11:29:36.898Z</time></trkpt><trkpt lat="43.4659283" lon="11.3692617"><ele>374.5</ele><time>2026-03-22T11:29:37.898Z</time></trkpt><trkpt lat="43.4658867" lon="11.369095"><ele>374.0</ele><time>2026-03-22T11:29:38.898Z</time></trkpt><trkpt lat="43.4658433" lon="11.36893"><ele>374.0</ele><time>2026-03-22T11:29:39.898Z</time></trkpt><trkpt lat="43.4658117" lon="11.3687617"><ele>374.0</ele><time>2026-03-22T11:29:40.898Z</time></trkpt><trkpt lat="43.4657883" lon="11.3685833"><ele>374.0</ele><time>2026-03-22T11:29:41.898Z</time></trkpt><trkpt lat="43.4657867" lon="11.3683967"><ele>374.0</ele><time>2026-03-22T11:29:42.898Z</time></trkpt><trkpt lat="43.4658033" lon="11.3682217"><ele>374.0</ele><time>2026-03-22T11:29:43.898Z</time></trkpt><trkpt lat="43.4658433" lon="11.3680367"><ele>374.0</ele><time>2026-03-22T11:29:44.898Z</time></trkpt><trkpt lat="43.4658767" lon="11.367845"><ele>374.0</ele><time>2026-03-22T11:29:45.898Z</time></trkpt><trkpt lat="43.4659067" lon="11.3676483"><ele>374.0</ele><time>2026-03-22T11:29:46.898Z</time></trkpt><trkpt lat="43.4659467" lon="11.3674433"><ele>373.0</ele><time>2026-03-22T11:29:47.899Z</time></trkpt><trkpt lat="43.4659917" lon="11.3672317"><ele>372.0</ele><time>2026-03-22T11:29:48.898Z</time></trkpt><trkpt lat="43.46604" lon="11.3670133"><ele>371.0</ele><time>2026-03-22T11:29:49.898Z</time></trkpt><trkpt lat="43.4660933" lon="11.3667917"><ele>370.33333333333337</ele><time>2026-03-22T11:29:50.898Z</time></trkpt><trkpt lat="43.4661417" lon="11.3665717"><ele>369.6666666666667</ele><time>2026-03-22T11:29:51.898Z</time></trkpt><trkpt lat="43.4661917" lon="11.3663583"><ele>369.0</ele><time>2026-03-22T11:29:52.898Z</time></trkpt><trkpt lat="43.4662417" lon="11.3661517"><ele>369.3333333333333</ele><time>2026-03-22T11:29:53.898Z</time></trkpt><trkpt lat="43.46629" lon="11.3659433"><ele>369.66666666666663</ele><time>2026-03-22T11:29:54.898Z</time></trkpt><trkpt lat="43.466335" lon="11.365735"><ele>370.0</ele><time>2026-03-22T11:29:55.898Z</time></trkpt><trkpt lat="43.4663783" lon="11.3655233"><ele>370.0</ele><time>2026-03-22T11:29:56.898Z</time></trkpt><trkpt lat="43.4664233" lon="11.3652983"><ele>370.0</ele><time>2026-03-22T11:29:57.898Z</time></trkpt><trkpt lat="43.4664683" lon="11.365085"><ele>370.0</ele><time>2026-03-22T11:29:58.898Z</time></trkpt><trkpt lat="43.4665117" lon="11.364875"><ele>369.66666666666663</ele><time>2026-03-22T11:29:59.898Z</time></trkpt><trkpt lat="43.4665583" lon="11.36467"><ele>369.3333333333333</ele><time>2026-03-22T11:30:00.898Z</time></trkpt><trkpt lat="43.4665933" lon="11.3644667"><ele>369.0</ele><time>2026-03-22T11:30:01.898Z</time></trkpt><trkpt lat="43.4666383" lon="11.3642717"><ele>369.0</ele><time>2026-03-22T11:30:02.898Z</time></trkpt><trkpt lat="43.4666733" lon="11.36408"><ele>369.0</ele><time>2026-03-22T11:30:03.898Z</time></trkpt><trkpt lat="43.4667233" lon="11.3638983"><ele>369.0</ele><time>2026-03-22T11:30:04.898Z</time></trkpt><trkpt lat="43.46676" lon="11.36373"><ele>369.0</ele><time>2026-03-22T11:30:05.898Z</time></trkpt><trkpt lat="43.4668" lon="11.3635783"><ele>369.0</ele><time>2026-03-22T11:30:06.898Z</time></trkpt><trkpt lat="43.466835" lon="11.3634217"><ele>369.0</ele><time>2026-03-22T11:30:07.898Z</time></trkpt><trkpt lat="43.4668633" lon="11.3632717"><ele>369.0</ele><time>2026-03-22T11:30:08.898Z</time></trkpt><trkpt lat="43.4668733" lon="11.363145"><ele>369.0</ele><time>2026-03-22T11:30:09.898Z</time></trkpt><trkpt lat="43.4668617" lon="11.3630183"><ele>369.0</ele><time>2026-03-22T11:30:10.898Z</time></trkpt><trkpt lat="43.4668367" lon="11.3629083"><ele>369.0</ele><time>2026-03-22T11:30:11.898Z</time></trkpt><trkpt lat="43.466805" lon="11.3627883"><ele>369.0</ele><time>2026-03-22T11:30:12.898Z</time></trkpt><trkpt lat="43.4667383" lon="11.362665"><ele>369.0</ele><time>2026-03-22T11:30:13.898Z</time></trkpt><trkpt lat="43.4666567" lon="11.3625367"><ele>369.0</ele><time>2026-03-22T11:30:14.898Z</time></trkpt><trkpt lat="43.4665767" lon="11.3624017"><ele>369.0</ele><time>2026-03-22T11:30:15.898Z</time></trkpt><trkpt lat="43.466505" lon="11.36225"><ele>369.0</ele><time>2026-03-22T11:30:16.898Z</time></trkpt><trkpt lat="43.4664433" lon="11.3620867"><ele>369.0</ele><time>2026-03-22T11:30:17.898Z</time></trkpt><trkpt lat="43.4663817" lon="11.361915"><ele>369.0</ele><time>2026-03-22T11:30:18.898Z</time></trkpt><trkpt lat="43.4663267" lon="11.36175"><ele>369.25</ele><time>2026-03-22T11:30:19.898Z</time></trkpt><trkpt lat="43.466275" lon="11.3615767"><ele>369.5</ele><time>2026-03-22T11:30:20.898Z</time></trkpt><trkpt lat="43.4662333" lon="11.361425"><ele>369.75</ele><time>2026-03-22T11:30:21.898Z</time></trkpt><trkpt lat="43.4661867" lon="11.3612933"><ele>370.0</ele><time>2026-03-22T11:30:22.898Z</time></trkpt><trkpt lat="43.4661283" lon="11.3611783"><ele>370.0</ele><time>2026-03-22T11:30:23.898Z</time></trkpt><trkpt lat="43.46606" lon="11.3610917"><ele>370.0</ele><time>2026-03-22T11:30:24.898Z</time></trkpt><trkpt lat="43.4659633" lon="11.3610117"><ele>370.0</ele><time>2026-03-22T11:30:25.898Z</time></trkpt><trkpt lat="43.4658767" lon="11.3609217"><ele>370.0</ele><time>2026-03-22T11:30:26.898Z</time></trkpt><trkpt lat="43.4657967" lon="11.3608283"><ele>370.0</ele><time>2026-03-22T11:30:27.898Z</time></trkpt><trkpt lat="43.4657183" lon="11.3607067"><ele>370.0</ele><time>2026-03-22T11:30:28.898Z</time></trkpt><trkpt lat="43.465645" lon="11.3605767"><ele>370.0</ele><time>2026-03-22T11:30:29.898Z</time></trkpt><trkpt lat="43.4655717" lon="11.3604433"><ele>370.0</ele><time>2026-03-22T11:30:30.898Z</time></trkpt><trkpt lat="43.4655067" lon="11.360315"><ele>370.0</ele><time>2026-03-22T11:30:31.898Z</time></trkpt><trkpt lat="43.465435" lon="11.3602"><ele>368.75</ele><time>2026-03-22T11:30:32.898Z</time></trkpt><trkpt lat="43.4653517" lon="11.3600933"><ele>367.5</ele><time>2026-03-22T11:30:33.898Z</time></trkpt><trkpt lat="43.465275" lon="11.359975"><ele>366.25</ele><time>2026-03-22T11:30:34.898Z</time></trkpt><trkpt lat="43.4652067" lon="11.3598383"><ele>365.0</ele><time>2026-03-22T11:30:35.898Z</time></trkpt><trkpt lat="43.46515" lon="11.3596933"><ele>365.0</ele><time>2026-03-22T11:30:36.899Z</time></trkpt><trkpt lat="43.4651033" lon="11.3595467"><ele>365.0</ele><time>2026-03-22T11:30:37.898Z</time></trkpt><trkpt lat="43.4650683" lon="11.359415"><ele>365.0</ele><time>2026-03-22T11:30:38.898Z</time></trkpt><trkpt lat="43.4650433" lon="11.3592867"><ele>365.0</ele><time>2026-03-22T11:30:39.898Z</time></trkpt><trkpt lat="43.46502" lon="11.3591433"><ele>365.0</ele><time>2026-03-22T11:30:40.898Z</time></trkpt><trkpt lat="43.4649917" lon="11.3589883"><ele>366.0</ele><time>2026-03-22T11:30:41.898Z</time></trkpt><trkpt lat="43.4649633" lon="11.3588283"><ele>367.0</ele><time>2026-03-22T11:30:42.898Z</time></trkpt><trkpt lat="43.464925" lon="11.3586733"><ele>368.0</ele><time>2026-03-22T11:30:43.898Z</time></trkpt><trkpt lat="43.464885" lon="11.358515"><ele>369.0</ele><time>2026-03-22T11:30:44.898Z</time></trkpt><trkpt lat="43.4648383" lon="11.3583533"><ele>369.0</ele><time>2026-03-22T11:30:45.898Z</time></trkpt><trkpt lat="43.46481" lon="11.3581867"><ele>369.0</ele><time>2026-03-22T11:30:46.898Z</time></trkpt><trkpt lat="43.4647617" lon="11.35803"><ele>369.0</ele><time>2026-03-22T11:30:47.898Z</time></trkpt><trkpt lat="43.4647017" lon="11.3578883"><ele>369.0</ele><time>2026-03-22T11:30:48.898Z</time></trkpt><trkpt lat="43.4646383" lon="11.3577483"><ele>368.0</ele><time>2026-03-22T11:30:49.898Z</time></trkpt><trkpt lat="43.4645733" lon="11.3576383"><ele>367.0</ele><time>2026-03-22T11:30:50.898Z</time></trkpt><trkpt lat="43.4645" lon="11.357535"><ele>366.0</ele><time>2026-03-22T11:30:51.898Z</time></trkpt><trkpt lat="43.46442" lon="11.3574333"><ele>365.0</ele><time>2026-03-22T11:30:52.898Z</time></trkpt><trkpt lat="43.4643083" lon="11.3573533"><ele>364.0</ele><time>2026-03-22T11:30:53.898Z</time></trkpt><trkpt lat="43.4641967" lon="11.357275"><ele>364.0</ele><time>2026-03-22T11:30:54.899Z</time></trkpt><trkpt lat="43.4641" lon="11.357205"><ele>364.0</ele><time>2026-03-22T11:30:55.898Z</time></trkpt><trkpt lat="43.463995" lon="11.3571533"><ele>364.0</ele><time>2026-03-22T11:30:56.898Z</time></trkpt><trkpt lat="43.463895" lon="11.35713"><ele>364.0</ele><time>2026-03-22T11:30:57.898Z</time></trkpt><trkpt lat="43.4638083" lon="11.3571083"><ele>364.0</ele><time>2026-03-22T11:30:58.898Z</time></trkpt><trkpt lat="43.463715" lon="11.357085"><ele>364.79999999999995</ele><time>2026-03-22T11:30:59.898Z</time></trkpt><trkpt lat="43.4636167" lon="11.35706"><ele>365.59999999999997</ele><time>2026-03-22T11:31:00.898Z</time></trkpt><trkpt lat="43.46352" lon="11.3570433"><ele>366.4</ele><time>2026-03-22T11:31:01.898Z</time></trkpt><trkpt lat="43.4634267" lon="11.3570083"><ele>367.2</ele><time>2026-03-22T11:31:02.898Z</time></trkpt><trkpt lat="43.4633367" lon="11.35698"><ele>368.0</ele><time>2026-03-22T11:31:03.898Z</time></trkpt><trkpt lat="43.463245" lon="11.3569683"><ele>368.0</ele><time>2026-03-22T11:31:04.898Z</time></trkpt><trkpt lat="43.4631433" lon="11.3569383"><ele>368.0</ele><time>2026-03-22T11:31:05.899Z</time></trkpt><trkpt lat="43.46305" lon="11.356885"><ele>368.0</ele><time>2026-03-22T11:31:06.898Z</time></trkpt><trkpt lat="43.462965" lon="11.3568067"><ele>368.0</ele><time>2026-03-22T11:31:07.898Z</time></trkpt><trkpt lat="43.4628833" lon="11.3567067"><ele>368.0</ele><time>2026-03-22T11:31:08.898Z</time></trkpt><trkpt lat="43.4627733" lon="11.35661"><ele>367.0</ele><time>2026-03-22T11:31:09.898Z</time></trkpt><trkpt lat="43.4626583" lon="11.3565"><ele>366.0</ele><time>2026-03-22T11:31:10.898Z</time></trkpt><trkpt lat="43.4625433" lon="11.356405"><ele>365.0</ele><time>2026-03-22T11:31:11.898Z</time></trkpt><trkpt lat="43.4624367" lon="11.356295"><ele>364.0</ele><time>2026-03-22T11:31:12.898Z</time></trkpt><trkpt lat="43.4623233" lon="11.3561967"><ele>364.0</ele><time>2026-03-22T11:31:13.898Z</time></trkpt><trkpt lat="43.4622017" lon="11.3560883"><ele>364.0</ele><time>2026-03-22T11:31:14.898Z</time></trkpt><trkpt lat="43.4620833" lon="11.3559533"><ele>364.0</ele><time>2026-03-22T11:31:15.898Z</time></trkpt><trkpt lat="43.4619533" lon="11.3558417"><ele>362.0</ele><time>2026-03-22T11:31:16.898Z</time></trkpt><trkpt lat="43.461825" lon="11.35574"><ele>360.0</ele><time>2026-03-22T11:31:17.898Z</time></trkpt><trkpt lat="43.4617017" lon="11.3556383"><ele>358.0</ele><time>2026-03-22T11:31:18.898Z</time></trkpt><trkpt lat="43.46159" lon="11.3555667"><ele>356.0</ele><time>2026-03-22T11:31:19.898Z</time></trkpt><trkpt lat="43.461495" lon="11.3555233"><ele>355.5</ele><time>2026-03-22T11:31:20.898Z</time></trkpt><trkpt lat="43.4614167" lon="11.355505"><ele>355.0</ele><time>2026-03-22T11:31:21.898Z</time></trkpt><trkpt lat="43.46128" lon="11.35552"><ele>354.5</ele><time>2026-03-22T11:31:23.898Z</time></trkpt><trkpt lat="43.461195" lon="11.3555417"><ele>354.0</ele><time>2026-03-22T11:31:24.898Z</time></trkpt><trkpt lat="43.4609967" lon="11.3555883"><ele>354.0</ele><time>2026-03-22T11:31:26.898Z</time></trkpt><trkpt lat="43.4608983" lon="11.3556083"><ele>354.0</ele><time>2026-03-22T11:31:27.898Z</time></trkpt><trkpt lat="43.460795" lon="11.35561"><ele>354.0</ele><time>2026-03-22T11:31:28.898Z</time></trkpt><trkpt lat="43.460695" lon="11.3556067"><ele>354.0</ele><time>2026-03-22T11:31:29.898Z</time></trkpt><trkpt lat="43.4605933" lon="11.35558"><ele>354.0</ele><time>2026-03-22T11:31:30.898Z</time></trkpt><trkpt lat="43.460475" lon="11.3555517"><ele>353.4</ele><time>2026-03-22T11:31:31.898Z</time></trkpt><trkpt lat="43.46036" lon="11.3555233"><ele>352.79999999999995</ele><time>2026-03-22T11:31:32.898Z</time></trkpt><trkpt lat="43.46026" lon="11.3555"><ele>352.20000000000005</ele><time>2026-03-22T11:31:33.898Z</time></trkpt><trkpt lat="43.4601567" lon="11.3554983"><ele>351.6</ele><time>2026-03-22T11:31:34.898Z</time></trkpt><trkpt lat="43.4600533" lon="11.3555183"><ele>351.0</ele><time>2026-03-22T11:31:35.898Z</time></trkpt><trkpt lat="43.4599517" lon="11.35555"><ele>351.0</ele><time>2026-03-22T11:31:36.898Z</time></trkpt><trkpt lat="43.4598683" lon="11.3555817"><ele>351.0</ele><time>2026-03-22T11:31:37.898Z</time></trkpt><trkpt lat="43.4597783" lon="11.3556017"><ele>351.0</ele><time>2026-03-22T11:31:38.898Z</time></trkpt><trkpt lat="43.4596917" lon="11.35559"><ele>351.0</ele><time>2026-03-22T11:31:39.898Z</time></trkpt><trkpt lat="43.4595867" lon="11.35556"><ele>351.0</ele><time>2026-03-22T11:31:40.898Z</time></trkpt><trkpt lat="43.4594733" lon="11.3555317"><ele>352.25</ele><time>2026-03-22T11:31:41.898Z</time></trkpt><trkpt lat="43.4593583" lon="11.3555067"><ele>353.5</ele><time>2026-03-22T11:31:42.898Z</time></trkpt><trkpt lat="43.459245" lon="11.355465"><ele>354.75</ele><time>2026-03-22T11:31:43.898Z</time></trkpt><trkpt lat="43.45913" lon="11.3554233"><ele>356.0</ele><time>2026-03-22T11:31:44.898Z</time></trkpt><trkpt lat="43.4590183" lon="11.35539"><ele>356.0</ele><time>2026-03-22T11:31:45.898Z</time></trkpt><trkpt lat="43.4589" lon="11.3553583"><ele>356.0</ele><time>2026-03-22T11:31:46.898Z</time></trkpt><trkpt lat="43.4587867" lon="11.355305"><ele>356.0</ele><time>2026-03-22T11:31:47.898Z</time></trkpt><trkpt lat="43.4586967" lon="11.3552533"><ele>356.0</ele><time>2026-03-22T11:31:48.898Z</time></trkpt><trkpt lat="43.4586283" lon="11.3552033"><ele>356.0</ele><time>2026-03-22T11:31:49.898Z</time></trkpt><trkpt lat="43.4585433" lon="11.35512"><ele>354.8</ele><time>2026-03-22T11:31:51.898Z</time></trkpt><trkpt lat="43.458485" lon="11.3550783"><ele>353.6</ele><time>2026-03-22T11:33:01.898Z</time></trkpt><trkpt lat="43.4583783" lon="11.355005"><ele>352.4</ele><time>2026-03-22T11:33:03.898Z</time></trkpt><trkpt lat="43.4583117" lon="11.3549483"><ele>351.2</ele><time>2026-03-22T11:33:04.898Z</time></trkpt><trkpt lat="43.458225" lon="11.3548767"><ele>350.0</ele><time>2026-03-22T11:33:05.898Z</time></trkpt><trkpt lat="43.4581233" lon="11.3548017"><ele>350.0</ele><time>2026-03-22T11:33:06.898Z</time></trkpt><trkpt lat="43.45801" lon="11.3547367"><ele>350.0</ele><time>2026-03-22T11:33:07.898Z</time></trkpt><trkpt lat="43.4578883" lon="11.3546883"><ele>350.0</ele><time>2026-03-22T11:33:08.898Z</time></trkpt><trkpt lat="43.4577517" lon="11.3546467"><ele>350.0</ele><time>2026-03-22T11:33:09.899Z</time></trkpt><trkpt lat="43.45762" lon="11.354615"><ele>351.25</ele><time>2026-03-22T11:33:10.898Z</time></trkpt><trkpt lat="43.4575" lon="11.35456"><ele>352.5</ele><time>2026-03-22T11:33:11.898Z</time></trkpt><trkpt lat="43.4573817" lon="11.3544817"><ele>353.75</ele><time>2026-03-22T11:33:12.898Z</time></trkpt><trkpt lat="43.4572817" lon="11.3544033"><ele>355.0</ele><time>2026-03-22T11:33:13.898Z</time></trkpt><trkpt lat="43.4571717" lon="11.3543517"><ele>352.75</ele><time>2026-03-22T11:33:14.898Z</time></trkpt><trkpt lat="43.4570617" lon="11.3543083"><ele>350.5</ele><time>2026-03-22T11:33:15.898Z</time></trkpt><trkpt lat="43.4569233" lon="11.35428"><ele>348.25</ele><time>2026-03-22T11:33:16.898Z</time></trkpt><trkpt lat="43.4567833" lon="11.3542633"><ele>346.0</ele><time>2026-03-22T11:33:17.898Z</time></trkpt><trkpt lat="43.456635" lon="11.3542183"><ele>346.0</ele><time>2026-03-22T11:33:18.898Z</time></trkpt><trkpt lat="43.4564917" lon="11.3541883"><ele>346.0</ele><time>2026-03-22T11:33:19.898Z</time></trkpt><trkpt lat="43.456345" lon="11.354155"><ele>346.0</ele><time>2026-03-22T11:33:20.898Z</time></trkpt><trkpt lat="43.4562" lon="11.3541267"><ele>346.0</ele><time>2026-03-22T11:33:21.898Z</time></trkpt><trkpt lat="43.4560583" lon="11.3541017"><ele>345.75</ele><time>2026-03-22T11:33:22.898Z</time></trkpt><trkpt lat="43.45593" lon="11.354055"><ele>345.5</ele><time>2026-03-22T11:33:23.899Z</time></trkpt><trkpt lat="43.4558117" lon="11.3540067"><ele>345.25</ele><time>2026-03-22T11:33:24.898Z</time></trkpt><trkpt lat="43.455705" lon="11.3539567"><ele>345.0</ele><time>2026-03-22T11:33:25.898Z</time></trkpt><trkpt lat="43.4555967" lon="11.3539117"><ele>345.0</ele><time>2026-03-22T11:33:26.898Z</time></trkpt><trkpt lat="43.4554883" lon="11.3538867"><ele>345.0</ele><time>2026-03-22T11:33:27.898Z</time></trkpt><trkpt lat="43.4553917" lon="11.3538917"><ele>345.0</ele><time>2026-03-22T11:33:28.898Z</time></trkpt><trkpt lat="43.4552933" lon="11.3539133"><ele>345.0</ele><time>2026-03-22T11:33:29.898Z</time></trkpt><trkpt lat="43.455195" lon="11.3539517"><ele>345.0</ele><time>2026-03-22T11:33:30.899Z</time></trkpt><trkpt lat="43.4550867" lon="11.3539817"><ele>344.6</ele><time>2026-03-22T11:33:31.898Z</time></trkpt><trkpt lat="43.4549783" lon="11.3540067"><ele>344.2</ele><time>2026-03-22T11:33:32.898Z</time></trkpt><trkpt lat="43.4548733" lon="11.354045"><ele>343.79999999999995</ele><time>2026-03-22T11:33:33.898Z</time></trkpt><trkpt lat="43.4547717" lon="11.3540983"><ele>343.4</ele><time>2026-03-22T11:33:34.898Z</time></trkpt><trkpt lat="43.45468" lon="11.3541533"><ele>343.0</ele><time>2026-03-22T11:33:35.898Z</time></trkpt><trkpt lat="43.4546017" lon="11.3542117"><ele>341.8333333333333</ele><time>2026-03-22T11:33:36.898Z</time></trkpt><trkpt lat="43.4545317" lon="11.35428"><ele>340.66666666666663</ele><time>2026-03-22T11:33:37.898Z</time></trkpt><trkpt lat="43.45444" lon="11.354325"><ele>339.5</ele><time>2026-03-22T11:33:38.898Z</time></trkpt><trkpt lat="43.454355" lon="11.3543517"><ele>338.3333333333333</ele><time>2026-03-22T11:33:39.898Z</time></trkpt><trkpt lat="43.454285" lon="11.35436"><ele>337.1666666666667</ele><time>2026-03-22T11:33:40.898Z</time></trkpt><trkpt lat="43.454215" lon="11.3543517"><ele>336.0</ele><time>2026-03-22T11:33:41.898Z</time></trkpt><trkpt lat="43.45415" lon="11.354335"><ele>336.0</ele><time>2026-03-22T11:33:42.898Z</time></trkpt><trkpt lat="43.454085" lon="11.3543033"><ele>336.0</ele><time>2026-03-22T11:33:43.898Z</time></trkpt><trkpt lat="43.45401" lon="11.3542883"><ele>336.0</ele><time>2026-03-22T11:33:44.898Z</time></trkpt><trkpt lat="43.4539283" lon="11.3542983"><ele>336.0</ele><time>2026-03-22T11:33:45.899Z</time></trkpt><trkpt lat="43.4538467" lon="11.3543217"><ele>336.0</ele><time>2026-03-22T11:33:46.898Z</time></trkpt><trkpt lat="43.453755" lon="11.35436"><ele>336.0</ele><time>2026-03-22T11:33:47.898Z</time></trkpt><trkpt lat="43.45365" lon="11.3544133"><ele>338.0</ele><time>2026-03-22T11:33:48.898Z</time></trkpt><trkpt lat="43.4535317" lon="11.3544633"><ele>340.0</ele><time>2026-03-22T11:33:49.898Z</time></trkpt><trkpt lat="43.4533967" lon="11.3545233"><ele>342.0</ele><time>2026-03-22T11:33:50.898Z</time></trkpt><trkpt lat="43.45327" lon="11.3545833"><ele>344.0</ele><time>2026-03-22T11:33:51.898Z</time></trkpt><trkpt lat="43.4531317" lon="11.3546517"><ele>343.5</ele><time>2026-03-22T11:33:52.898Z</time></trkpt><trkpt lat="43.453005" lon="11.35474"><ele>343.0</ele><time>2026-03-22T11:33:53.898Z</time></trkpt><trkpt lat="43.4528783" lon="11.3548233"><ele>342.5</ele><time>2026-03-22T11:33:54.898Z</time></trkpt><trkpt lat="43.4527467" lon="11.354905"><ele>342.0</ele><time>2026-03-22T11:33:55.898Z</time></trkpt><trkpt lat="43.4526133" lon="11.35498"><ele>342.0</ele><time>2026-03-22T11:33:56.898Z</time></trkpt><trkpt lat="43.4524833" lon="11.3550583"><ele>342.0</ele><time>2026-03-22T11:33:57.898Z</time></trkpt><trkpt lat="43.4523617" lon="11.3551217"><ele>342.0</ele><time>2026-03-22T11:33:58.898Z</time></trkpt><trkpt lat="43.4522383" lon="11.3551617"><ele>342.0</ele><time>2026-03-22T11:33:59.898Z</time></trkpt><trkpt lat="43.452115" lon="11.3552083"><ele>343.75</ele><time>2026-03-22T11:34:00.898Z</time></trkpt><trkpt lat="43.4519967" lon="11.355245"><ele>345.5</ele><time>2026-03-22T11:34:01.898Z</time></trkpt><trkpt lat="43.4518683" lon="11.35527"><ele>347.25</ele><time>2026-03-22T11:34:02.898Z</time></trkpt><trkpt lat="43.45175" lon="11.3552967"><ele>349.0</ele><time>2026-03-22T11:34:03.898Z</time></trkpt><trkpt lat="43.4516317" lon="11.3553417"><ele>349.0</ele><time>2026-03-22T11:34:04.898Z</time></trkpt><trkpt lat="43.4515067" lon="11.3554017"><ele>349.0</ele><time>2026-03-22T11:34:05.898Z</time></trkpt><trkpt lat="43.4513883" lon="11.3554783"><ele>349.0</ele><time>2026-03-22T11:34:06.898Z</time></trkpt><trkpt lat="43.4512717" lon="11.3555533"><ele>349.0</ele><time>2026-03-22T11:34:07.898Z</time></trkpt><trkpt lat="43.4511783" lon="11.3556317"><ele>348.3333333333333</ele><time>2026-03-22T11:34:08.898Z</time></trkpt><trkpt lat="43.45109" lon="11.3557283"><ele>347.6666666666667</ele><time>2026-03-22T11:34:09.898Z</time></trkpt><trkpt lat="43.4508917" lon="11.3559317"><ele>347.0</ele><time>2026-03-22T11:34:11.898Z</time></trkpt><trkpt lat="43.450795" lon="11.3560217"><ele>347.0</ele><time>2026-03-22T11:34:12.898Z</time></trkpt><trkpt lat="43.4507217" lon="11.3561033"><ele>347.0</ele><time>2026-03-22T11:34:13.898Z</time></trkpt><trkpt lat="43.4506417" lon="11.3561917"><ele>347.0</ele><time>2026-03-22T11:34:14.898Z</time></trkpt><trkpt lat="43.4505533" lon="11.3562917"><ele>347.0</ele><time>2026-03-22T11:34:15.898Z</time></trkpt><trkpt lat="43.4504567" lon="11.3563933"><ele>347.0</ele><time>2026-03-22T11:34:16.898Z</time></trkpt><trkpt lat="43.45036" lon="11.3564883"><ele>345.6</ele><time>2026-03-22T11:34:17.898Z</time></trkpt><trkpt lat="43.4502617" lon="11.3565667"><ele>344.20000000000005</ele><time>2026-03-22T11:34:18.898Z</time></trkpt><trkpt lat="43.45017" lon="11.356635"><ele>342.8</ele><time>2026-03-22T11:34:19.898Z</time></trkpt><trkpt lat="43.45009" lon="11.3566983"><ele>341.4</ele><time>2026-03-22T11:34:20.898Z</time></trkpt><trkpt lat="43.4499967" lon="11.3567367"><ele>340.0</ele><time>2026-03-22T11:34:21.898Z</time></trkpt><trkpt lat="43.4499" lon="11.3567667"><ele>340.0</ele><time>2026-03-22T11:34:22.898Z</time></trkpt><trkpt lat="43.449795" lon="11.356775"><ele>340.0</ele><time>2026-03-22T11:34:23.898Z</time></trkpt><trkpt lat="43.449665" lon="11.3567517"><ele>340.0</ele><time>2026-03-22T11:34:24.898Z</time></trkpt><trkpt lat="43.449545" lon="11.3567283"><ele>340.0</ele><time>2026-03-22T11:34:25.898Z</time></trkpt><trkpt lat="43.4494367" lon="11.3566933"><ele>338.0</ele><time>2026-03-22T11:34:26.898Z</time></trkpt><trkpt lat="43.449335" lon="11.3566433"><ele>336.0</ele><time>2026-03-22T11:34:27.898Z</time></trkpt><trkpt lat="43.449215" lon="11.3565683"><ele>334.0</ele><time>2026-03-22T11:34:28.898Z</time></trkpt><trkpt lat="43.4490983" lon="11.35647"><ele>332.0</ele><time>2026-03-22T11:34:29.898Z</time></trkpt><trkpt lat="43.448975" lon="11.3563633"><ele>333.33333333333337</ele><time>2026-03-22T11:34:30.898Z</time></trkpt><trkpt lat="43.4488333" lon="11.356275"><ele>334.6666666666667</ele><time>2026-03-22T11:34:31.898Z</time></trkpt><trkpt lat="43.4486883" lon="11.3561833"><ele>336.0</ele><time>2026-03-22T11:34:32.898Z</time></trkpt><trkpt lat="43.44854" lon="11.3560883"><ele>336.0</ele><time>2026-03-22T11:34:33.899Z</time></trkpt><trkpt lat="43.4483967" lon="11.3559917"><ele>336.0</ele><time>2026-03-22T11:34:34.899Z</time></trkpt><trkpt lat="43.4482517" lon="11.3559217"><ele>336.0</ele><time>2026-03-22T11:34:35.898Z</time></trkpt><trkpt lat="43.4481" lon="11.3558467"><ele>334.75</ele><time>2026-03-22T11:34:36.898Z</time></trkpt><trkpt lat="43.44796" lon="11.35576"><ele>333.5</ele><time>2026-03-22T11:34:37.898Z</time></trkpt><trkpt lat="43.447835" lon="11.3556733"><ele>332.25</ele><time>2026-03-22T11:34:38.898Z</time></trkpt><trkpt lat="43.4477117" lon="11.35559"><ele>331.0</ele><time>2026-03-22T11:34:39.898Z</time></trkpt><trkpt lat="43.4475983" lon="11.35553"><ele>332.5</ele><time>2026-03-22T11:34:40.898Z</time></trkpt><trkpt lat="43.4474767" lon="11.3554883"><ele>334.0</ele><time>2026-03-22T11:34:41.898Z</time></trkpt><trkpt lat="43.447345" lon="11.35543"><ele>335.5</ele><time>2026-03-22T11:34:42.898Z</time></trkpt><trkpt lat="43.4471967" lon="11.3554"><ele>337.0</ele><time>2026-03-22T11:34:43.898Z</time></trkpt><trkpt lat="43.447055" lon="11.3553683"><ele>337.0</ele><time>2026-03-22T11:34:44.898Z</time></trkpt><trkpt lat="43.4469" lon="11.35534"><ele>337.0</ele><time>2026-03-22T11:34:45.898Z</time></trkpt><trkpt lat="43.44675" lon="11.3553067"><ele>337.0</ele><time>2026-03-22T11:34:46.898Z</time></trkpt><trkpt lat="43.4465967" lon="11.355265"><ele>337.0</ele><time>2026-03-22T11:34:47.898Z</time></trkpt><trkpt lat="43.4464433" lon="11.3552417"><ele>337.0</ele><time>2026-03-22T11:34:48.898Z</time></trkpt><trkpt lat="43.4462983" lon="11.3552133"><ele>337.0</ele><time>2026-03-22T11:34:49.898Z</time></trkpt><trkpt lat="43.4461667" lon="11.3551983"><ele>337.0</ele><time>2026-03-22T11:34:50.898Z</time></trkpt><trkpt lat="43.4460417" lon="11.3551883"><ele>335.75</ele><time>2026-03-22T11:34:51.898Z</time></trkpt><trkpt lat="43.4459217" lon="11.3551833"><ele>334.5</ele><time>2026-03-22T11:34:52.898Z</time></trkpt><trkpt lat="43.4458017" lon="11.355175"><ele>333.25</ele><time>2026-03-22T11:34:53.898Z</time></trkpt><trkpt lat="43.4456717" lon="11.3551333"><ele>332.0</ele><time>2026-03-22T11:34:54.898Z</time></trkpt><trkpt lat="43.44554" lon="11.3550783"><ele>330.6666666666667</ele><time>2026-03-22T11:34:55.898Z</time></trkpt><trkpt lat="43.4452917" lon="11.3548883"><ele>329.3333333333333</ele><time>2026-03-22T11:34:57.898Z</time></trkpt><trkpt lat="43.4451833" lon="11.3547767"><ele>328.0</ele><time>2026-03-22T11:34:58.898Z</time></trkpt><trkpt lat="43.44509" lon="11.3546617"><ele>328.0</ele><time>2026-03-22T11:34:59.898Z</time></trkpt><trkpt lat="43.4450217" lon="11.354535"><ele>328.0</ele><time>2026-03-22T11:35:00.898Z</time></trkpt><trkpt lat="43.4449783" lon="11.3544033"><ele>328.0</ele><time>2026-03-22T11:35:01.898Z</time></trkpt><trkpt lat="43.4449517" lon="11.3542583"><ele>328.0</ele><time>2026-03-22T11:35:02.898Z</time></trkpt><trkpt lat="43.4449417" lon="11.35412"><ele>328.0</ele><time>2026-03-22T11:35:03.898Z</time></trkpt><trkpt lat="43.444935" lon="11.3539983"><ele>328.0</ele><time>2026-03-22T11:35:04.898Z</time></trkpt><trkpt lat="43.444925" lon="11.3539017"><ele>328.0</ele><time>2026-03-22T11:35:05.898Z</time></trkpt><trkpt lat="43.4449117" lon="11.3537633"><ele>328.0</ele><time>2026-03-22T11:35:07.898Z</time></trkpt><trkpt lat="43.4448233" lon="11.3537017"><ele>328.0</ele><time>2026-03-22T11:35:09.898Z</time></trkpt><trkpt lat="43.4447533" lon="11.35371"><ele>328.0</ele><time>2026-03-22T11:35:10.898Z</time></trkpt><trkpt lat="43.44466" lon="11.35374"><ele>328.0</ele><time>2026-03-22T11:35:11.898Z</time></trkpt><trkpt lat="43.444535" lon="11.353795"><ele>327.0</ele><time>2026-03-22T11:35:12.898Z</time></trkpt><trkpt lat="43.4444083" lon="11.3538433"><ele>326.0</ele><time>2026-03-22T11:35:13.898Z</time></trkpt><trkpt lat="43.4442833" lon="11.3538833"><ele>325.0</ele><time>2026-03-22T11:35:14.898Z</time></trkpt><trkpt lat="43.4441583" lon="11.35394"><ele>324.0</ele><time>2026-03-22T11:35:15.898Z</time></trkpt><trkpt lat="43.4440367" lon="11.3540067"><ele>324.0</ele><time>2026-03-22T11:35:16.898Z</time></trkpt><trkpt lat="43.44392" lon="11.3540667"><ele>324.0</ele><time>2026-03-22T11:35:17.898Z</time></trkpt><trkpt lat="43.4437933" lon="11.3541433"><ele>324.0</ele><time>2026-03-22T11:35:18.898Z</time></trkpt><trkpt lat="43.443665" lon="11.3542183"><ele>324.0</ele><time>2026-03-22T11:35:19.898Z</time></trkpt><trkpt lat="43.443545" lon="11.354295"><ele>326.5</ele><time>2026-03-22T11:35:20.898Z</time></trkpt><trkpt lat="43.4434183" lon="11.354375"><ele>329.0</ele><time>2026-03-22T11:35:21.898Z</time></trkpt><trkpt lat="43.4432917" lon="11.3544517"><ele>331.5</ele><time>2026-03-22T11:35:22.898Z</time></trkpt><trkpt lat="43.443175" lon="11.3545233"><ele>334.0</ele><time>2026-03-22T11:35:23.898Z</time></trkpt><trkpt lat="43.4430617" lon="11.3546083"><ele>334.5</ele><time>2026-03-22T11:35:24.898Z</time></trkpt><trkpt lat="43.4429317" lon="11.3546833"><ele>335.0</ele><time>2026-03-22T11:35:25.898Z</time></trkpt><trkpt lat="43.4428017" lon="11.3547583"><ele>335.5</ele><time>2026-03-22T11:35:26.898Z</time></trkpt><trkpt lat="43.4426767" lon="11.354845"><ele>336.0</ele><time>2026-03-22T11:35:27.898Z</time></trkpt><trkpt lat="43.4425567" lon="11.3549433"><ele>336.0</ele><time>2026-03-22T11:35:28.898Z</time></trkpt><trkpt lat="43.4424517" lon="11.35504"><ele>336.0</ele><time>2026-03-22T11:35:29.898Z</time></trkpt><trkpt lat="43.4423467" lon="11.3551283"><ele>336.0</ele><time>2026-03-22T11:35:30.898Z</time></trkpt><trkpt lat="43.44224" lon="11.3552"><ele>336.0</ele><time>2026-03-22T11:35:31.898Z</time></trkpt><trkpt lat="43.4421283" lon="11.3552467"><ele>340.75</ele><time>2026-03-22T11:35:32.898Z</time></trkpt><trkpt lat="43.442015" lon="11.3552717"><ele>345.5</ele><time>2026-03-22T11:35:33.898Z</time></trkpt><trkpt lat="43.4419017" lon="11.3552817"><ele>350.25</ele><time>2026-03-22T11:35:34.898Z</time></trkpt><trkpt lat="43.4417867" lon="11.3552883"><ele>355.0</ele><time>2026-03-22T11:35:35.898Z</time></trkpt><trkpt lat="43.441675" lon="11.3553233"><ele>355.0</ele><time>2026-03-22T11:35:36.898Z</time></trkpt><trkpt lat="43.4415767" lon="11.3553717"><ele>355.0</ele><time>2026-03-22T11:35:37.898Z</time></trkpt><trkpt lat="43.4414933" lon="11.3554183"><ele>355.0</ele><time>2026-03-22T11:35:38.898Z</time></trkpt><trkpt lat="43.4414233" lon="11.355515"><ele>355.0</ele><time>2026-03-22T11:35:39.898Z</time></trkpt><trkpt lat="43.4413667" lon="11.35562"><ele>355.0</ele><time>2026-03-22T11:35:40.898Z</time></trkpt><trkpt lat="43.4413167" lon="11.3556883"><ele>354.5</ele><time>2026-03-22T11:35:41.898Z</time></trkpt><trkpt lat="43.4412533" lon="11.35576"><ele>354.0</ele><time>2026-03-22T11:35:42.899Z</time></trkpt><trkpt lat="43.4411817" lon="11.3558267"><ele>353.5</ele><time>2026-03-22T11:35:43.898Z</time></trkpt><trkpt lat="43.4411117" lon="11.3558333"><ele>353.0</ele><time>2026-03-22T11:35:44.898Z</time></trkpt><trkpt lat="43.4410483" lon="11.35582"><ele>352.5</ele><time>2026-03-22T11:35:45.898Z</time></trkpt><trkpt lat="43.441005" lon="11.3557117"><ele>352.0</ele><time>2026-03-22T11:35:47.898Z</time></trkpt><trkpt lat="43.4410417" lon="11.3555567"><ele>352.25</ele><time>2026-03-22T11:35:49.898Z</time></trkpt><trkpt lat="43.4410767" lon="11.35542"><ele>352.5</ele><time>2026-03-22T11:35:51.898Z</time></trkpt><trkpt lat="43.4410917" lon="11.35524"><ele>352.75</ele><time>2026-03-22T11:35:53.898Z</time></trkpt><trkpt lat="43.44108" lon="11.3551083"><ele>353.0</ele><time>2026-03-22T11:35:54.898Z</time></trkpt><trkpt lat="43.441065" lon="11.3549467"><ele>353.0</ele><time>2026-03-22T11:35:55.898Z</time></trkpt><trkpt lat="43.4410317" lon="11.354795"><ele>353.0</ele><time>2026-03-22T11:35:56.898Z</time></trkpt><trkpt lat="43.44099" lon="11.3546367"><ele>353.0</ele><time>2026-03-22T11:35:57.898Z</time></trkpt><trkpt lat="43.4409517" lon="11.35447"><ele>353.0</ele><time>2026-03-22T11:35:58.898Z</time></trkpt><trkpt lat="43.4409167" lon="11.3542933"><ele>353.5</ele><time>2026-03-22T11:35:59.898Z</time></trkpt><trkpt lat="43.4408867" lon="11.3541217"><ele>354.0</ele><time>2026-03-22T11:36:00.898Z</time></trkpt><trkpt lat="43.4408567" lon="11.3539583"><ele>354.5</ele><time>2026-03-22T11:36:01.898Z</time></trkpt><trkpt lat="43.440825" lon="11.353775"><ele>355.0</ele><time>2026-03-22T11:36:02.898Z</time></trkpt><trkpt lat="43.4408067" lon="11.3535817"><ele>356.5</ele><time>2026-03-22T11:36:03.898Z</time></trkpt><trkpt lat="43.4407867" lon="11.353375"><ele>358.0</ele><time>2026-03-22T11:36:04.898Z</time></trkpt><trkpt lat="43.440765" lon="11.3531767"><ele>359.5</ele><time>2026-03-22T11:36:05.898Z</time></trkpt><trkpt lat="43.4407467" lon="11.3529683"><ele>361.0</ele><time>2026-03-22T11:36:06.898Z</time></trkpt><trkpt lat="43.44072" lon="11.3527617"><ele>362.5</ele><time>2026-03-22T11:36:07.898Z</time></trkpt><trkpt lat="43.4406867" lon="11.3525733"><ele>364.0</ele><time>2026-03-22T11:36:08.898Z</time></trkpt><trkpt lat="43.4406633" lon="11.352385"><ele>365.5</ele><time>2026-03-22T11:36:09.899Z</time></trkpt><trkpt lat="43.4406333" lon="11.35221"><ele>367.0</ele><time>2026-03-22T11:36:10.898Z</time></trkpt><trkpt lat="43.44061" lon="11.3520433"><ele>368.20000000000005</ele><time>2026-03-22T11:36:11.898Z</time></trkpt><trkpt lat="43.4405983" lon="11.3519033"><ele>369.4</ele><time>2026-03-22T11:36:12.898Z</time></trkpt><trkpt lat="43.4405833" lon="11.35177"><ele>370.6</ele><time>2026-03-22T11:36:13.898Z</time></trkpt><trkpt lat="43.4405533" lon="11.35164"><ele>371.79999999999995</ele><time>2026-03-22T11:36:14.898Z</time></trkpt><trkpt lat="43.4405" lon="11.351515"><ele>373.0</ele><time>2026-03-22T11:36:15.898Z</time></trkpt><trkpt lat="43.44044" lon="11.3513717"><ele>373.0</ele><time>2026-03-22T11:36:16.898Z</time></trkpt><trkpt lat="43.440385" lon="11.3512117"><ele>373.0</ele><time>2026-03-22T11:36:17.898Z</time></trkpt><trkpt lat="43.44034" lon="11.35105"><ele>373.0</ele><time>2026-03-22T11:36:18.898Z</time></trkpt><trkpt lat="43.440295" lon="11.3508933"><ele>373.0</ele><time>2026-03-22T11:36:19.898Z</time></trkpt><trkpt lat="43.4402367" lon="11.35076"><ele>373.0</ele><time>2026-03-22T11:36:20.898Z</time></trkpt><trkpt lat="43.4401517" lon="11.3506517"><ele>373.0</ele><time>2026-03-22T11:36:21.898Z</time></trkpt><trkpt lat="43.4400617" lon="11.35055"><ele>373.0</ele><time>2026-03-22T11:36:22.898Z</time></trkpt><trkpt lat="43.4399467" lon="11.3504583"><ele>373.0</ele><time>2026-03-22T11:36:23.898Z</time></trkpt><trkpt lat="43.43982" lon="11.3503867"><ele>373.75</ele><time>2026-03-22T11:36:24.898Z</time></trkpt><trkpt lat="43.439685" lon="11.350315"><ele>374.5</ele><time>2026-03-22T11:36:25.898Z</time></trkpt><trkpt lat="43.4395483" lon="11.3502383"><ele>375.25</ele><time>2026-03-22T11:36:26.898Z</time></trkpt><trkpt lat="43.43941" lon="11.35019"><ele>376.0</ele><time>2026-03-22T11:36:27.898Z</time></trkpt><trkpt lat="43.4392717" lon="11.35015"><ele>376.25</ele><time>2026-03-22T11:36:28.898Z</time></trkpt><trkpt lat="43.439135" lon="11.350105"><ele>376.5</ele><time>2026-03-22T11:36:29.898Z</time></trkpt><trkpt lat="43.439005" lon="11.3500633"><ele>376.75</ele><time>2026-03-22T11:36:30.898Z</time></trkpt><trkpt lat="43.4388783" lon="11.3500183"><ele>377.0</ele><time>2026-03-22T11:36:31.898Z</time></trkpt><trkpt lat="43.4387533" lon="11.3499733"><ele>376.5</ele><time>2026-03-22T11:36:32.898Z</time></trkpt><trkpt lat="43.4386383" lon="11.3499133"><ele>376.0</ele><time>2026-03-22T11:36:33.898Z</time></trkpt><trkpt lat="43.43851" lon="11.3498467"><ele>375.5</ele><time>2026-03-22T11:36:34.898Z</time></trkpt><trkpt lat="43.4383867" lon="11.3497733"><ele>375.0</ele><time>2026-03-22T11:36:35.898Z</time></trkpt><trkpt lat="43.43828" lon="11.3496883"><ele>377.25</ele><time>2026-03-22T11:36:36.898Z</time></trkpt><trkpt lat="43.4381967" lon="11.3495667"><ele>379.5</ele><time>2026-03-22T11:36:37.898Z</time></trkpt><trkpt lat="43.438115" lon="11.3494267"><ele>381.75</ele><time>2026-03-22T11:36:38.898Z</time></trkpt><trkpt lat="43.4380533" lon="11.3492833"><ele>384.0</ele><time>2026-03-22T11:36:39.898Z</time></trkpt><trkpt lat="43.438005" lon="11.3491217"><ele>382.25</ele><time>2026-03-22T11:36:40.898Z</time></trkpt><trkpt lat="43.4379633" lon="11.3489567"><ele>380.5</ele><time>2026-03-22T11:36:41.898Z</time></trkpt><trkpt lat="43.437925" lon="11.3488067"><ele>378.75</ele><time>2026-03-22T11:36:42.898Z</time></trkpt><trkpt lat="43.4378817" lon="11.34865"><ele>377.0</ele><time>2026-03-22T11:36:43.898Z</time></trkpt><trkpt lat="43.437835" lon="11.34852"><ele>377.0</ele><time>2026-03-22T11:36:44.898Z</time></trkpt><trkpt lat="43.4377667" lon="11.3484167"><ele>377.0</ele><time>2026-03-22T11:36:45.898Z</time></trkpt><trkpt lat="43.437675" lon="11.348355"><ele>377.0</ele><time>2026-03-22T11:36:46.898Z</time></trkpt><trkpt lat="43.437575" lon="11.3483383"><ele>377.0</ele><time>2026-03-22T11:36:47.898Z</time></trkpt><trkpt lat="43.4374817" lon="11.3483683"><ele>377.0</ele><time>2026-03-22T11:36:48.898Z</time></trkpt><trkpt lat="43.437395" lon="11.34845"><ele>377.0</ele><time>2026-03-22T11:36:49.898Z</time></trkpt><trkpt lat="43.4373217" lon="11.34855"><ele>377.0</ele><time>2026-03-22T11:36:50.898Z</time></trkpt><trkpt lat="43.4372567" lon="11.3487033"><ele>377.0</ele><time>2026-03-22T11:36:51.898Z</time></trkpt><trkpt lat="43.4372217" lon="11.3488717"><ele>377.0</ele><time>2026-03-22T11:36:52.898Z</time></trkpt><trkpt lat="43.43718" lon="11.3490183"><ele>376.20000000000005</ele><time>2026-03-22T11:36:53.898Z</time></trkpt><trkpt lat="43.4371383" lon="11.349145"><ele>375.4</ele><time>2026-03-22T11:36:54.898Z</time></trkpt><trkpt lat="43.4370833" lon="11.3492483"><ele>374.6</ele><time>2026-03-22T11:36:55.898Z</time></trkpt><trkpt lat="43.4370067" lon="11.3493217"><ele>373.79999999999995</ele><time>2026-03-22T11:36:56.898Z</time></trkpt><trkpt lat="43.4369183" lon="11.3493567"><ele>373.0</ele><time>2026-03-22T11:36:57.898Z</time></trkpt><trkpt lat="43.4368283" lon="11.34935"><ele>373.0</ele><time>2026-03-22T11:36:58.898Z</time></trkpt><trkpt lat="43.4367333" lon="11.3493033"><ele>373.0</ele><time>2026-03-22T11:36:59.898Z</time></trkpt><trkpt lat="43.4366367" lon="11.349235"><ele>373.0</ele><time>2026-03-22T11:37:00.898Z</time></trkpt><trkpt lat="43.4365483" lon="11.3491467"><ele>373.0</ele><time>2026-03-22T11:37:01.898Z</time></trkpt><trkpt lat="43.43644" lon="11.3490333"><ele>373.0</ele><time>2026-03-22T11:37:02.898Z</time></trkpt><trkpt lat="43.4363333" lon="11.348935"><ele>373.0</ele><time>2026-03-22T11:37:03.898Z</time></trkpt><trkpt lat="43.4362217" lon="11.348855"><ele>373.0</ele><time>2026-03-22T11:37:04.898Z</time></trkpt><trkpt lat="43.4361233" lon="11.3487933"><ele>373.0</ele><time>2026-03-22T11:37:05.898Z</time></trkpt><trkpt lat="43.4360283" lon="11.34873"><ele>375.0</ele><time>2026-03-22T11:37:06.898Z</time></trkpt><trkpt lat="43.4359267" lon="11.34869"><ele>377.0</ele><time>2026-03-22T11:37:07.898Z</time></trkpt><trkpt lat="43.43583" lon="11.3486567"><ele>379.0</ele><time>2026-03-22T11:37:08.898Z</time></trkpt><trkpt lat="43.4357217" lon="11.3486583"><ele>381.0</ele><time>2026-03-22T11:37:09.898Z</time></trkpt><trkpt lat="43.4356183" lon="11.3486867"><ele>383.0</ele><time>2026-03-22T11:37:10.898Z</time></trkpt><trkpt lat="43.4355" lon="11.3487267"><ele>383.2</ele><time>2026-03-22T11:37:11.898Z</time></trkpt><trkpt lat="43.4353833" lon="11.348765"><ele>383.4</ele><time>2026-03-22T11:37:12.898Z</time></trkpt><trkpt lat="43.43529" lon="11.34879"><ele>383.59999999999997</ele><time>2026-03-22T11:37:13.898Z</time></trkpt><trkpt lat="43.4351933" lon="11.3487967"><ele>383.79999999999995</ele><time>2026-03-22T11:37:14.898Z</time></trkpt><trkpt lat="43.4351083" lon="11.3487867"><ele>384.0</ele><time>2026-03-22T11:37:15.898Z</time></trkpt><trkpt lat="43.4350333" lon="11.34876"><ele>384.0</ele><time>2026-03-22T11:37:16.898Z</time></trkpt><trkpt lat="43.43494" lon="11.3487367"><ele>384.0</ele><time>2026-03-22T11:37:17.898Z</time></trkpt><trkpt lat="43.4348483" lon="11.3487167"><ele>384.0</ele><time>2026-03-22T11:37:18.898Z</time></trkpt><trkpt lat="43.4347733" lon="11.348735"><ele>384.0</ele><time>2026-03-22T11:37:19.898Z</time></trkpt><trkpt lat="43.4346917" lon="11.3487783"><ele>384.0</ele><time>2026-03-22T11:37:20.898Z</time></trkpt><trkpt lat="43.43462" lon="11.3488583"><ele>384.0</ele><time>2026-03-22T11:37:21.898Z</time></trkpt><trkpt lat="43.4345567" lon="11.34897"><ele>386.0</ele><time>2026-03-22T11:37:22.898Z</time></trkpt><trkpt lat="43.434515" lon="11.34914"><ele>388.0</ele><time>2026-03-22T11:37:23.898Z</time></trkpt><trkpt lat="43.4344733" lon="11.349335"><ele>390.0</ele><time>2026-03-22T11:37:24.898Z</time></trkpt><trkpt lat="43.43444" lon="11.3495067"><ele>392.0</ele><time>2026-03-22T11:37:25.898Z</time></trkpt><trkpt lat="43.43439" lon="11.3496667"><ele>389.5</ele><time>2026-03-22T11:37:26.898Z</time></trkpt><trkpt lat="43.4343233" lon="11.34981"><ele>387.0</ele><time>2026-03-22T11:37:27.898Z</time></trkpt><trkpt lat="43.43423" lon="11.349955"><ele>384.5</ele><time>2026-03-22T11:37:28.898Z</time></trkpt><trkpt lat="43.43413" lon="11.3500933"><ele>382.0</ele><time>2026-03-22T11:37:29.898Z</time></trkpt><trkpt lat="43.4340283" lon="11.3502283"><ele>382.0</ele><time>2026-03-22T11:37:30.898Z</time></trkpt><trkpt lat="43.433895" lon="11.350345"><ele>382.0</ele><time>2026-03-22T11:37:31.898Z</time></trkpt><trkpt lat="43.4337767" lon="11.3504633"><ele>382.0</ele><time>2026-03-22T11:37:32.898Z</time></trkpt><trkpt lat="43.4336667" lon="11.3505933"><ele>382.0</ele><time>2026-03-22T11:37:33.898Z</time></trkpt><trkpt lat="43.4335517" lon="11.3507267"><ele>381.75</ele><time>2026-03-22T11:37:34.898Z</time></trkpt><trkpt lat="43.4334367" lon="11.350855"><ele>381.5</ele><time>2026-03-22T11:37:35.898Z</time></trkpt><trkpt lat="43.43332" lon="11.3509683"><ele>381.25</ele><time>2026-03-22T11:37:36.898Z</time></trkpt><trkpt lat="43.4331917" lon="11.3510733"><ele>381.0</ele><time>2026-03-22T11:37:37.898Z</time></trkpt><trkpt lat="43.4330683" lon="11.351155"><ele>382.8</ele><time>2026-03-22T11:37:38.898Z</time></trkpt><trkpt lat="43.4329517" lon="11.3512417"><ele>384.6</ele><time>2026-03-22T11:37:39.898Z</time></trkpt><trkpt lat="43.4328533" lon="11.3513117"><ele>386.4</ele><time>2026-03-22T11:37:40.898Z</time></trkpt><trkpt lat="43.43276" lon="11.35137"><ele>388.2</ele><time>2026-03-22T11:37:41.899Z</time></trkpt><trkpt lat="43.4326617" lon="11.3513883"><ele>390.0</ele><time>2026-03-22T11:37:42.898Z</time></trkpt><trkpt lat="43.43257" lon="11.3513883"><ele>390.0</ele><time>2026-03-22T11:37:43.898Z</time></trkpt><trkpt lat="43.432475" lon="11.351375"><ele>390.0</ele><time>2026-03-22T11:37:44.899Z</time></trkpt><trkpt lat="43.4323933" lon="11.351375"><ele>390.0</ele><time>2026-03-22T11:37:45.898Z</time></trkpt><trkpt lat="43.4323283" lon="11.3513683"><ele>390.0</ele><time>2026-03-22T11:37:46.898Z</time></trkpt><trkpt lat="43.4322483" lon="11.3513683"><ele>390.0</ele><time>2026-03-22T11:37:48.898Z</time></trkpt><trkpt lat="43.4321617" lon="11.3513767"><ele>390.0</ele><time>2026-03-22T11:37:51.898Z</time></trkpt><trkpt lat="43.432095" lon="11.3513517"><ele>391.0</ele><time>2026-03-22T11:37:53.898Z</time></trkpt><trkpt lat="43.4320183" lon="11.351265"><ele>392.0</ele><time>2026-03-22T11:37:56.898Z</time></trkpt><trkpt lat="43.4319317" lon="11.3512133"><ele>393.0</ele><time>2026-03-22T11:37:58.898Z</time></trkpt><trkpt lat="43.4318667" lon="11.351175"><ele>394.0</ele><time>2026-03-22T11:37:59.898Z</time></trkpt><trkpt lat="43.4318017" lon="11.3511083"><ele>395.0</ele><time>2026-03-22T11:38:00.899Z</time></trkpt><trkpt lat="43.4317317" lon="11.351035"><ele>396.0</ele><time>2026-03-22T11:38:01.898Z</time></trkpt><trkpt lat="43.4316633" lon="11.3509617"><ele>396.0</ele><time>2026-03-22T11:38:02.898Z</time></trkpt><trkpt lat="43.4316067" lon="11.3509"><ele>396.0</ele><time>2026-03-22T11:38:03.898Z</time></trkpt><trkpt lat="43.43156" lon="11.3508417"><ele>396.0</ele><time>2026-03-22T11:38:04.898Z</time></trkpt><trkpt lat="43.431465" lon="11.3507367"><ele>396.0</ele><time>2026-03-22T11:38:06.898Z</time></trkpt><trkpt lat="43.4314" lon="11.3507083"><ele>396.0</ele><time>2026-03-22T11:38:07.898Z</time></trkpt><trkpt lat="43.431335" lon="11.3507017"><ele>396.0</ele><time>2026-03-22T11:38:08.898Z</time></trkpt><trkpt lat="43.431255" lon="11.3507283"><ele>392.5</ele><time>2026-03-22T11:38:09.898Z</time></trkpt><trkpt lat="43.431165" lon="11.3507717"><ele>389.0</ele><time>2026-03-22T11:38:10.898Z</time></trkpt><trkpt lat="43.4310583" lon="11.3508283"><ele>385.5</ele><time>2026-03-22T11:38:11.898Z</time></trkpt><trkpt lat="43.4309367" lon="11.3508767"><ele>382.0</ele><time>2026-03-22T11:38:12.898Z</time></trkpt><trkpt lat="43.4308083" lon="11.350915"><ele>382.0</ele><time>2026-03-22T11:38:13.898Z</time></trkpt><trkpt lat="43.430675" lon="11.35091"><ele>382.0</ele><time>2026-03-22T11:38:14.898Z</time></trkpt><trkpt lat="43.4305483" lon="11.3508833"><ele>382.0</ele><time>2026-03-22T11:38:15.898Z</time></trkpt><trkpt lat="43.4304167" lon="11.3508583"><ele>382.0</ele><time>2026-03-22T11:38:16.898Z</time></trkpt><trkpt lat="43.4302883" lon="11.3508533"><ele>381.40000000000003</ele><time>2026-03-22T11:38:17.898Z</time></trkpt><trkpt lat="43.4301683" lon="11.3508617"><ele>380.8</ele><time>2026-03-22T11:38:18.898Z</time></trkpt><trkpt lat="43.4300667" lon="11.350875"><ele>380.2</ele><time>2026-03-22T11:38:19.898Z</time></trkpt><trkpt lat="43.4299567" lon="11.35088"><ele>379.6</ele><time>2026-03-22T11:38:20.898Z</time></trkpt><trkpt lat="43.42985" lon="11.3508867"><ele>379.0</ele><time>2026-03-22T11:38:21.898Z</time></trkpt><trkpt lat="43.42974" lon="11.350885"><ele>377.5</ele><time>2026-03-22T11:38:22.898Z</time></trkpt><trkpt lat="43.4296367" lon="11.3508583"><ele>376.0</ele><time>2026-03-22T11:38:23.898Z</time></trkpt><trkpt lat="43.4295267" lon="11.350805"><ele>374.5</ele><time>2026-03-22T11:38:24.898Z</time></trkpt><trkpt lat="43.4294167" lon="11.3507283"><ele>373.0</ele><time>2026-03-22T11:38:25.898Z</time></trkpt><trkpt lat="43.4293067" lon="11.3506467"><ele>373.0</ele><time>2026-03-22T11:38:26.898Z</time></trkpt><trkpt lat="43.4292067" lon="11.35058"><ele>373.0</ele><time>2026-03-22T11:38:27.898Z</time></trkpt><trkpt lat="43.4291033" lon="11.350505"><ele>373.0</ele><time>2026-03-22T11:38:28.898Z</time></trkpt><trkpt lat="43.4290117" lon="11.3504333"><ele>373.0</ele><time>2026-03-22T11:38:29.898Z</time></trkpt><trkpt lat="43.4289117" lon="11.3503717"><ele>373.0</ele><time>2026-03-22T11:38:30.898Z</time></trkpt><trkpt lat="43.4288133" lon="11.35029"><ele>373.79999999999995</ele><time>2026-03-22T11:38:31.898Z</time></trkpt><trkpt lat="43.4287217" lon="11.3502067"><ele>374.6</ele><time>2026-03-22T11:38:32.898Z</time></trkpt><trkpt lat="43.42862" lon="11.3501317"><ele>375.4</ele><time>2026-03-22T11:38:33.898Z</time></trkpt><trkpt lat="43.428535" lon="11.3500767"><ele>376.20000000000005</ele><time>2026-03-22T11:38:34.898Z</time></trkpt><trkpt lat="43.4284433" lon="11.350035"><ele>377.0</ele><time>2026-03-22T11:38:35.898Z</time></trkpt><trkpt lat="43.42834" lon="11.3500083"><ele>377.0</ele><time>2026-03-22T11:38:36.898Z</time></trkpt><trkpt lat="43.42823" lon="11.350015"><ele>377.0</ele><time>2026-03-22T11:38:37.898Z</time></trkpt><trkpt lat="43.4281033" lon="11.35005"><ele>377.0</ele><time>2026-03-22T11:38:38.898Z</time></trkpt><trkpt lat="43.42799" lon="11.3500883"><ele>377.0</ele><time>2026-03-22T11:38:39.898Z</time></trkpt><trkpt lat="43.42787" lon="11.3501617"><ele>377.33333333333337</ele><time>2026-03-22T11:38:40.899Z</time></trkpt><trkpt lat="43.42774" lon="11.3502317"><ele>377.6666666666667</ele><time>2026-03-22T11:38:41.898Z</time></trkpt><trkpt lat="43.4275967" lon="11.3502967"><ele>378.0</ele><time>2026-03-22T11:38:42.898Z</time></trkpt><trkpt lat="43.4274417" lon="11.3503483"><ele>378.0</ele><time>2026-03-22T11:38:43.898Z</time></trkpt><trkpt lat="43.4273033" lon="11.350385"><ele>378.0</ele><time>2026-03-22T11:38:44.898Z</time></trkpt><trkpt lat="43.4271867" lon="11.35041"><ele>378.0</ele><time>2026-03-22T11:38:45.899Z</time></trkpt><trkpt lat="43.427075" lon="11.35045"><ele>378.0</ele><time>2026-03-22T11:38:46.898Z</time></trkpt><trkpt lat="43.4269983" lon="11.3505167"><ele>381.2</ele><time>2026-03-22T11:38:47.898Z</time></trkpt><trkpt lat="43.4269367" lon="11.3505983"><ele>384.4</ele><time>2026-03-22T11:38:48.898Z</time></trkpt><trkpt lat="43.4268917" lon="11.3507067"><ele>387.59999999999997</ele><time>2026-03-22T11:38:49.898Z</time></trkpt><trkpt lat="43.4268417" lon="11.3508083"><ele>390.79999999999995</ele><time>2026-03-22T11:38:50.898Z</time></trkpt><trkpt lat="43.42679" lon="11.3509233"><ele>394.0</ele><time>2026-03-22T11:38:51.898Z</time></trkpt><trkpt lat="43.426745" lon="11.3510583"><ele>394.0</ele><time>2026-03-22T11:38:52.898Z</time></trkpt><trkpt lat="43.4267033" lon="11.3511833"><ele>394.0</ele><time>2026-03-22T11:38:53.898Z</time></trkpt><trkpt lat="43.42663" lon="11.3513283"><ele>394.0</ele><time>2026-03-22T11:38:54.898Z</time></trkpt><trkpt lat="43.4265767" lon="11.3514567"><ele>394.0</ele><time>2026-03-22T11:38:55.898Z</time></trkpt><trkpt lat="43.4265117" lon="11.3515867"><ele>392.75</ele><time>2026-03-22T11:38:56.899Z</time></trkpt><trkpt lat="43.4264183" lon="11.3517083"><ele>391.5</ele><time>2026-03-22T11:38:57.898Z</time></trkpt><trkpt lat="43.4263267" lon="11.3518133"><ele>390.25</ele><time>2026-03-22T11:38:58.898Z</time></trkpt><trkpt lat="43.4262183" lon="11.35191"><ele>389.0</ele><time>2026-03-22T11:38:59.898Z</time></trkpt><trkpt lat="43.4261217" lon="11.3520017"><ele>392.0</ele><time>2026-03-22T11:39:00.898Z</time></trkpt><trkpt lat="43.426045" lon="11.352095"><ele>395.0</ele><time>2026-03-22T11:39:01.899Z</time></trkpt><trkpt lat="43.425965" lon="11.35221"><ele>398.0</ele><time>2026-03-22T11:39:02.898Z</time></trkpt><trkpt lat="43.425905" lon="11.3523533"><ele>401.0</ele><time>2026-03-22T11:39:03.898Z</time></trkpt><trkpt lat="43.425865" lon="11.3525233"><ele>401.0</ele><time>2026-03-22T11:39:04.898Z</time></trkpt><trkpt lat="43.4258317" lon="11.3527117"><ele>401.0</ele><time>2026-03-22T11:39:05.898Z</time></trkpt><trkpt lat="43.4258" lon="11.3529"><ele>401.0</ele><time>2026-03-22T11:39:06.898Z</time></trkpt><trkpt lat="43.4257883" lon="11.3530883"><ele>401.0</ele><time>2026-03-22T11:39:07.898Z</time></trkpt><trkpt lat="43.425785" lon="11.35326"><ele>400.5</ele><time>2026-03-22T11:39:08.898Z</time></trkpt><trkpt lat="43.4257917" lon="11.353445"><ele>400.0</ele><time>2026-03-22T11:39:09.898Z</time></trkpt><trkpt lat="43.4258033" lon="11.35362"><ele>399.5</ele><time>2026-03-22T11:39:10.898Z</time></trkpt><trkpt lat="43.4258" lon="11.3537883"><ele>399.0</ele><time>2026-03-22T11:39:11.898Z</time></trkpt><trkpt lat="43.4257717" lon="11.353945"><ele>400.6</ele><time>2026-03-22T11:39:12.898Z</time></trkpt><trkpt lat="43.4257217" lon="11.3541033"><ele>402.2</ele><time>2026-03-22T11:39:13.898Z</time></trkpt><trkpt lat="43.425655" lon="11.35424"><ele>403.8</ele><time>2026-03-22T11:39:14.898Z</time></trkpt><trkpt lat="43.425585" lon="11.3543417"><ele>405.40000000000003</ele><time>2026-03-22T11:39:15.898Z</time></trkpt><trkpt lat="43.4254983" lon="11.3543983"><ele>407.0</ele><time>2026-03-22T11:39:16.898Z</time></trkpt><trkpt lat="43.4254117" lon="11.354415"><ele>409.99999999999994</ele><time>2026-03-22T11:39:17.898Z</time></trkpt><trkpt lat="43.4253267" lon="11.3544167"><ele>413.0</ele><time>2026-03-22T11:39:18.898Z</time></trkpt><trkpt lat="43.42524" lon="11.3544217"><ele>416.0</ele><time>2026-03-22T11:39:19.898Z</time></trkpt><trkpt lat="43.4251567" lon="11.3544567"><ele>419.0</ele><time>2026-03-22T11:39:20.898Z</time></trkpt><trkpt lat="43.4250883" lon="11.3544983"><ele>421.99999999999994</ele><time>2026-03-22T11:39:21.899Z</time></trkpt><trkpt lat="43.4250333" lon="11.3545733"><ele>425.0</ele><time>2026-03-22T11:39:22.898Z</time></trkpt><trkpt lat="43.4250117" lon="11.35467"><ele>424.8333333333333</ele><time>2026-03-22T11:39:23.898Z</time></trkpt><trkpt lat="43.4249817" lon="11.3547533"><ele>424.66666666666663</ele><time>2026-03-22T11:39:24.898Z</time></trkpt><trkpt lat="43.4249283" lon="11.3548083"><ele>424.5</ele><time>2026-03-22T11:39:25.898Z</time></trkpt><trkpt lat="43.424865" lon="11.354845"><ele>424.33333333333337</ele><time>2026-03-22T11:39:26.898Z</time></trkpt><trkpt lat="43.4247817" lon="11.35486"><ele>424.1666666666667</ele><time>2026-03-22T11:39:27.898Z</time></trkpt><trkpt lat="43.4246767" lon="11.3548433"><ele>424.0</ele><time>2026-03-22T11:39:28.898Z</time></trkpt><trkpt lat="43.4245567" lon="11.3548317"><ele>423.0</ele><time>2026-03-22T11:39:29.898Z</time></trkpt><trkpt lat="43.4244433" lon="11.3548183"><ele>422.0</ele><time>2026-03-22T11:39:30.898Z</time></trkpt><trkpt lat="43.4243317" lon="11.3547783"><ele>421.0</ele><time>2026-03-22T11:39:31.898Z</time></trkpt><trkpt lat="43.424235" lon="11.3547217"><ele>420.0</ele><time>2026-03-22T11:39:32.898Z</time></trkpt><trkpt lat="43.42416" lon="11.3546317"><ele>419.0</ele><time>2026-03-22T11:39:33.898Z</time></trkpt><trkpt lat="43.424095" lon="11.35452"><ele>422.2</ele><time>2026-03-22T11:39:34.898Z</time></trkpt><trkpt lat="43.42403" lon="11.3544033"><ele>425.4</ele><time>2026-03-22T11:39:35.898Z</time></trkpt><trkpt lat="43.4239733" lon="11.3542883"><ele>428.6</ele><time>2026-03-22T11:39:36.898Z</time></trkpt><trkpt lat="43.4239367" lon="11.354175"><ele>431.8</ele><time>2026-03-22T11:39:37.898Z</time></trkpt><trkpt lat="43.4239117" lon="11.354045"><ele>435.0</ele><time>2026-03-22T11:39:38.898Z</time></trkpt><trkpt lat="43.42389" lon="11.3539017"><ele>438.0</ele><time>2026-03-22T11:39:39.898Z</time></trkpt><trkpt lat="43.4238733" lon="11.3537533"><ele>441.0</ele><time>2026-03-22T11:39:40.898Z</time></trkpt><trkpt lat="43.42386" lon="11.3535867"><ele>444.0</ele><time>2026-03-22T11:39:41.898Z</time></trkpt><trkpt lat="43.4238467" lon="11.3534017"><ele>447.0</ele><time>2026-03-22T11:39:42.898Z</time></trkpt><trkpt lat="43.4238217" lon="11.35323"><ele>446.0</ele><time>2026-03-22T11:39:43.898Z</time></trkpt><trkpt lat="43.4237967" lon="11.3530633"><ele>445.0</ele><time>2026-03-22T11:39:44.898Z</time></trkpt><trkpt lat="43.4237717" lon="11.35289"><ele>444.0</ele><time>2026-03-22T11:39:45.898Z</time></trkpt><trkpt lat="43.42375" lon="11.3527183"><ele>443.0</ele><time>2026-03-22T11:39:46.898Z</time></trkpt><trkpt lat="43.4237283" lon="11.35255"><ele>443.0</ele><time>2026-03-22T11:39:47.898Z</time></trkpt><trkpt lat="43.4237167" lon="11.3523867"><ele>443.0</ele><time>2026-03-22T11:39:48.898Z</time></trkpt><trkpt lat="43.42373" lon="11.352235"><ele>443.0</ele><time>2026-03-22T11:39:49.898Z</time></trkpt><trkpt lat="43.4237533" lon="11.352085"><ele>443.0</ele><time>2026-03-22T11:39:50.898Z</time></trkpt><trkpt lat="43.4238" lon="11.3519267"><ele>445.25</ele><time>2026-03-22T11:39:51.898Z</time></trkpt><trkpt lat="43.4238467" lon="11.351775"><ele>447.5</ele><time>2026-03-22T11:39:52.898Z</time></trkpt><trkpt lat="43.423895" lon="11.3516283"><ele>449.75</ele><time>2026-03-22T11:39:53.898Z</time></trkpt><trkpt lat="43.423935" lon="11.3514683"><ele>452.0</ele><time>2026-03-22T11:39:54.898Z</time></trkpt><trkpt lat="43.4239683" lon="11.3513167"><ele>452.25</ele><time>2026-03-22T11:39:55.898Z</time></trkpt><trkpt lat="43.4240083" lon="11.35116"><ele>452.5</ele><time>2026-03-22T11:39:56.898Z</time></trkpt><trkpt lat="43.4240283" lon="11.350995"><ele>452.75</ele><time>2026-03-22T11:39:57.898Z</time></trkpt><trkpt lat="43.4240417" lon="11.3508417"><ele>453.0</ele><time>2026-03-22T11:39:58.898Z</time></trkpt><trkpt lat="43.424035" lon="11.3506867"><ele>453.0</ele><time>2026-03-22T11:39:59.898Z</time></trkpt><trkpt lat="43.4240267" lon="11.3505417"><ele>453.0</ele><time>2026-03-22T11:40:00.898Z</time></trkpt><trkpt lat="43.424015" lon="11.3504283"><ele>453.0</ele><time>2026-03-22T11:40:01.899Z</time></trkpt><trkpt lat="43.4239917" lon="11.350325"><ele>453.0</ele><time>2026-03-22T11:40:02.899Z</time></trkpt><trkpt lat="43.423955" lon="11.350245"><ele>453.0</ele><time>2026-03-22T11:40:03.898Z</time></trkpt><trkpt lat="43.4238967" lon="11.3501867"><ele>453.0</ele><time>2026-03-22T11:40:04.898Z</time></trkpt><trkpt lat="43.4238333" lon="11.3501517"><ele>457.59999999999997</ele><time>2026-03-22T11:40:05.898Z</time></trkpt><trkpt lat="43.4237417" lon="11.3501567"><ele>462.19999999999993</ele><time>2026-03-22T11:40:06.898Z</time></trkpt><trkpt lat="43.4236417" lon="11.3501817"><ele>466.8</ele><time>2026-03-22T11:40:07.898Z</time></trkpt><trkpt lat="43.4235383" lon="11.350225"><ele>471.4</ele><time>2026-03-22T11:40:08.898Z</time></trkpt><trkpt lat="43.4234233" lon="11.3502817"><ele>476.0</ele><time>2026-03-22T11:40:09.898Z</time></trkpt><trkpt lat="43.4233083" lon="11.350345"><ele>476.0</ele><time>2026-03-22T11:40:10.898Z</time></trkpt><trkpt lat="43.4232133" lon="11.350425"><ele>476.0</ele><time>2026-03-22T11:40:11.898Z</time></trkpt><trkpt lat="43.423135" lon="11.3505133"><ele>476.0</ele><time>2026-03-22T11:40:12.898Z</time></trkpt><trkpt lat="43.42307" lon="11.3505883"><ele>476.0</ele><time>2026-03-22T11:40:13.898Z</time></trkpt><trkpt lat="43.4230117" lon="11.350635"><ele>476.0</ele><time>2026-03-22T11:40:14.898Z</time></trkpt><trkpt lat="43.4229117" lon="11.3506483"><ele>477.6</ele><time>2026-03-22T11:40:16.898Z</time></trkpt><trkpt lat="43.4228667" lon="11.3505567"><ele>479.20000000000005</ele><time>2026-03-22T11:40:18.898Z</time></trkpt><trkpt lat="43.4228167" lon="11.3503783"><ele>480.79999999999995</ele><time>2026-03-22T11:40:20.898Z</time></trkpt><trkpt lat="43.4227717" lon="11.3502667"><ele>482.4</ele><time>2026-03-22T11:40:21.898Z</time></trkpt><trkpt lat="43.4227083" lon="11.3501717"><ele>484.0</ele><time>2026-03-22T11:40:22.898Z</time></trkpt><trkpt lat="43.4226283" lon="11.3500967"><ele>484.0</ele><time>2026-03-22T11:40:23.898Z</time></trkpt><trkpt lat="43.4225467" lon="11.3500267"><ele>484.0</ele><time>2026-03-22T11:40:24.898Z</time></trkpt><trkpt lat="43.422455" lon="11.349955"><ele>484.0</ele><time>2026-03-22T11:40:25.898Z</time></trkpt><trkpt lat="43.42235" lon="11.3498867"><ele>484.0</ele><time>2026-03-22T11:40:26.898Z</time></trkpt><trkpt lat="43.4222583" lon="11.3497917"><ele>484.0</ele><time>2026-03-22T11:40:27.898Z</time></trkpt><trkpt lat="43.42217" lon="11.3496933"><ele>486.79999999999995</ele><time>2026-03-22T11:40:28.898Z</time></trkpt><trkpt lat="43.4220817" lon="11.3496167"><ele>489.59999999999997</ele><time>2026-03-22T11:40:29.898Z</time></trkpt><trkpt lat="43.4219983" lon="11.3495733"><ele>492.4</ele><time>2026-03-22T11:40:30.898Z</time></trkpt><trkpt lat="43.4219117" lon="11.349535"><ele>495.2</ele><time>2026-03-22T11:40:31.898Z</time></trkpt><trkpt lat="43.421825" lon="11.349535"><ele>498.0</ele><time>2026-03-22T11:40:32.898Z</time></trkpt><trkpt lat="43.421735" lon="11.34955"><ele>498.0</ele><time>2026-03-22T11:40:33.898Z</time></trkpt><trkpt lat="43.4216517" lon="11.3495717"><ele>498.0</ele><time>2026-03-22T11:40:34.898Z</time></trkpt><trkpt lat="43.42159" lon="11.3495917"><ele>498.0</ele><time>2026-03-22T11:40:35.898Z</time></trkpt><trkpt lat="43.4215183" lon="11.3495917"><ele>498.0</ele><time>2026-03-22T11:40:37.898Z</time></trkpt><trkpt lat="43.4214333" lon="11.3496683"><ele>498.0</ele><time>2026-03-22T11:40:40.898Z</time></trkpt><trkpt lat="43.4213833" lon="11.3497333"><ele>498.0</ele><time>2026-03-22T11:40:42.898Z</time></trkpt><trkpt lat="43.4213267" lon="11.3497933"><ele>482.0</ele><time>2026-03-22T11:40:44.898Z</time></trkpt><trkpt lat="43.4212517" lon="11.3498217"><ele>476.0</ele><time>2026-03-22T11:40:47.898Z</time></trkpt><trkpt lat="43.4212033" lon="11.349765"><ele>476.0</ele><time>2026-03-22T11:40:50.898Z</time></trkpt><trkpt lat="43.4211283" lon="11.3497317"><ele>476.0</ele><time>2026-03-22T11:41:08.898Z</time></trkpt></trkseg></trk></gpx>